GFSGL_500_spd_000.txt.gz
Wind_Speed
34 34 32 33 34 34 35 39 41 43 45 47 49 53 56 59 64 68 69 68 65 66 68 72 77 83 87 92 97 103 108 114 120 116 118 114 102 93 84 78 74 74 76
31 30 32 32 32 34 39 41 43 45 48 50 53 57 60 64 69 69 68 65 66 69 73 79 84 88 93 99 104 109 115 120 123 121 105 86 77 71 68 65 65 70 77
30 31 31 31 34 38 41 43 45 49 50 54 57 61 66 69 69 67 65 66 69 75 80 85 90 96 101 107 113 118 121 120 110 96 82 71 65 63 63 64 67 72 71
30 30 31 34 37 41 43 46 49 49 53 56 61 66 69 70 67 65 66 69 75 80 87 93 100 105 110 115 118 121 118 101 86 80 75 68 67 64 67 69 69 61 57
29 31 34 37 40 44 46 48 49 54 56 60 65 69 70 67 65 66 70 75 80 86 94 100 106 110 115 119 120 110 94 86 83 81 78 75 72 71 72 72 58 50 39
31 33 36 39 43 45 47 50 52 54 60 64 69 68 66 65 66 71 76 80 86 93 99 107 112 115 118 113 98 91 90 89 84 80 78 74 72 70 66 52 45 41 33
33 36 39 42 46 47 48 50 53 59 62 69 67 64 64 66 71 76 81 87 94 100 108 113 114 115 105 93 88 88 83 77 73 71 66 59 55 49 44 40 41 37 32
36 39 43 46 46 46 48 53 57 62 66 66 62 63 66 72 77 80 86 93 101 106 110 114 111 98 88 88 84 78 72 65 56 49 45 40 37 35 37 37 31 27 25
40 43 45 43 43 48 52 57 61 64 64 60 61 66 71 76 80 86 92 99 103 108 112 107 93 86 86 78 74 70 60 47 38 32 31 32 31 36 37 29 27 24 22
36 38 41 45 47 52 56 59 62 58 57 60 65 70 74 80 87 93 97 102 107 111 104 85 83 82 74 70 63 54 38 30 27 24 24 29 32 31 30 29 27 25 23
39 42 44 48 51 54 58 59 54 55 59 63 67 72 80 86 92 97 102 107 109 103 85 80 76 70 67 58 47 39 33 25 20 24 25 23 25 26 25 26 25 23 21
41 44 47 50 53 56 53 52 54 58 62 65 70 77 83 89 96 101 106 108 100 84 79 71 67 63 54 39 35 29 22 24 24 20 20 23 23 22 22 22 23 27 29
44 46 48 52 52 50 50 53 58 61 64 69 74 81 88 94 99 104 106 96 80 78 69 62 55 47 38 30 24 22 24 20 17 18 21 22 21 20 19 21 23 27 34
43 47 49 48 48 50 53 56 59 63 69 75 81 88 93 99 102 105 96 79 75 67 59 50 44 41 32 21 25 25 19 17 16 18 20 21 21 20 19 19 22 25 28
45 45 45 46 48 51 54 57 62 70 76 81 87 93 97 101 102 94 78 74 66 57 48 43 39 28 21 29 28 19 19 18 19 20 20 21 21 19 18 18 21 24 26
42 44 45 47 49 52 56 62 70 76 82 87 92 96 99 100 90 76 73 64 56 46 40 33 20 23 27 24 18 19 18 18 19 21 21 19 19 18 18 18 19 22 24
43 45 45 48 52 55 60 67 72 80 86 90 93 97 99 88 75 72 63 55 43 39 31 20 27 27 21 18 19 20 20 22 22 23 22 21 19 16 16 17 17 19 21
44 45 48 51 55 60 66 73 78 82 86 91 96 99 87 73 71 61 54 40 38 35 22 26 25 20 21 20 22 23 24 24 25 23 22 20 19 16 15 15 16 16 15
45 48 51 55 60 66 72 77 82 85 89 94 96 85 71 67 58 54 40 36 32 20 25 23 22 22 23 23 21 21 20 20 20 21 19 17 16 15 13 12 12 14 11
47 51 54 60 66 71 76 81 85 88 92 95 83 68 62 54 50 38 33 29 20 24 22 22 21 20 18 20 22 22 20 19 20 21 19 18 15 13 9 8 9 9 9
49 53 60 66 70 75 79 83 86 90 94 81 67 62 53 48 39 29 26 18 21 20 22 20 18 19 21 24 25 25 24 20 17 18 17 16 14 10 8 9 8 8 6
54 60 65 70 74 78 82 85 89 93 81 67 61 53 47 43 28 25 17 19 18 18 16 17 18 20 20 19 19 20 19 19 17 15 13 12 12 11 11 9 9 7 6
60 64 69 73 77 81 84 87 91 82 67 61 55 47 40 29 21 16 16 16 15 15 17 18 19 18 16 16 18 19 19 18 16 14 13 15 15 13 12 12 12 9 5
64 68 71 76 79 82 85 90 84 68 63 56 48 38 30 17 14 12 12 11 14 16 16 16 15 15 15 18 20 21 22 23 22 18 15 14 15 15 14 13 13 11 8
66 69 74 77 81 84 88 86 67 63 57 49 36 26 17 10 6 7 9 14 16 16 16 15 14 15 14 15 17 18 21 23 23 21 19 19 19 20 19 17 16 13 11
69 73 76 80 83 87 86 64 62 56 49 39 26 19 5 2 5 9 13 15 17 18 20 21 19 17 16 13 14 17 18 22 25 24 20 18 19 20 21 22 22 21 19

GFSGL_500_spd_003.txt.gz
Wind_Speed
32 34 35 36 36 35 37 39 38 40 42 44 46 49 51 54 58 63 66 69 73 75 73 71 72 73 77 82 88 95 102 109 114 110 118 124 126 124 114 102 88 79 75
34 35 36 35 34 36 37 37 39 42 44 47 50 52 55 58 62 65 69 75 76 72 71 72 75 80 83 88 95 102 108 115 123 127 124 117 105 89 88 83 78 75 73
33 34 34 32 34 35 36 39 41 44 48 50 53 55 59 60 65 69 75 75 71 72 73 77 81 85 90 96 103 109 116 122 125 119 108 94 91 87 83 79 76 75 73
31 32 32 32 33 35 38 41 44 47 50 53 56 58 60 63 69 74 74 70 71 73 78 82 87 92 99 104 110 118 124 122 108 97 93 89 83 77 75 69 59 59 58
30 31 32 32 34 36 40 44 47 50 53 57 58 59 63 69 73 73 70 70 73 77 81 87 93 100 106 112 119 122 114 99 91 86 81 79 75 66 57 48 43 36 34
29 30 30 32 36 40 44 47 51 55 59 54 57 62 68 72 73 69 70 73 76 81 87 92 100 106 112 118 116 104 91 86 81 77 72 63 51 43 37 33 31 30 27
27 29 32 36 39 43 48 51 50 48 54 58 62 67 72 69 67 69 72 75 82 88 95 102 106 112 116 110 95 86 79 74 67 60 52 44 39 37 33 31 30 26 26
28 31 35 39 43 46 45 46 51 54 58 61 66 70 64 65 68 71 75 81 88 97 102 107 111 113 106 90 84 76 70 57 48 47 43 35 34 31 28 28 26 23 23
31 35 38 41 42 45 49 51 53 57 61 65 66 63 64 67 69 75 80 87 93 99 105 110 110 100 84 80 71 62 51 43 40 34 36 34 30 31 30 25 21 18 19
34 36 39 42 45 48 49 53 55 59 64 60 61 63 65 68 74 81 86 93 98 103 107 103 90 81 76 68 56 52 41 33 31 31 28 28 31 30 27 26 22 20 23
37 39 41 44 46 48 51 54 59 60 58 59 61 63 67 75 81 87 93 98 103 104 101 85 77 72 65 53 48 39 33 34 28 24 25 27 28 28 25 26 26 27 28
37 41 42 44 46 49 53 57 55 55 56 59 61 67 74 81 87 92 96 102 104 99 84 76 69 61 51 46 34 31 36 28 24 24 24 25 26 26 26 27 26 31 37
38 40 41 44 48 52 52 52 53 55 57 60 65 71 79 86 91 96 100 102 94 81 75 67 58 49 44 29 28 35 26 24 24 24 26 26 26 25 25 26 27 29 35
37 39 43 47 48 48 50 51 52 56 60 65 72 77 83 89 94 99 101 93 81 73 65 56 45 41 29 28 34 30 26 25 25 24 25 27 25 25 24 24 24 26 30
39 42 43 44 46 47 49 51 55 61 66 71 76 82 88 93 97 102 96 81 71 64 57 42 37 28 34 35 32 26 26 28 27 29 29 28 26 25 24 23 23 25 27
39 41 43 44 44 47 50 55 60 65 72 77 83 88 92 96 100 94 77 69 62 56 42 35 26 31 30 27 28 29 29 30 30 30 29 27 25 21 22 22 21 20 23
40 41 42 44 46 49 53 57 63 72 78 83 87 91 94 99 93 75 66 59 55 42 35 24 29 27 28 28 28 28 26 26 25 25 26 23 22 21 19 18 18 18 19
39 41 43 45 48 52 57 64 69 74 78 83 89 93 97 90 74 65 57 53 40 36 26 29 26 28 28 27 24 24 26 26 26 25 24 22 20 18 18 16 14 14 14
40 42 45 48 52 57 63 68 73 78 83 87 91 95 91 71 64 58 51 38 33 25 28 26 28 25 24 26 27 28 26 26 25 24 22 21 20 19 17 15 12 9 11
41 44 47 52 57 62 67 72 76 81 85 90 94 92 70 61 57 48 37 30 24 26 25 24 23 25 27 27 25 23 24 23 22 20 19 20 19 16 15 13 12 11 11
43 47 52 56 61 65 70 75 80 83 88 92 91 70 63 56 45 33 25 21 23 23 22 21 22 23 23 21 21 22 23 23 22 19 17 17 16 15 13 14 14 13 11
47 52 56 60 65 69 74 78 82 87 91 90 67 62 56 44 30 21 18 19 19 18 19 20 20 19 17 18 20 22 25 24 20 17 17 17 17 17 15 16 14 11 9
52 56 60 65 69 73 78 81 87 90 87 66 61 53 43 30 18 15 15 14 16 18 18 18 18 17 15 15 19 23 24 24 23 20 19 19 19 19 17 15 15 12 8
55 61 65 68 72 77 80 85 89 84 64 60 53 44 29 17 12 11 11 13 16 17 19 18 15 14 12 15 18 21 25 25 25 22 21 21 20 20 20 18 16 12 9
60 64 67 72 76 79 85 89 81 63 59 51 42 32 17 7 5 7 10 14 16 17 17 17 17 16 14 13 14 17 21 24 22 21 21 19 20 22 23 20 19 14 9
63 67 71 75 79 85 90 79 63 59 50 41 32 19 3 2 6 8 11 15 18 21 22 23 23 22 20 19 17 17 21 22 21 20 19 19 19 21 23 24 23 16 13

GFSGL_500_spd_006.txt.gz
Wind_Speed
33 34 34 34 35 36 37 37 38 40 41 41 42 44 47 50 53 56 58 63 65 66 71 76 77 75 75 78 80 83 89 96 102 98 107 110 118 124 123 115 107 103 100
35 35 36 36 35 36 36 36 38 40 40 42 44 47 51 55 57 60 64 62 66 71 75 78 74 76 78 79 84 91 99 105 111 113 112 117 116 104 95 94 87 84 82
37 37 37 36 35 35 35 37 39 40 41 44 48 51 55 58 60 59 60 66 72 76 76 73 76 77 80 85 91 99 106 111 115 120 116 105 93 89 78 65 62 56 51
36 36 35 32 32 33 35 37 38 40 44 48 52 55 57 55 57 62 67 72 76 73 73 75 76 81 87 93 98 107 113 115 116 108 97 88 78 58 50 47 41 40 37
33 30 30 30 31 34 34 36 39 44 48 52 54 52 55 58 63 67 72 75 70 72 73 76 82 87 94 99 106 112 115 109 97 89 81 66 52 43 41 41 36 32 34
28 27 27 30 31 32 34 38 43 46 50 50 53 56 59 63 67 71 72 69 71 72 76 82 89 94 100 105 111 112 103 91 82 72 60 49 35 40 33 34 34 32 27
23 25 27 27 29 33 37 41 45 49 51 55 57 59 62 66 71 68 69 70 71 77 83 89 94 101 105 111 109 98 83 75 66 58 43 40 37 31 35 28 26 27 28
21 22 25 29 33 37 41 44 47 51 54 56 59 61 66 69 66 67 69 72 77 83 89 95 100 105 111 107 95 80 69 57 49 42 45 37 28 33 32 30 24 21 26
22 25 29 32 36 40 43 46 50 52 55 57 60 65 64 64 66 68 71 77 83 87 94 101 105 111 105 92 78 67 52 44 37 42 37 32 33 34 33 28 23 20 23
25 28 31 36 39 41 46 49 51 53 55 60 62 61 62 63 67 71 77 82 88 93 98 104 109 103 86 74 65 51 39 31 37 33 32 34 35 34 33 33 31 28 28
28 32 34 37 41 44 47 49 50 55 58 58 59 59 62 66 70 76 82 88 93 97 103 106 97 79 71 63 50 39 29 35 32 30 32 31 32 32 32 32 33 34 31
30 33 36 39 42 44 46 50 53 54 55 55 56 60 65 71 76 81 86 91 96 101 104 89 75 66 60 47 39 31 36 34 28 30 30 30 29 30 31 32 31 32 34
32 35 37 40 42 45 49 50 51 52 52 55 59 62 69 75 80 85 90 95 100 101 82 71 65 56 45 36 32 35 31 27 27 28 29 32 32 31 28 27 29 29 32
34 37 38 40 44 45 47 49 49 51 54 57 62 68 73 79 84 89 93 98 100 81 69 62 52 44 33 31 32 30 31 30 29 29 30 32 31 30 27 24 23 23 24
34 36 39 41 43 45 46 47 50 53 56 61 67 72 78 83 88 93 100 100 81 69 61 50 40 30 33 32 33 34 32 33 31 31 30 31 31 30 27 23 21 22 20
36 38 39 42 44 44 46 49 52 56 62 67 73 79 83 88 92 99 96 77 69 62 49 37 29 32 30 31 30 31 31 32 34 34 33 31 30 28 26 25 21 17 17
36 39 41 41 42 45 47 50 55 62 67 73 77 82 87 91 97 93 75 68 62 49 36 29 32 30 30 29 30 32 32 33 32 32 31 29 27 25 24 21 20 18 15
38 39 39 41 43 45 49 54 59 65 69 75 80 85 89 95 89 75 68 60 46 35 29 31 30 29 29 30 29 28 28 29 30 29 27 25 22 22 22 20 18 17 13
38 38 40 42 44 49 54 59 65 69 74 79 83 89 94 82 71 66 59 42 30 28 29 28 26 27 28 27 25 27 28 29 27 26 24 23 22 20 19 17 16 14 11
37 39 41 44 49 54 59 64 68 72 77 83 89 93 84 66 61 54 40 29 26 27 25 26 26 25 25 24 23 26 29 31 27 24 23 24 23 21 18 17 17 16 11
38 40 44 49 54 59 63 67 71 76 82 88 92 82 65 60 51 37 25 23 23 24 25 24 24 23 23 20 24 25 27 27 26 24 23 24 23 22 21 19 17 17 14
40 44 49 53 58 62 66 70 75 81 88 91 79 65 59 49 36 23 20 19 22 23 24 24 21 19 17 18 20 24 26 27 26 23 24 25 25 25 23 21 19 17 12
44 49 53 57 61 65 69 74 81 88 89 77 64 56 45 35 22 15 15 18 19 20 19 19 19 17 15 16 18 23 28 27 24 23 24 24 25 26 24 22 20 14 10
48 52 56 60 64 68 72 79 88 88 77 64 54 43 34 21 10 9 12 15 16 17 19 21 21 22 21 20 21 24 25 24 23 24 23 24 25 25 26 27 19 13 8
52 56 60 64 66 72 78 87 88 77 65 52 42 32 22 6 3 6 11 15 17 20 20 22 21 22 24 25 25 27 29 29 28 26 25 25 26 26 28 28 20 13 10
56 60 64 66 71 78 86 86 77 64 53 44 33 20 7 4 4 8 12 15 18 22 23 23 23 23 26 28 27 27 29 30 31 31 30 28 28 28 30 29 22 17 15

GFSGL_500_spd_009.txt.gz
Wind_Speed
35 35 35 36 38 39 38 36 37 38 38 39 41 43 46 47 48 50 54 57 60 61 59 64 69 72 75 73 75 77 78 82 83 81 92 99 107 114 117 117 108 101 92
34 33 34 36 39 39 38 37 38 38 39 40 42 44 46 48 51 54 57 58 57 62 65 68 72 73 72 76 78 80 84 89 95 96 100 108 115 113 104 91 86 76 68
34 34 35 37 38 40 39 39 38 37 39 41 42 44 47 50 54 55 56 59 62 66 69 72 71 73 75 77 81 86 91 97 103 108 110 115 106 90 78 68 56 51 53
36 36 36 37 38 39 39 36 35 38 40 40 43 46 49 52 54 57 60 63 66 69 71 70 73 75 77 82 87 92 98 103 110 115 114 98 81 69 55 43 46 45 47
35 34 34 34 36 37 34 35 37 38 40 42 46 49 52 54 58 61 63 65 68 68 70 72 74 78 83 88 92 97 105 110 115 109 92 77 63 46 43 43 37 40 40
33 33 33 33 32 33 34 34 36 39 41 45 48 52 54 58 60 63 65 68 67 70 70 74 78 84 88 92 98 106 112 111 100 83 72 59 44 43 35 31 37 36 32
32 31 27 28 30 31 32 35 37 41 45 48 50 54 57 59 61 65 66 67 68 70 73 78 83 87 94 99 104 111 101 87 79 71 56 41 40 34 29 32 32 30 33
24 24 25 26 28 31 33 36 40 44 47 50 54 56 58 61 64 64 66 66 70 73 78 83 88 94 100 105 109 94 80 72 63 53 38 39 34 30 32 30 29 25 26
20 22 24 25 29 32 36 40 43 46 50 52 54 57 61 62 63 64 65 68 73 78 83 88 94 99 105 105 91 77 67 55 46 35 37 35 31 33 32 31 29 28 23
19 20 23 27 31 36 38 42 45 48 49 52 57 59 60 62 62 65 68 72 76 82 87 93 99 104 99 84 74 64 50 40 32 37 36 31 33 34 35 36 32 30 26
19 22 27 32 34 38 41 43 45 47 51 54 56 59 59 61 63 66 72 77 82 87 93 99 104 95 79 70 61 47 35 31 35 31 29 30 32 33 35 36 35 33 27
23 28 30 33 36 38 40 43 46 49 51 54 56 57 59 62 66 71 77 82 88 93 99 103 91 75 66 56 43 32 34 32 31 32 31 32 33 33 33 34 33 32 30
26 29 32 34 36 38 41 45 47 49 51 53 54 56 59 64 70 75 80 86 92 99 99 86 74 63 51 37 32 34 31 34 33 31 31 31 31 32 30 29 30 28 28
27 30 32 34 37 41 43 45 48 50 51 52 54 58 64 69 73 79 84 91 98 97 83 71 60 45 32 33 33 34 32 31 31 31 32 34 33 32 30 28 25 23 22
29 30 33 36 39 41 44 46 47 49 50 53 58 63 68 72 78 84 92 98 97 81 69 54 38 32 34 33 33 32 33 33 32 31 30 30 31 29 28 24 23 21 18
30 32 35 36 39 42 44 45 46 49 54 59 64 68 73 78 84 91 96 89 75 65 48 34 31 32 30 29 30 30 30 30 32 31 29 27 27 25 22 23 21 20 15
32 33 36 38 40 41 43 44 48 55 60 63 67 72 77 82 90 93 83 69 61 45 33 31 30 29 29 28 26 25 26 30 31 28 25 23 24 24 21 21 20 19 16
33 35 37 39 40 41 44 47 52 56 60 66 71 75 81 90 91 79 66 57 44 33 31 30 30 29 26 25 23 25 28 28 29 27 24 24 24 23 22 20 18 17 16
34 35 37 38 40 43 47 51 55 60 65 69 74 80 88 89 78 65 54 41 29 29 29 30 28 26 23 20 22 25 26 29 27 25 25 26 25 24 24 22 20 17 13
34 35 36 39 43 47 50 54 60 64 68 73 79 87 88 76 61 50 40 26 25 26 26 25 24 22 20 21 23 26 29 32 29 26 25 26 25 25 24 22 20 17 13
33 35 39 43 45 48 53 59 63 68 73 79 87 87 77 60 45 36 21 19 21 20 20 20 22 22 21 23 26 30 33 31 29 27 25 25 26 25 23 23 20 16 12
34 39 42 45 48 54 58 63 68 72 79 87 86 75 59 44 34 19 13 14 13 14 17 20 21 23 23 24 26 28 29 29 28 26 26 28 28 25 25 24 17 13 9
38 42 45 48 54 58 63 68 73 78 87 84 73 59 46 33 19 8 9 10 11 15 16 18 22 23 24 24 25 27 29 30 30 29 28 28 26 26 25 19 13 9 5
41 45 48 53 57 62 67 73 78 86 85 72 60 47 33 19 3 4 8 10 12 14 17 17 21 24 25 26 27 28 30 31 35 35 30 27 28 30 26 22 17 11 7
45 48 53 56 62 66 72 77 84 83 71 59 47 34 16 2 6 9 12 15 17 17 18 19 19 22 25 27 29 30 32 31 34 37 35 31 31 31 28 24 21 15 10
49 53 56 60 65 71 76 84 82 69 59 46 33 15 5 11 11 11 11 12 15 19 20 20 20 22 24 26 29 31 32 32 33 35 37 36 32 30 30 27 22 18 13

GFSGL_500_spd_012.txt.gz
Wind_Speed
43 40 40 40 38 37 37 38 39 38 39 40 41 43 43 46 48 49 50 51 54 57 60 61 62 65 70 72 73 73 75 76 76 75 82 87 92 101 106 112 119 117 106
43 39 40 39 39 38 38 39 38 38 40 42 43 43 45 46 48 50 52 54 57 59 61 64 67 69 71 72 74 75 76 80 82 83 87 94 102 108 114 115 107 90 79
40 38 38 38 38 38 38 38 38 39 41 42 42 44 45 47 49 52 55 57 59 62 65 67 68 71 72 74 75 77 80 84 88 92 94 102 107 113 108 90 77 66 56
38 38 37 37 37 38 38 39 39 39 39 39 42 45 46 48 51 54 57 60 62 65 67 69 71 72 74 75 78 82 86 91 96 102 106 109 109 97 80 68 55 45 49
37 36 36 35 36 38 39 39 39 38 37 40 44 45 48 50 54 57 60 62 64 66 69 70 72 72 75 78 82 88 93 99 105 110 112 105 87 70 60 44 41 41 37
35 34 33 30 39 38 38 36 36 36 39 41 44 47 50 53 56 59 62 63 66 68 70 70 72 74 77 83 88 94 101 107 110 108 95 79 66 52 35 39 34 32 33
29 28 32 38 36 36 33 35 36 36 40 43 46 49 52 55 58 61 63 65 67 69 69 71 74 79 84 89 95 101 107 105 96 83 73 61 47 35 36 32 31 33 34
28 32 33 32 31 32 33 33 35 39 41 45 48 51 54 57 59 62 63 66 66 68 70 75 80 84 91 96 102 106 102 86 75 68 56 43 36 39 37 31 31 29 30
27 27 28 30 30 29 31 34 37 41 43 46 50 53 55 57 60 62 64 65 66 70 74 80 85 91 97 103 108 98 80 68 59 49 38 38 40 39 34 32 32 31 32
24 25 24 25 27 29 32 37 39 41 45 48 50 53 55 57 61 62 63 65 69 74 78 84 90 97 104 104 91 77 62 48 40 40 42 37 39 39 38 38 39 36 35
21 22 23 25 29 33 35 38 41 43 45 49 52 54 57 58 59 60 64 69 74 78 84 89 96 102 99 84 72 54 40 36 41 38 39 39 38 38 38 38 39 37 35
19 22 25 28 31 34 37 39 40 43 47 49 52 54 55 57 60 65 69 73 79 83 89 96 101 92 77 61 44 38 40 38 38 37 36 37 37 38 39 39 40 39 38
21 23 26 30 33 35 36 38 42 44 47 50 51 52 54 59 64 68 73 78 82 88 95 98 84 71 53 40 40 39 36 35 35 35 35 36 36 36 35 34 36 36 34
21 25 29 31 33 34 37 40 42 45 47 48 49 53 58 63 67 72 76 80 86 94 93 78 65 50 39 40 37 35 34 33 32 32 33 34 33 33 33 32 29 29 28
26 29 30 31 33 35 38 41 43 44 45 48 52 56 60 65 70 74 78 86 93 91 77 61 47 39 38 36 35 32 31 29 31 33 33 31 29 27 28 28 26 24 24
28 29 30 32 34 38 40 41 41 43 47 51 54 59 66 70 73 78 87 93 89 76 58 44 36 36 34 31 28 28 28 30 31 32 31 29 29 28 27 28 26 23 21
28 29 31 34 37 39 38 39 43 48 51 54 60 66 70 73 78 86 91 87 72 54 40 32 33 33 30 27 25 25 28 31 33 35 33 30 29 29 27 26 24 22 22
29 31 34 36 37 36 38 42 46 49 54 60 65 69 74 79 86 90 84 67 51 36 26 28 28 26 24 22 24 27 30 34 37 33 30 29 29 27 27 26 25 22 21
30 33 35 35 34 37 42 46 49 54 58 62 67 73 79 88 88 79 64 47 32 22 21 21 22 22 22 23 26 29 31 32 31 30 29 29 28 29 27 26 25 25 20
32 34 33 33 37 42 45 49 53 57 62 66 71 79 86 84 75 61 47 30 17 15 15 18 19 21 22 24 26 28 30 31 32 31 30 30 30 27 25 25 25 22 18
33 31 33 37 42 45 49 53 55 61 66 71 77 86 84 72 58 43 28 14 12 11 12 15 18 21 22 24 26 29 30 32 34 33 31 30 29 29 28 26 22 15 11
30 33 37 40 44 48 52 54 60 66 70 75 84 83 70 56 39 23 8 6 6 9 10 13 17 19 23 24 27 29 30 32 35 35 31 30 31 28 22 20 16 11 8
33 37 39 44 47 51 55 58 65 70 76 83 82 68 54 39 21 2 1 3 5 8 9 12 17 21 23 24 27 28 30 33 35 37 32 31 29 25 23 20 14 11 9
37 40 43 45 51 55 59 64 70 76 83 84 66 52 37 17 3 6 5 6 7 9 10 13 17 19 21 25 28 29 30 33 34 36 37 30 29 29 27 23 17 14 13
40 43 46 49 54 60 65 70 76 83 84 66 50 34 14 8 10 11 10 10 11 11 12 14 17 20 23 25 28 28 31 34 35 37 39 38 32 30 28 25 19 15 14
41 45 48 53 59 64 69 75 81 82 66 49 32 14 8 11 13 9 6 7 9 10 11 12 15 19 21 23 25 27 28 31 35 38 40 41 38 32 30 27 21 15 14

GFSGL_500_spd_015.txt.gz
Wind_Speed
42 42 43 42 41 41 39 39 39 39 40 41 41 41 42 44 46 47 48 50 51 51 53 56 59 63 66 68 70 70 72 75 78 76 78 81 85 89 92 97 103 108 113
44 44 43 42 41 39 39 39 39 39 40 41 42 43 45 46 46 46 49 51 51 53 57 60 63 65 67 68 70 72 75 76 78 79 80 84 91 97 101 107 113 117 108
44 43 43 41 39 38 38 38 38 38 39 41 44 44 45 45 44 49 51 51 53 56 60 63 66 67 68 70 73 74 75 77 80 83 86 93 99 105 109 114 106 92 81
42 41 42 40 37 37 36 36 36 37 40 42 43 45 46 43 49 52 51 54 57 60 63 64 66 68 69 71 73 75 78 82 85 90 95 100 108 112 107 94 81 72 58
39 39 39 36 36 35 35 35 36 37 41 43 46 46 44 46 51 51 54 57 59 61 63 65 67 69 70 71 75 79 83 87 93 98 104 109 106 95 84 73 63 50 41
36 35 32 34 34 35 34 36 49 35 44 45 44 46 45 50 52 55 57 59 60 62 63 66 68 69 72 76 80 84 90 95 100 107 109 99 87 74 60 48 39 36 37
29 33 39 30 34 33 36 40 38 41 44 43 42 44 48 51 54 56 58 59 61 63 65 66 68 73 77 80 85 89 94 103 107 101 90 76 58 45 38 40 41 39 36
28 30 31 32 33 36 40 39 35 39 40 40 43 48 51 51 55 56 58 60 62 63 64 68 73 77 81 85 88 95 103 101 91 77 61 46 42 44 44 42 39 35 34
28 33 31 35 37 35 40 37 37 36 39 43 46 48 50 52 54 56 58 60 61 63 67 72 76 81 84 89 97 102 98 82 63 51 47 46 46 46 46 44 41 38 35
33 30 32 35 38 32 32 35 35 38 42 44 46 47 50 53 55 57 58 58 62 67 72 76 81 84 89 97 100 93 74 56 48 50 49 47 46 45 47 47 46 44 41
35 38 36 31 29 28 30 34 37 39 42 43 45 49 51 53 54 55 57 62 66 70 76 79 83 90 97 99 87 69 53 48 48 46 45 44 43 44 46 47 47 47 44
22 18 20 22 25 29 31 34 37 39 40 44 48 50 51 51 52 56 61 65 70 75 78 83 90 96 96 81 64 49 46 44 42 41 40 40 40 42 43 43 43 43 43
16 18 20 23 26 29 32 34 36 39 43 45 47 48 49 52 56 60 64 70 73 77 85 91 94 90 73 57 44 43 41 37 37 35 36 38 39 39 38 36 36 36 37
16 18 21 25 28 31 33 35 38 40 43 44 45 47 51 55 59 64 68 72 77 86 92 92 82 65 50 40 40 39 34 33 32 34 36 39 39 39 38 37 35 35 33
18 22 26 29 31 32 34 37 39 42 43 43 46 51 54 58 63 67 72 75 84 91 90 76 59 43 36 36 34 31 29 31 34 38 41 43 40 37 37 37 35 34 32
23 27 29 30 32 34 35 38 40 39 41 46 50 54 58 62 67 71 76 84 91 87 72 54 38 32 30 29 29 29 31 34 38 41 41 40 38 37 35 34 33 32 31
27 28 29 31 33 35 36 37 37 41 45 50 54 58 61 66 70 75 86 91 85 71 51 32 26 25 26 26 27 29 31 34 36 38 40 39 35 34 34 34 32 31 29
26 28 29 31 34 35 35 37 41 45 49 53 57 59 65 71 77 87 89 81 67 49 28 21 21 22 24 24 25 28 31 34 37 39 39 37 34 34 34 32 31 29 26
27 29 31 33 34 33 36 41 44 48 51 55 59 65 71 78 87 89 79 64 45 25 15 16 18 20 20 22 26 29 31 33 37 39 38 35 34 35 35 32 29 27 23
29 30 32 32 32 36 39 43 46 50 54 58 64 70 75 85 87 77 61 41 21 11 10 14 16 17 21 23 27 29 32 36 37 40 37 34 35 35 32 28 24 18 15
30 30 30 33 36 39 43 46 50 54 59 64 71 76 85 88 76 58 38 17 8 8 9 11 14 18 21 25 27 30 33 35 36 39 36 33 33 33 31 27 22 17 12
28 29 33 36 39 42 45 49 53 59 66 70 76 83 87 74 55 33 10 4 5 8 8 10 14 18 20 24 25 30 33 35 36 38 36 32 32 31 28 23 19 15 13
29 32 35 39 42 45 49 53 58 65 71 76 80 84 72 52 28 5 3 3 5 7 8 11 14 17 20 23 24 26 30 34 38 39 39 34 31 29 23 19 18 17 17
31 35 38 42 46 50 54 59 64 70 75 80 83 70 50 26 2 2 3 5 5 8 10 12 16 19 21 23 24 24 26 31 36 40 40 37 33 31 28 24 23 22 20
35 37 43 48 51 54 58 62 69 74 79 80 70 51 29 4 5 4 5 7 9 11 12 14 17 20 23 23 22 23 24 27 33 37 40 39 37 35 30 26 24 23 20
38 43 45 48 52 57 62 68 73 79 79 70 52 33 8 8 8 3 2 7 11 13 14 16 17 19 21 23 22 21 23 24 28 32 33 35 35 35 34 29 25 23 21

GFSGL_500_spd_018.txt.gz
Wind_Speed
47 47 46 45 44 42 41 40 38 39 39 37 37 38 40 41 42 43 44 47 50 51 51 55 54 55 58 61 63 66 66 68 69 68 70 72 74 77 79 83 87 93 99
46 45 48 44 43 41 40 39 37 38 38 36 38 38 38 40 41 43 45 50 49 50 55 55 56 59 62 64 65 65 67 68 70 71 72 74 77 82 86 91 98 103 109
45 44 46 44 42 39 38 37 37 37 37 37 38 38 39 39 40 43 48 53 50 54 55 57 60 62 64 65 66 66 67 68 72 75 76 80 84 90 96 101 107 107 99
42 44 44 42 40 38 37 37 36 37 37 38 38 39 38 39 40 48 51 53 54 56 59 61 63 64 65 65 65 66 69 73 76 80 83 87 94 100 105 106 95 81 65
40 41 40 39 37 35 35 34 34 35 37 38 40 45 46 43 48 47 50 53 56 59 60 62 63 64 64 64 66 70 73 77 81 84 89 96 102 105 101 80 60 45 45
36 36 34 32 32 34 32 30 32 32 35 39 41 42 45 44 46 46 51 57 59 59 60 62 62 63 64 67 71 74 80 84 87 92 98 103 103 89 68 51 46 47 45
28 29 29 31 31 35 28 29 29 33 34 39 40 43 43 43 46 51 56 56 58 59 60 60 61 63 67 70 74 78 83 90 96 101 104 98 78 60 53 52 54 52 50
26 26 28 32 35 29 23 34 32 32 39 43 37 37 41 46 51 52 54 56 58 58 59 60 63 66 70 74 77 83 91 97 102 100 88 69 56 54 55 53 53 51 48
26 31 30 29 25 30 23 35 39 39 38 37 39 41 46 48 51 52 54 55 56 57 60 63 66 71 75 80 85 92 98 101 91 74 59 53 52 51 52 51 49 48 46
31 27 28 39 25 25 32 36 30 32 32 37 41 44 47 49 50 51 53 54 54 59 63 67 72 77 81 86 93 97 97 80 62 50 51 49 47 47 46 47 47 44 43
26 32 29 35 31 30 26 27 28 32 37 39 42 45 47 49 51 51 51 55 58 61 66 71 76 80 86 95 97 91 70 53 45 46 44 44 43 44 44 47 47 45 43
22 21 21 24 23 23 24 28 31 35 39 42 43 45 46 47 47 50 54 58 61 65 69 75 79 86 94 94 81 61 45 43 41 39 39 41 43 46 50 50 47 44 43
14 15 16 16 19 22 26 32 36 39 40 41 43 44 45 46 50 53 57 61 64 68 74 81 88 92 90 72 53 39 38 37 36 36 39 43 46 48 48 46 44 40 40
12 13 15 18 23 29 33 35 37 38 39 40 42 42 45 49 52 56 60 64 68 73 80 90 89 84 65 44 34 33 34 34 35 38 40 44 47 48 47 45 40 38 36
11 14 20 25 29 31 33 34 36 38 40 40 41 44 47 51 55 59 61 67 73 80 89 89 80 59 38 29 30 31 30 32 36 39 42 45 47 46 43 42 39 37 35
17 21 25 27 29 31 33 35 37 38 38 40 44 47 51 55 58 62 69 76 81 88 91 75 53 31 24 25 26 28 30 34 36 39 42 45 45 41 38 38 38 36 32
22 24 26 27 29 32 34 35 36 36 39 43 46 50 54 59 64 69 75 81 88 89 70 46 24 20 21 22 23 27 30 33 36 40 43 45 41 37 37 36 34 30 26
23 25 27 29 31 33 34 33 36 39 43 47 51 54 58 63 69 74 80 88 84 65 39 17 14 16 18 20 24 26 30 34 38 41 43 42 37 36 36 34 30 25 19
25 26 29 31 32 31 33 36 39 43 47 50 53 58 63 69 76 80 86 82 59 32 13 10 13 15 17 21 24 26 30 34 39 42 43 39 37 36 34 30 25 23 20
26 29 30 30 30 33 36 39 43 47 51 55 58 63 67 74 78 84 79 56 24 9 10 11 13 15 20 23 24 24 29 34 40 43 43 39 36 34 30 28 25 23 21
28 29 28 30 33 36 39 43 47 51 55 58 63 67 73 76 80 74 50 19 8 9 11 11 14 18 21 24 26 25 28 33 39 41 43 40 35 31 30 29 27 25 22
29 27 30 33 36 39 43 47 50 54 58 63 68 73 76 80 72 48 15 8 8 9 10 12 15 18 22 24 25 26 27 31 36 39 41 39 33 30 29 28 26 22 21
26 29 32 35 38 42 45 49 54 58 64 70 75 79 81 73 47 16 6 6 6 8 11 14 16 20 23 24 23 24 27 29 33 34 36 39 34 28 26 27 26 24 22
28 30 33 36 39 44 50 54 60 65 72 77 83 83 73 43 17 4 1 3 6 10 13 15 18 21 24 24 24 24 26 27 29 31 31 33 36 31 29 28 28 25 22
29 32 34 39 45 49 54 60 66 72 79 85 84 67 37 16 7 6 2 5 10 14 16 17 19 21 22 22 23 23 24 26 27 29 29 30 32 34 32 29 28 26 25
32 34 39 44 48 54 60 66 73 80 86 79 57 32 12 8 11 7 1 6 12 15 17 18 18 18 19 20 21 23 23 24 24 26 27 27 28 30 31 32 30 28 25

GFSGL_500_spd_021.txt.gz
Wind_Speed
56 58 55 55 50 48 47 47 41 44 43 40 39 40 38 37 37 38 41 43 43 44 46 49 54 56 56 58 57 61 63 65 66 66 67 67 67 68 69 72 75 79 83
54 53 53 54 50 47 48 42 41 42 40 39 38 38 37 37 37 39 41 43 42 45 50 54 57 59 57 58 62 63 64 65 66 66 67 68 70 72 76 79 84 89 95
51 51 52 51 48 46 44 41 41 39 37 36 39 37 37 36 38 40 42 43 44 50 55 56 58 59 61 62 63 64 65 66 66 67 69 71 75 79 83 88 93 99 104
44 45 48 49 45 45 41 39 38 37 35 36 35 35 35 37 38 41 44 49 51 56 55 55 59 63 63 63 63 64 64 65 68 71 73 77 81 86 92 96 101 106 95
39 42 47 47 43 40 37 36 35 34 34 34 33 33 34 38 41 44 46 49 52 52 55 58 61 61 63 63 64 64 66 69 72 75 77 82 88 95 101 105 101 82 59
36 42 41 37 37 32 33 34 27 36 32 32 31 33 36 38 43 44 48 48 51 55 58 58 60 62 62 63 64 67 70 75 79 82 86 92 99 104 102 89 67 55 50
30 32 32 29 28 30 30 31 40 37 32 31 31 31 38 46 47 45 46 50 53 56 56 58 60 61 61 64 66 70 74 79 85 90 94 100 102 95 74 57 54 51 48
27 26 27 26 26 32 29 32 39 41 36 41 33 38 42 42 41 44 48 52 54 55 57 59 59 61 64 66 69 73 78 85 91 98 103 97 78 59 55 50 45 43 44
20 21 19 20 24 31 31 30 27 32 40 35 40 39 36 41 45 47 49 52 54 56 58 58 61 63 66 69 73 78 85 94 98 97 82 62 52 50 47 44 47 47 47
14 15 20 23 15 20 26 32 29 28 30 27 30 34 38 43 46 48 51 53 55 54 57 60 63 66 70 75 80 86 93 97 86 63 51 48 46 45 47 50 51 51 51
16 18 26 18 16 18 21 28 28 24 25 29 33 38 42 46 49 51 52 51 52 55 58 63 66 70 76 83 88 94 93 73 49 41 41 41 44 46 49 52 55 56 53
13 9 15 29 20 16 16 17 20 25 30 35 40 43 46 48 48 48 48 51 55 58 62 67 72 77 82 89 95 87 62 39 36 37 37 40 42 46 50 53 55 54 51
7 6 6 8 10 12 17 23 28 33 36 40 42 44 44 45 45 48 52 55 59 62 66 72 77 82 89 94 78 50 31 32 32 34 37 40 44 48 52 52 51 47 43
2 4 5 7 11 17 24 29 32 35 37 39 40 42 43 45 49 52 55 59 62 66 72 78 84 89 90 65 37 28 28 29 31 34 37 43 47 50 51 48 43 42 40
5 9 12 16 21 26 30 32 33 35 36 39 40 41 44 49 52 55 59 61 65 71 77 82 88 84 57 29 24 25 26 28 32 36 41 44 48 48 45 43 42 39 36
10 14 19 23 26 28 30 32 34 36 37 38 41 45 48 52 55 59 62 67 71 75 80 84 77 45 20 21 22 25 25 28 33 39 43 47 45 42 38 38 36 32 28
17 21 23 25 26 28 31 33 35 35 38 41 44 47 51 55 58 61 65 70 74 78 82 70 37 15 18 18 21 24 24 28 34 40 44 45 41 36 31 29 28 25 22
20 22 23 25 28 31 32 33 34 38 41 44 48 52 55 58 62 66 70 75 79 80 62 29 14 15 16 19 22 23 24 29 35 40 43 41 36 31 28 27 26 23 21
22 24 26 29 30 31 31 33 37 40 43 47 52 56 61 65 69 73 77 80 79 56 20 14 13 15 17 20 21 23 24 29 34 38 41 39 33 29 28 28 27 26 24
24 26 29 30 30 30 33 36 39 42 46 51 57 62 66 72 76 79 82 76 46 16 10 11 12 15 18 21 23 24 25 29 33 36 37 37 32 29 28 27 26 24 23
26 29 31 29 29 32 35 38 40 46 53 58 63 68 74 79 82 83 69 36 12 9 9 9 12 15 19 23 25 25 25 27 31 33 32 35 31 28 29 27 24 24 23
28 30 28 30 32 35 37 40 46 51 57 64 71 78 83 85 76 56 27 8 5 5 6 9 13 16 20 24 25 25 23 25 28 31 29 29 32 29 26 24 22 21 22
29 28 30 32 34 36 40 44 48 55 64 71 78 86 80 61 44 20 2 2 0 3 8 11 15 18 21 22 23 22 21 23 25 28 27 27 27 28 26 25 23 22 20
28 29 31 33 35 38 43 46 54 63 66 79 84 74 55 38 16 4 6 6 4 8 12 15 18 20 21 21 21 21 20 21 22 25 28 25 27 28 27 27 26 25 24
28 30 32 34 36 40 46 49 61 63 76 78 70 49 32 12 10 12 8 4 8 12 14 17 19 20 20 21 21 20 21 20 22 23 26 27 26 28 28 27 26 26 24
30 31 32 34 37 42 49 55 59 71 70 61 42 27 13 13 12 8 3 6 11 14 17 19 21 22 22 21 21 21 21 21 21 22 24 26 25 25 27 28 29 27 26

GFSGL_500_spd_024.txt.gz
Wind_Speed
61 59 57 57 62 60 63 61 57 53 48 47 43 44 44 40 42 44 42 41 42 42 44 45 48 51 54 56 60 64 62 62 63 64 66 67 67 68 67 68 69 71 74
59 55 52 57 59 63 60 61 56 50 48 44 43 43 43 40 39 42 37 48 43 42 41 45 49 53 60 63 64 62 64 67 66 67 67 68 67 68 70 71 74 78 82
49 52 54 60 60 62 61 57 52 49 46 43 41 41 41 39 38 40 43 43 43 44 48 50 54 59 61 63 60 63 67 67 68 69 68 68 70 72 73 77 80 85 91
47 50 50 54 59 61 56 52 50 46 44 40 39 41 33 40 41 41 40 42 44 48 51 54 56 58 59 61 64 66 67 68 68 68 69 71 73 76 80 83 87 94 100
36 36 41 48 51 55 50 47 42 40 40 40 39 45 39 39 47 43 42 44 46 50 57 55 54 58 61 63 64 65 66 66 68 70 72 74 78 83 88 93 98 102 99
31 33 37 39 40 41 42 39 37 38 38 35 35 40 37 40 41 46 45 45 53 56 51 52 57 60 61 63 64 65 66 70 72 75 76 81 86 91 96 101 101 88 64
29 25 28 34 33 38 38 35 36 32 35 41 46 43 36 37 38 44 50 51 53 48 52 56 58 59 61 61 62 66 69 73 77 81 85 89 94 100 99 85 63 53 49
23 19 23 28 33 34 33 34 36 28 37 36 37 39 40 44 45 46 46 46 49 51 54 56 57 57 58 62 66 68 72 76 81 87 93 99 101 88 67 51 47 46 49
21 21 22 23 24 26 26 30 30 28 28 38 38 40 41 42 41 40 44 47 50 52 54 54 55 58 63 65 68 71 76 82 89 95 100 94 70 51 48 45 52 53 52
18 14 16 14 16 20 25 23 25 28 33 30 30 32 30 33 38 44 46 49 50 51 54 55 59 62 64 69 73 76 82 88 94 96 75 52 46 45 49 52 54 57 60
16 4 14 10 20 9 8 21 20 22 20 22 24 27 33 38 41 44 46 48 51 52 54 58 61 65 68 73 78 82 86 91 83 55 40 41 44 48 51 56 60 63 62
9 8 5 9 14 17 14 16 20 16 20 24 30 33 36 39 43 46 48 49 50 53 56 60 64 68 72 78 81 85 87 70 40 36 36 39 43 49 54 58 60 58 54
7 1 1 3 4 4 7 11 15 21 26 29 33 35 39 42 45 45 48 51 54 57 60 64 68 72 76 80 84 81 59 32 32 33 35 40 45 50 55 54 50 48 45
4 2 1 3 5 9 15 20 24 27 30 33 37 39 41 42 44 47 50 54 58 62 65 69 73 75 79 83 73 47 27 28 30 31 35 42 48 52 50 47 41 40 37
3 4 7 9 13 18 22 25 27 30 33 35 37 37 40 43 47 51 55 58 62 66 70 74 77 80 81 64 36 24 24 27 30 32 37 43 48 45 42 39 35 33 32
9 12 15 18 20 22 24 26 29 31 33 34 36 40 43 47 51 56 61 65 69 72 75 78 81 77 53 26 23 22 25 27 28 32 38 42 43 38 34 32 31 29 28
15 18 19 21 22 24 26 29 30 30 32 36 39 42 46 51 57 62 67 71 75 79 81 82 67 36 19 20 20 23 24 25 27 31 36 39 40 34 32 30 28 25 25
18 20 21 22 24 26 29 30 29 32 35 38 42 47 52 58 64 70 75 79 83 83 75 51 22 16 16 18 21 23 25 26 27 30 34 36 37 33 31 29 26 22 22
21 22 23 25 28 29 29 29 32 35 38 42 47 52 58 67 74 79 84 86 76 61 34 12 11 12 16 19 22 24 24 25 26 28 32 33 35 33 30 27 25 25 24
24 24 26 28 29 28 29 32 34 37 41 45 50 58 67 75 82 89 82 64 47 22 4 6 8 12 16 20 24 26 25 24 25 26 30 31 32 32 31 29 27 25 26
24 25 28 29 28 29 32 34 36 39 44 48 55 62 73 80 81 71 54 37 13 1 2 4 9 14 19 23 25 25 24 24 24 24 28 29 30 30 31 31 30 28 25
25 27 29 29 29 32 34 35 37 41 47 53 59 70 72 68 58 44 27 7 6 4 5 8 13 17 21 24 24 23 24 23 23 24 25 29 28 29 30 28 27 26 25
26 29 29 29 32 33 34 34 38 43 50 55 65 68 57 45 35 22 9 8 8 8 10 13 17 19 21 21 21 22 23 24 23 23 24 27 28 27 27 27 27 26 27
28 30 29 31 33 33 33 36 42 47 51 59 67 54 44 38 21 10 7 7 9 14 15 17 19 21 22 22 22 22 23 23 23 23 23 23 25 25 27 28 29 28 28
29 30 30 33 34 34 35 40 46 49 53 64 60 42 38 23 14 9 6 8 15 17 17 20 21 22 23 23 23 22 23 22 22 23 23 23 24 25 26 27 30 30 28
31 30 31 34 34 36 39 44 46 49 56 65 43 37 23 16 12 10 10 14 18 18 20 21 22 24 23 22 23 22 22 23 22 23 24 23 22 23 25 26 28 33 28

GFSGL_500_spd_027.txt.gz
Wind_Speed
70 70 68 69 69 70 68 65 64 63 58 58 57 52 50 49 47 47 47 45 47 43 52 54 43 46 49 50 54 57 61 65 64 66 69 66 68 69 70 71 71 72 73
60 64 67 64 67 70 71 68 64 60 60 58 58 57 53 49 49 48 47 46 45 51 46 42 49 48 51 54 57 62 62 62 63 63 67 69 70 70 71 71 72 74 77
50 60 62 61 63 63 62 62 61 59 59 58 56 58 56 49 48 49 47 43 49 48 45 48 51 51 54 56 59 64 65 62 65 67 70 70 69 70 71 73 75 78 82
45 48 53 54 58 58 59 60 59 58 59 54 54 53 49 48 48 47 48 49 49 50 50 45 49 55 55 58 64 64 64 66 67 69 70 70 70 72 74 77 78 84 89
35 36 36 39 41 49 54 53 52 56 56 51 51 48 48 45 47 47 49 33 40 55 51 51 55 58 62 62 61 64 66 67 67 69 69 70 74 77 79 83 87 91 97
26 28 38 36 38 42 48 51 51 55 53 47 46 46 45 44 47 42 44 38 45 50 50 52 59 60 62 61 62 65 66 67 67 69 72 75 78 81 85 89 94 100 94
22 19 24 28 33 35 40 43 47 49 45 42 42 46 43 46 42 41 51 56 53 53 53 57 55 57 59 62 64 64 64 67 70 73 75 78 81 85 89 94 96 78 55
10 13 15 17 19 16 23 30 37 38 33 40 41 41 40 39 38 47 49 49 52 46 47 49 53 56 59 60 61 63 66 69 72 76 80 83 86 91 93 81 54 50 53
14 13 14 14 16 20 26 24 35 37 37 32 33 38 31 37 45 40 41 44 45 48 51 53 54 56 57 59 62 63 67 71 76 80 83 88 90 83 61 48 51 54 57
14 14 15 10 16 7 10 17 22 20 19 27 24 28 36 37 33 34 38 41 45 49 51 52 54 56 59 61 64 67 71 75 78 84 89 87 68 48 48 51 55 60 65
11 14 12 9 8 8 12 15 26 19 21 19 20 18 21 26 31 37 41 44 47 49 51 54 57 59 62 65 69 73 76 79 83 86 78 51 43 44 49 54 60 62 52
13 14 6 1 5 3 1 1 5 7 11 13 18 21 26 31 36 39 42 43 45 48 52 56 59 62 66 70 74 76 79 83 82 64 38 38 40 45 49 55 55 48 43
10 8 7 6 1 3 4 5 7 10 15 21 25 28 31 35 38 39 42 45 48 51 56 61 65 69 73 76 79 81 83 72 47 32 34 36 39 44 49 49 44 41 39
8 8 7 5 4 6 9 13 15 18 21 24 27 30 33 34 36 39 43 48 53 58 64 69 74 78 80 83 83 78 58 33 28 30 32 34 38 42 46 42 40 39 37
6 6 7 9 11 13 15 17 19 22 25 27 29 29 31 35 39 44 49 54 60 67 73 79 84 87 84 75 62 37 22 25 26 29 30 33 36 40 42 39 38 35 33
12 13 14 15 17 18 19 21 23 25 26 26 27 30 33 38 43 49 55 63 70 77 85 89 87 74 61 40 19 17 21 24 27 29 31 32 35 37 39 37 36 34 31
16 16 17 18 19 20 21 23 24 23 24 27 30 34 38 43 48 55 63 71 78 82 81 77 59 41 18 11 15 18 22 25 27 28 29 30 33 35 36 36 35 34 32
18 19 20 20 21 22 23 24 23 25 28 30 33 37 42 47 53 61 70 74 73 69 69 47 27 9 9 12 16 20 24 27 27 27 28 28 32 32 33 35 35 33 31
19 20 20 21 23 25 25 24 26 29 31 34 36 41 46 52 59 67 69 65 64 61 39 17 9 10 12 16 20 24 27 26 27 26 27 27 31 31 32 35 35 35 33
21 21 23 24 25 26 25 27 29 31 33 34 39 44 49 56 65 66 62 57 50 29 16 11 11 13 17 21 25 27 25 24 26 26 26 27 30 32 31 32 34 35 36
23 23 24 25 26 25 27 29 31 33 33 36 42 46 52 62 66 60 51 41 26 16 14 14 16 18 21 23 25 24 24 24 25 27 27 28 28 31 31 32 33 34 35
23 24 25 26 27 27 29 31 33 35 37 40 44 48 56 65 57 45 36 27 19 14 16 18 18 20 23 24 25 25 25 25 25 26 28 28 29 31 32 31 32 32 33
23 24 26 28 30 30 31 33 35 36 39 43 45 51 60 61 46 34 25 18 15 17 21 21 22 24 25 25 26 26 26 25 25 25 27 28 29 31 32 30 31 32 35
25 26 28 30 32 32 33 35 35 37 41 43 47 54 63 51 37 25 20 16 18 22 24 24 25 26 26 27 26 26 26 26 25 26 26 26 28 29 30 30 32 32 35
27 28 30 32 33 33 34 34 35 36 41 44 51 57 60 41 28 21 18 18 21 22 22 23 25 27 28 28 27 27 27 27 26 26 27 26 27 29 29 30 31 31 35
29 30 32 34 33 33 33 34 35 42 43 44 54 60 52 34 25 21 20 20 21 20 21 24 26 28 30 31 29 28 28 27 27 29 27 26 25 27 28 29 31 32 36

GFSGL_500_spd_030.txt.gz
Wind_Speed
65 67 71 73 74 75 75 75 74 72 69 67 63 60 57 55 58 56 52 48 47 48 50 49 54 47 51 52 53 52 51 52 58 58 59 62 65 63 64 68 71 72 71
63 68 70 68 70 73 75 75 74 73 69 66 64 65 60 57 58 57 55 52 48 48 52 52 53 57 53 51 52 53 60 59 61 60 66 66 65 67 68 70 70 70 72
48 50 54 60 61 63 67 70 70 70 69 67 63 61 60 59 58 58 56 53 51 52 52 52 59 58 53 59 58 55 58 60 63 67 68 67 68 69 68 69 69 72 76
42 37 40 38 47 51 59 58 59 64 64 63 62 59 55 56 57 56 54 51 44 57 52 58 57 57 49 49 50 56 62 64 69 69 68 69 69 69 69 71 72 76 77
33 31 34 39 43 53 53 54 49 51 53 51 52 56 54 54 52 51 49 49 53 54 60 45 55 53 53 60 60 62 65 67 69 70 70 68 67 69 72 73 75 77 82
26 24 28 24 21 21 19 26 35 45 44 47 46 49 51 48 47 45 48 51 54 55 53 50 56 57 59 60 60 61 65 66 69 68 67 67 69 71 73 76 79 82 86
21 14 17 20 24 24 22 22 20 26 35 36 37 40 42 42 44 42 50 53 53 49 49 59 59 57 57 56 56 59 63 65 66 66 67 70 71 74 77 80 83 87 83
18 12 2 12 19 24 21 20 21 25 31 35 36 37 40 38 39 50 46 52 44 43 53 57 50 51 52 56 59 61 61 64 66 68 72 73 75 78 81 83 83 70 51
14 13 13 10 9 14 14 12 17 21 29 25 30 42 39 40 40 36 50 53 50 44 43 44 47 50 55 59 60 61 63 67 70 73 76 78 80 81 83 76 53 46 48
19 12 14 11 7 6 3 10 13 10 15 20 22 25 26 34 35 32 27 32 35 39 41 44 48 51 54 57 60 64 67 72 75 79 81 82 82 79 62 44 43 45 48
19 15 15 12 14 13 7 3 4 9 13 17 20 16 18 22 20 25 31 34 36 39 42 46 50 53 58 63 67 72 76 80 83 84 82 79 69 46 38 40 43 45 49
15 16 15 15 11 11 12 9 4 8 6 5 7 11 15 19 24 28 31 34 37 40 44 48 53 58 65 71 76 81 86 87 82 76 67 52 35 34 36 39 43 47 48
13 13 14 13 12 12 11 8 4 5 8 10 14 17 20 24 28 31 33 35 38 42 47 53 60 67 73 78 82 81 77 68 57 41 28 27 30 32 35 38 42 45 46
11 11 11 10 10 10 10 11 12 13 14 17 19 22 24 26 27 30 33 37 42 47 55 61 68 74 78 76 76 69 53 34 20 20 23 26 30 33 35 36 39 41 40
10 11 11 11 11 12 12 13 15 17 19 20 21 22 24 26 28 32 36 42 48 55 63 68 73 72 67 69 55 36 18 17 20 22 25 28 30 31 33 36 38 39 38
12 13 13 15 16 16 16 17 19 20 19 19 20 22 25 29 33 37 43 49 55 62 66 68 62 59 58 40 23 17 18 20 22 25 27 28 29 30 31 35 37 37 36
15 16 17 18 18 18 19 20 21 20 20 22 24 26 29 32 36 41 46 54 59 65 64 55 54 47 26 19 18 19 21 25 28 28 28 28 28 29 30 34 35 35 34
17 19 20 20 20 20 21 21 20 21 23 25 27 28 31 34 39 44 50 58 63 62 52 49 39 24 22 21 23 26 28 30 29 27 27 28 28 29 31 34 35 34 34
19 21 20 20 20 21 22 22 22 24 26 28 29 31 34 38 41 48 55 61 62 52 43 36 28 23 24 26 28 29 29 29 27 27 28 29 29 29 31 33 33 34 35
21 21 21 21 21 22 24 24 26 28 30 30 32 33 36 40 45 50 58 62 55 41 34 27 25 27 26 26 29 30 30 28 28 28 29 29 29 30 32 32 34 34 34
22 22 22 22 23 25 27 28 29 31 32 33 34 35 37 42 46 54 61 59 44 34 27 24 27 28 29 30 31 31 30 30 29 30 30 30 30 31 33 34 34 36 37
23 23 23 24 26 28 30 31 32 33 33 34 33 36 40 43 50 57 61 49 34 27 24 27 29 28 29 29 31 32 31 30 30 30 31 31 31 32 33 34 34 36 35
25 24 25 26 29 30 32 33 33 33 34 33 35 42 42 46 53 60 56 37 28 24 25 27 25 25 26 28 31 32 32 32 32 31 30 31 32 32 33 34 33 33 34
26 26 27 28 30 32 34 35 34 34 34 34 40 42 45 49 55 61 46 30 26 24 26 27 25 26 28 30 32 35 36 35 34 32 31 32 32 32 32 32 31 32 34
26 28 29 30 32 33 35 35 35 34 36 36 41 45 47 53 60 56 36 30 28 27 28 29 29 30 32 34 36 37 38 39 37 35 33 32 32 32 30 30 30 30 34
27 29 31 32 32 34 35 35 35 35 36 38 44 45 50 56 61 43 31 29 29 30 31 31 32 34 36 37 39 39 39 39 40 37 36 34 33 32 30 28 28 29 32

GFSGL_500_spd_033.txt.gz
Wind_Speed
45 49 55 58 61 65 69 70 71 75 74 75 73 71 67 61 60 60 59 57 52 48 48 51 50 50 50 54 53 50 56 55 51 52 58 58 63 64 63 64 68 71 70
45 49 54 55 64 68 67 69 73 75 76 73 73 72 68 68 66 63 59 59 57 63 59 54 53 54 54 63 54 51 56 50 52 54 61 64 65 66 69 70 73 71 71
47 56 56 61 58 57 54 55 59 60 64 67 70 67 64 65 62 60 60 61 61 60 59 55 52 53 59 59 59 54 60 61 54 55 56 58 61 66 71 72 71 72 72
41 53 58 55 51 42 42 45 46 46 44 50 58 60 61 59 59 56 56 55 56 56 53 54 54 55 57 67 60 58 60 58 62 62 57 62 63 68 72 73 72 71 71
39 45 53 36 25 25 25 37 38 36 38 36 40 46 52 52 52 53 52 51 48 46 49 51 53 60 60 62 62 62 62 68 66 60 63 63 65 69 72 71 70 71 73
29 34 42 16 12 17 17 23 25 31 35 32 29 35 39 41 43 44 47 52 45 45 48 51 52 61 62 61 64 60 64 62 61 62 65 63 67 68 69 71 72 74 77
25 26 33 17 9 12 13 10 9 9 18 25 23 28 28 29 32 37 43 36 34 43 48 48 58 56 54 60 63 50 54 58 63 64 62 64 67 70 72 75 78 81 82
22 22 22 19 5 12 13 10 7 3 6 19 21 18 15 18 22 34 36 38 39 42 47 40 54 46 49 45 48 51 54 55 58 62 66 71 74 78 81 83 85 85 83
17 21 19 16 20 6 2 9 13 8 9 4 6 14 19 26 27 28 29 31 35 45 37 42 40 44 45 47 48 50 53 58 63 69 74 78 82 85 86 84 81 74 59
18 16 20 24 22 12 11 10 8 7 9 2 5 10 16 16 22 34 36 34 29 30 33 37 40 42 44 46 50 54 59 65 71 77 82 84 81 79 76 69 54 39 35
15 15 15 15 18 16 12 8 12 5 3 6 9 6 6 11 16 19 20 23 27 31 32 34 37 41 46 51 57 62 67 73 79 81 77 75 71 64 49 32 30 33 36
12 15 17 17 17 17 16 15 10 6 3 7 6 6 7 11 14 16 20 23 26 29 32 37 42 47 53 58 62 66 72 72 67 67 62 52 38 26 26 29 32 35 38
10 13 15 15 14 13 11 9 7 7 6 7 9 10 12 14 16 19 21 23 26 31 36 41 46 50 55 60 62 63 60 60 56 43 29 22 24 26 29 32 34 35 37
11 13 13 12 12 12 12 12 11 11 11 12 13 14 15 16 18 21 23 27 30 34 39 44 50 55 61 62 58 51 47 37 26 23 24 25 28 30 32 32 33 32 35
11 12 12 13 14 14 13 13 13 14 14 14 14 15 17 19 20 23 27 32 35 40 45 51 55 59 57 49 43 36 28 28 26 28 30 31 31 31 31 31 30 31 34
11 12 13 14 14 15 15 16 16 17 16 15 16 18 20 23 26 29 34 37 39 43 49 54 57 54 45 38 32 29 28 31 32 33 33 31 30 30 30 31 31 31 33
12 14 16 17 17 17 17 18 18 17 17 19 21 23 25 27 29 33 35 38 43 47 53 57 58 47 38 33 30 30 30 31 32 32 31 30 30 30 30 30 30 31 32
14 16 18 18 18 18 18 20 19 19 20 21 24 26 28 30 32 35 37 42 45 51 57 61 51 37 32 30 31 31 32 33 32 30 30 30 30 30 30 30 30 31 31
16 18 20 20 19 19 20 21 22 22 24 26 28 30 32 33 34 37 42 43 49 55 62 56 36 29 28 30 30 31 31 32 32 32 31 31 32 31 31 31 31 33 33
17 20 22 21 21 21 22 24 25 27 28 29 31 32 34 34 37 42 43 45 52 56 60 38 28 25 27 27 27 27 30 31 32 31 32 31 32 32 32 32 32 31 33
19 21 23 22 23 24 25 26 28 29 31 32 33 34 34 36 40 42 43 48 54 63 45 31 27 26 26 25 26 27 29 31 32 33 34 33 32 31 32 33 33 33 34
20 21 22 23 24 26 28 29 31 32 33 33 34 34 36 37 41 44 45 53 60 54 35 29 28 28 27 27 29 31 33 35 36 36 36 37 35 34 34 34 34 34 33
21 21 23 24 26 27 30 32 32 34 35 35 35 36 36 39 44 47 50 56 59 43 31 30 30 31 30 31 32 34 36 38 39 38 37 38 38 36 36 35 36 34 34
23 23 24 26 27 29 32 33 33 35 36 36 36 36 36 42 47 48 52 62 51 37 30 30 32 34 35 34 35 36 37 39 41 39 39 39 39 38 38 37 37 35 33
24 25 25 26 29 31 33 34 34 36 36 35 37 37 40 46 47 52 57 57 42 35 32 33 34 36 37 37 37 38 40 42 42 41 41 40 40 39 37 35 34 31 32
25 25 26 27 30 31 33 34 35 36 36 36 36 38 43 45 50 54 61 47 39 36 35 36 37 38 38 39 39 40 41 43 43 43 43 42 41 37 35 32 30 29 29

GFSGL_500_spd_036.txt.gz
Wind_Speed
45 47 49 48 50 54 57 63 66 69 71 72 70 70 68 67 67 67 66 66 64 63 61 57 54 56 48 51 46 48 57 60 57 60 65 60 59 65 63 62 63 63 66
42 44 46 49 51 52 58 63 66 71 72 74 72 70 69 68 66 63 65 63 63 62 62 60 59 59 59 68 59 59 62 59 61 62 64 57 65 66 64 66 65 62 62
40 42 42 45 49 56 67 68 61 66 62 61 59 59 57 59 65 60 59 62 64 63 62 62 62 59 57 60 56 60 61 61 67 62 64 66 64 69 69 67 65 64 67
28 31 33 38 46 55 56 40 37 44 41 42 47 50 53 49 51 53 52 53 56 58 59 62 62 59 56 61 58 60 62 64 65 69 69 65 65 70 67 66 67 68 71
22 24 27 32 34 41 34 25 25 25 27 32 33 33 38 40 39 42 42 43 43 46 50 53 50 52 48 51 50 59 62 63 57 57 62 67 65 58 60 65 67 67 66
16 19 21 25 27 31 23 26 27 23 25 27 26 33 31 35 29 26 28 30 35 39 40 44 49 48 48 52 58 59 60 66 66 67 58 54 60 63 63 63 67 70 72
17 19 19 21 20 24 23 22 26 20 17 15 19 17 16 15 15 18 22 28 31 31 36 35 39 43 46 50 50 56 62 52 52 53 55 58 61 62 66 69 75 79 83
17 15 16 20 19 19 19 16 18 16 14 7 9 16 15 14 13 14 15 22 25 26 33 40 38 45 46 49 44 48 50 49 50 52 55 59 64 69 73 77 83 85 84
15 18 15 15 18 15 17 14 10 9 7 12 2 6 9 17 13 16 25 21 20 29 32 36 37 43 42 45 43 44 46 50 54 59 62 65 69 75 79 81 79 77 75
15 13 14 14 17 13 13 13 9 12 12 8 5 3 13 13 12 14 20 21 23 29 31 31 33 35 37 41 42 45 50 54 58 63 67 70 73 74 74 72 68 55 39
11 12 11 14 16 17 19 16 11 10 15 8 7 6 4 3 4 7 11 17 19 20 23 27 31 31 35 40 44 49 54 59 63 65 68 69 66 62 54 42 32 29 30
9 10 12 15 17 17 16 14 13 12 13 11 10 8 7 7 8 10 13 16 19 21 23 27 31 35 40 45 49 53 57 60 63 63 60 53 44 36 32 32 32 34 35
8 11 13 15 16 16 16 14 12 11 12 11 11 11 11 11 11 12 15 18 21 24 28 32 36 40 44 49 54 56 61 60 55 49 43 39 37 35 36 37 37 36 35
10 12 14 15 15 16 16 15 15 15 15 14 13 13 13 14 16 18 20 22 26 30 34 37 39 43 48 53 55 60 56 47 41 38 37 37 37 36 35 34 33 32 33
12 14 15 16 16 16 16 15 16 16 16 15 15 15 17 18 20 23 25 27 32 36 38 40 43 46 52 56 62 54 43 38 36 36 36 37 36 35 34 33 33 32 32
14 16 16 17 17 17 16 16 17 16 15 15 17 18 20 22 25 27 30 33 36 39 41 45 46 50 55 61 55 39 34 34 35 37 37 35 34 33 33 33 33 33 32
14 15 17 17 18 18 18 18 18 18 18 19 21 23 25 26 29 30 33 36 39 40 44 44 48 54 60 59 40 32 30 30 32 33 33 33 32 33 33 34 35 33 33
16 16 17 18 19 19 19 20 20 21 22 23 24 25 27 29 31 34 36 39 42 44 44 46 51 59 60 42 32 29 26 25 27 29 30 31 32 33 34 34 34 34 34
19 18 19 18 20 20 21 22 23 24 25 26 27 29 31 32 33 37 39 42 44 46 48 50 57 60 45 34 30 29 27 26 28 32 33 33 34 33 34 34 35 35 35
21 20 20 20 20 21 21 23 25 27 29 30 31 32 33 35 36 39 41 42 46 48 49 54 62 52 34 31 30 30 30 29 30 33 35 36 37 36 36 36 36 36 37
22 21 20 21 21 23 24 25 27 29 31 32 33 34 35 37 39 41 41 44 48 48 52 61 54 38 31 32 33 32 33 35 35 37 39 39 40 40 40 39 40 39 39
24 22 21 23 24 25 26 27 29 31 32 33 34 36 37 39 40 41 43 47 48 52 60 58 42 33 32 35 36 37 37 38 39 40 40 41 43 43 42 43 43 42 41
26 22 22 24 25 27 28 29 31 32 33 34 35 37 38 39 40 41 45 47 52 56 63 46 38 35 35 37 39 41 40 41 41 41 42 43 44 44 44 45 44 43 41
25 24 23 25 26 28 28 30 31 33 33 34 36 37 38 39 40 44 46 49 54 62 53 43 40 39 39 40 41 42 42 41 41 42 43 43 44 45 46 47 45 42 39
23 23 23 26 27 28 28 30 31 33 33 34 36 38 38 40 42 45 47 52 58 57 49 45 43 42 43 43 43 43 43 43 43 43 44 45 44 45 47 46 41 36 34
21 22 25 26 26 27 29 30 31 32 33 34 36 38 39 40 43 45 49 53 58 50 47 48 46 44 44 45 45 44 44 44 44 44 44 44 46 47 44 37 32 30 29

GFSGL_500_spd_039.txt.gz
Wind_Speed
40 41 42 43 45 46 48 50 52 58 63 65 68 71 74 75 69 63 64 66 63 63 66 66 63 62 59 58 59 59 56 50 51 53 50 49 55 56 59 59 62 67 67
35 36 38 41 42 42 44 46 47 51 59 60 58 62 75 72 68 57 58 62 63 62 62 64 65 62 60 56 58 57 58 55 59 60 57 56 58 56 67 68 70 64 68
32 34 31 31 33 34 35 36 42 47 51 57 53 50 51 57 52 54 54 53 56 57 57 59 60 60 59 58 58 61 56 61 62 64 60 58 62 64 65 67 73 74 72
26 24 25 23 26 29 29 33 35 38 39 45 44 41 31 39 44 45 46 41 45 47 50 54 57 57 57 58 59 60 61 62 62 63 70 61 62 65 66 68 68 69 64
23 25 23 25 26 27 28 31 30 33 34 40 38 34 31 32 25 28 33 39 39 44 42 46 50 50 52 53 47 57 55 52 57 61 59 61 65 67 69 68 62 60 60
25 25 24 25 25 26 27 30 28 27 28 34 34 29 24 24 23 29 27 28 27 37 37 40 40 44 38 36 46 51 50 56 57 62 63 63 65 69 60 61 59 60 64
28 23 22 24 25 23 24 25 27 25 25 29 27 27 21 21 20 22 22 26 31 28 28 32 29 33 40 36 40 43 45 46 51 55 54 56 56 55 58 60 63 67 71
27 21 21 22 23 23 24 22 21 20 20 22 23 18 15 15 14 14 13 15 16 16 18 20 25 20 26 31 40 42 46 53 50 47 49 52 55 58 62 65 68 71 75
29 24 22 22 22 23 20 20 19 18 21 19 16 15 10 15 15 10 11 12 19 12 13 17 22 28 31 35 40 45 47 43 45 49 53 56 60 63 65 68 70 71 70
20 19 18 19 18 16 17 19 17 15 18 18 15 15 14 16 16 15 15 13 9 12 16 23 29 31 29 30 31 33 38 44 49 52 56 60 63 65 66 66 65 58 52
16 15 17 14 15 18 19 20 19 18 18 18 16 16 16 15 14 12 10 8 10 12 15 17 19 22 26 30 35 38 43 48 53 56 58 62 65 64 59 55 50 46 45
16 15 14 14 17 19 20 21 22 21 20 19 18 17 16 16 15 14 14 15 16 18 19 22 25 29 33 36 39 43 47 52 56 59 63 64 55 50 47 46 45 45 44
16 14 14 16 18 19 21 21 21 20 19 19 18 17 16 15 16 17 17 18 19 21 24 28 32 36 40 42 44 48 52 55 60 64 61 51 45 45 45 44 42 39 37
16 15 15 18 19 19 21 21 19 19 19 18 17 17 18 19 20 21 23 25 27 29 31 34 37 40 42 45 48 51 54 60 63 61 48 41 42 43 43 40 38 36 35
17 17 17 17 18 20 20 19 19 18 18 17 17 18 20 22 23 25 26 27 29 32 35 38 41 43 46 48 49 53 58 64 59 45 39 37 35 36 37 36 35 35 35
19 18 18 17 18 19 20 19 19 18 19 20 21 22 23 25 26 28 30 32 34 36 38 41 44 45 48 51 53 57 63 57 44 37 34 31 31 32 33 34 33 34 35
20 19 19 19 19 20 20 20 20 20 21 22 24 26 27 28 30 31 33 35 37 40 42 43 45 47 49 51 57 64 56 42 36 34 32 31 30 31 33 35 36 35 35
22 22 22 22 22 22 21 21 21 21 22 24 26 29 30 32 33 34 36 37 40 42 43 44 47 50 52 57 64 56 41 36 35 35 34 34 33 34 35 37 37 37 38
28 27 25 25 24 23 23 23 23 24 25 27 28 30 33 33 34 35 37 39 41 43 44 47 50 53 57 64 51 41 36 36 36 36 38 39 40 40 41 41 40 41 41
31 29 28 28 26 25 24 25 25 26 28 29 31 32 34 34 35 37 39 40 42 43 46 49 52 57 64 51 43 38 37 39 40 39 39 41 43 44 44 43 43 43 42
26 24 26 29 29 27 26 27 28 30 31 32 33 34 35 35 37 38 39 41 42 45 47 50 54 61 51 45 41 39 40 42 44 44 44 44 45 45 46 46 46 46 45
25 26 28 30 31 28 27 28 29 31 32 33 34 34 34 36 37 39 40 42 44 46 49 53 58 54 49 46 43 42 43 45 46 47 47 46 46 46 47 47 47 47 47
27 26 28 30 30 28 27 28 30 31 32 34 34 34 35 36 38 39 41 42 44 48 51 54 57 51 47 46 45 44 45 47 47 47 46 45 45 46 46 46 47 48 48
29 27 27 27 27 27 27 29 31 31 33 34 33 34 35 36 38 40 41 43 46 49 53 56 56 50 47 45 45 44 44 44 45 45 45 43 43 44 45 46 46 47 50
30 29 28 26 25 26 28 29 29 31 33 33 33 34 35 37 38 39 42 44 47 50 53 56 55 49 46 46 45 45 44 42 40 40 40 41 42 43 44 44 45 44 41
27 28 26 24 25 26 28 28 29 32 33 34 35 35 36 36 37 40 43 45 49 51 53 56 52 47 45 45 45 44 43 40 38 35 32 30 30 30 31 31 30 27 26

GFSGL_500_spd_042.txt.gz
Wind_Speed
34 36 37 38 39 37 37 40 40 38 40 43 43 48 54 58 61 63 62 59 61 65 65 65 62 60 58 59 59 59 59 57 58 59 53 56 50 45 43 43 50 55 56
34 36 37 33 32 33 35 34 34 32 36 36 43 45 52 58 61 59 52 52 50 56 56 61 57 55 57 60 59 59 59 60 61 65 60 58 49 46 43 46 48 61 56
33 31 29 30 32 29 29 30 32 36 37 39 39 39 44 52 50 46 42 40 44 44 46 48 53 53 52 54 54 55 57 57 61 59 62 58 62 56 52 55 64 60 61
26 27 28 29 29 29 31 31 32 33 36 36 32 36 39 41 38 34 36 34 34 34 37 40 40 48 48 47 50 49 53 55 57 58 58 59 59 58 58 63 62 62 67
26 27 27 29 31 30 31 30 28 30 35 33 30 34 33 33 34 34 34 34 34 32 30 31 35 43 46 45 43 45 46 47 49 53 54 54 52 53 56 58 58 61 59
26 26 26 28 31 29 28 28 30 33 32 28 29 28 30 30 30 31 33 33 31 29 25 23 31 34 34 38 43 39 39 40 47 55 56 51 50 51 52 54 56 53 55
27 29 31 31 30 28 25 26 29 29 30 28 28 24 24 23 24 24 24 26 24 23 21 24 25 21 24 27 33 36 35 39 39 38 44 46 49 51 50 52 55 57 60
27 27 27 29 30 28 26 26 27 25 23 24 25 21 24 23 25 24 22 21 20 20 19 14 15 12 16 19 24 21 24 29 33 38 41 40 43 48 52 56 59 60 63
23 24 23 24 24 22 22 21 21 22 24 25 24 24 22 22 22 22 21 17 18 14 11 10 10 11 17 21 24 28 28 29 30 33 37 42 46 51 55 59 61 65 68
21 20 20 19 19 18 18 19 21 23 25 24 23 22 22 21 22 20 18 18 17 16 14 16 21 19 19 20 23 25 29 32 35 39 42 47 52 56 60 62 65 65 59
21 20 19 20 18 17 19 20 21 23 24 22 21 20 20 19 18 18 18 17 17 18 19 19 21 21 23 26 29 32 35 38 41 43 49 52 55 58 61 63 60 53 49
20 20 19 20 18 18 19 20 22 23 21 20 19 19 18 17 18 19 20 20 20 21 21 22 23 26 29 32 35 38 40 42 46 49 50 55 59 63 63 55 46 45 46
20 19 20 19 19 19 19 20 22 22 20 18 18 18 18 19 20 21 22 23 24 25 27 28 30 33 35 37 40 42 44 47 48 51 55 59 63 62 51 42 40 38 37
22 21 20 20 20 20 19 20 21 20 20 19 18 19 20 21 22 24 26 28 29 31 32 33 35 37 39 41 43 44 47 49 51 56 60 65 59 47 39 36 34 32 31
20 21 22 22 21 21 20 20 21 21 20 19 20 21 22 23 25 26 28 30 31 31 33 35 38 41 42 42 44 48 50 54 58 63 61 51 42 38 37 34 33 32 32
20 20 22 23 22 22 22 22 22 22 21 20 22 23 24 25 27 29 31 32 33 34 37 39 41 42 42 44 47 49 53 59 64 56 46 41 38 38 37 36 35 35 35
22 21 22 24 25 25 25 24 24 23 23 22 23 25 27 29 31 33 34 34 35 37 39 40 41 42 43 46 48 51 61 59 48 47 43 39 39 39 39 39 40 41 41
25 26 28 28 28 29 28 27 26 26 25 26 27 28 30 32 33 35 35 35 37 39 40 41 42 44 46 49 51 57 59 51 45 43 41 41 42 42 42 43 45 45 44
28 27 29 29 31 32 29 29 28 27 28 29 30 30 32 35 36 36 36 37 38 39 40 41 44 46 48 53 54 58 53 49 45 43 43 44 46 47 46 46 46 46 46
28 29 29 28 29 27 28 29 31 30 29 30 31 32 34 35 37 37 37 38 38 39 40 42 45 49 51 54 58 58 51 49 47 45 45 47 49 50 50 49 48 48 47
27 28 28 27 26 25 27 29 31 31 30 31 32 33 34 36 37 37 38 38 39 40 42 45 48 50 52 55 59 56 50 50 49 49 49 48 49 48 47 47 46 46 47
31 31 30 29 28 28 27 27 28 31 31 32 32 33 35 36 36 37 38 38 39 41 43 46 49 51 53 55 59 54 49 50 49 49 49 47 46 45 45 44 44 44 45
28 28 28 29 29 30 30 29 28 29 30 31 32 34 35 35 37 38 38 39 40 42 46 48 50 51 53 56 57 51 48 48 48 48 47 43 40 39 39 41 43 44 45
24 25 27 29 30 31 31 31 28 28 29 30 31 33 35 37 38 38 39 40 41 44 48 50 51 53 55 57 55 49 46 46 45 45 43 38 35 34 32 31 31 32 32
28 27 27 28 29 30 31 29 28 28 28 28 32 34 35 37 38 39 40 41 43 45 49 51 52 54 56 56 52 47 45 44 42 39 36 34 31 30 29 28 27 26 25
28 30 29 29 29 29 28 28 29 29 28 31 33 35 37 38 38 39 40 42 44 47 49 51 53 54 56 55 49 45 44 43 39 35 33 32 31 31 30 28 27 27 27

GFSGL_500_spd_045.txt.gz
Wind_Speed
35 37 40 39 38 37 38 38 36 36 37 37 37 37 37 39 42 44 44 50 51 54 49 46 52 57 59 56 59 53 55 60 61 59 60 59 56 55 47 49 58 39 39
37 37 36 35 35 35 34 33 34 33 35 33 33 34 37 40 39 41 45 44 45 49 46 45 47 50 48 47 51 58 54 55 54 52 54 58 57 56 65 40 35 51 60
33 33 34 33 32 31 31 32 32 31 33 34 34 33 38 39 37 37 38 37 40 44 46 43 44 42 40 40 40 39 46 47 47 51 50 51 46 36 47 55 62 58 56
32 32 29 27 27 27 28 30 32 32 33 34 34 36 35 35 35 35 33 33 34 38 42 39 36 37 36 34 34 31 34 36 42 47 43 38 48 57 58 53 56 57 53
28 25 24 25 26 28 28 28 30 31 32 31 34 33 33 35 31 31 30 31 30 33 33 34 31 28 26 26 27 29 31 34 37 43 53 47 41 45 51 54 51 46 49
21 22 23 26 29 29 29 30 29 30 29 31 32 32 32 30 30 30 31 30 29 31 32 30 29 23 21 19 13 24 29 37 37 36 37 37 42 43 46 49 55 44 41
20 22 25 28 31 29 26 26 28 29 28 30 28 27 28 29 30 29 29 28 25 24 24 26 23 20 18 15 18 16 16 21 27 35 38 37 35 35 38 42 43 44 48
20 18 20 23 23 23 24 26 26 25 27 26 26 27 28 29 28 27 25 23 22 20 21 22 25 21 20 20 19 19 14 15 19 23 26 29 33 36 39 42 46 50 54
14 15 17 17 19 19 19 20 22 23 23 24 25 26 27 26 25 22 21 20 19 20 19 19 19 20 20 20 19 20 20 22 23 26 30 34 38 42 45 49 52 55 58
13 15 17 18 19 20 21 21 20 21 22 24 25 24 22 21 19 18 17 17 17 18 18 19 20 21 22 23 24 25 27 29 31 33 35 38 41 45 49 51 53 57 61
14 16 18 20 20 20 21 20 20 22 23 24 23 21 19 18 17 18 18 18 19 20 21 23 24 24 25 26 28 29 31 33 36 38 41 43 46 48 50 53 57 61 62
15 16 19 19 19 20 21 21 22 22 23 22 20 18 17 18 19 20 22 23 23 24 25 25 26 28 29 32 34 36 37 38 40 41 43 45 47 51 56 60 62 57 49
15 17 19 20 19 20 21 22 22 23 23 22 20 19 19 20 21 23 25 26 26 28 28 29 30 32 34 36 37 39 39 40 42 44 44 48 55 61 62 57 50 43 39
17 17 19 19 20 21 22 23 23 23 24 23 22 21 22 23 24 25 26 27 29 31 32 32 33 35 37 38 40 41 42 44 45 48 48 55 59 56 50 45 41 39 39
18 18 19 18 19 20 22 24 24 25 25 24 23 23 23 23 24 25 28 30 31 32 33 34 36 38 39 40 41 43 45 46 49 52 52 56 54 50 45 42 41 40 40
20 21 21 21 21 20 22 24 26 27 27 27 26 24 24 25 26 27 30 32 34 35 35 36 38 39 39 39 42 44 49 48 51 54 57 54 51 46 43 43 43 43 43
22 23 24 24 26 27 28 28 29 30 30 29 28 28 28 28 30 32 33 34 35 36 36 38 39 40 39 41 45 47 51 52 53 56 57 50 48 46 45 46 47 47 47
24 25 26 27 28 28 29 31 33 33 31 30 30 31 31 32 33 33 34 35 36 36 38 39 40 40 41 44 48 51 52 52 54 57 52 48 47 47 48 49 50 51 51
28 28 28 28 29 29 29 29 29 27 28 29 31 32 32 32 33 33 34 36 36 38 39 39 40 41 42 46 50 52 52 53 55 55 49 47 47 47 49 51 52 52 52
32 31 31 29 27 27 28 28 28 27 27 28 29 31 32 32 32 33 35 35 37 39 40 40 41 43 45 49 53 54 54 55 57 53 47 46 47 48 51 50 48 47 48
34 32 31 29 28 29 30 29 28 28 30 32 31 29 32 32 32 33 35 37 39 40 40 41 43 46 48 52 55 55 55 56 58 51 46 46 45 47 46 43 41 40 38
34 32 31 30 31 30 30 30 30 30 31 32 31 30 31 30 31 33 36 38 39 40 41 43 45 46 50 54 55 55 56 58 57 49 45 44 41 40 39 36 34 33 31
34 33 31 30 29 29 29 31 32 33 33 31 31 30 31 29 32 36 38 39 40 41 42 43 46 48 52 55 55 55 57 58 54 46 43 41 38 37 35 33 32 31 31
32 32 30 29 27 28 30 32 32 33 31 30 30 31 31 30 34 37 40 42 42 42 43 46 47 51 54 55 55 56 58 56 50 44 41 38 36 36 36 34 33 32 31
31 32 31 31 31 31 33 33 33 31 30 30 31 32 31 33 36 39 42 44 42 43 45 47 51 53 54 53 54 56 58 54 48 43 40 37 35 36 37 36 37 36 36
30 29 28 29 31 34 35 35 33 32 32 32 33 34 34 35 39 41 42 42 43 45 47 50 52 51 51 52 54 57 57 52 48 44 40 36 34 34 35 36 38 38 36

GFSGL_500_spd_048.txt.gz
Wind_Speed
43 42 41 39 38 39 41 42 41 42 42 42 41 39 38 34 34 35 37 39 42 43 44 43 45 47 49 50 46 50 54 53 47 46 49 50 54 55 60 64 49 54 50
38 36 35 36 37 38 38 39 39 39 38 37 36 33 33 33 36 39 37 38 41 43 41 41 43 44 43 44 45 48 41 40 44 47 46 29 36 49 48 52 39 44 51
33 33 34 34 35 35 36 35 34 34 34 33 33 32 33 34 35 37 37 40 41 39 40 39 39 41 41 45 44 40 36 32 32 27 27 36 25 31 40 33 47 42 33
30 31 32 33 34 33 30 30 29 30 31 32 33 34 34 33 36 37 38 39 37 39 40 38 36 37 36 36 34 32 28 22 22 21 21 25 30 41 44 38 32 41 49
28 29 30 31 30 29 28 26 28 31 32 32 31 31 33 34 35 35 35 35 36 37 37 36 33 32 31 30 28 29 28 20 20 24 28 28 30 34 36 46 43 36 42
25 26 27 25 24 25 27 29 32 34 34 30 29 30 32 34 32 32 33 34 33 33 33 31 30 30 28 28 26 26 26 22 18 18 21 23 29 31 34 37 41 46 47
21 20 20 21 23 24 27 29 31 32 30 29 31 31 32 31 31 31 32 32 32 29 27 25 25 26 25 25 24 24 23 21 20 21 20 19 21 27 31 34 36 38 40
20 19 19 18 17 18 21 23 25 27 27 27 28 29 29 30 30 29 29 28 26 25 22 22 22 22 23 23 23 23 23 23 23 24 24 25 26 29 32 35 39 42 45
17 14 16 15 14 16 19 20 22 24 25 26 27 27 28 29 27 25 24 23 23 22 22 21 22 24 25 25 26 26 27 28 28 30 32 33 34 36 37 40 44 47 50
13 13 14 14 14 17 19 21 22 23 24 24 25 27 28 27 24 23 22 22 21 21 23 24 25 25 26 27 29 30 32 33 34 35 36 37 39 40 41 43 45 47 49
14 13 13 14 16 18 18 20 21 22 23 25 26 27 26 24 22 21 21 22 22 23 24 26 27 29 30 30 31 33 35 36 37 38 39 40 41 43 44 46 47 50 54
14 13 14 15 17 18 18 20 20 22 23 24 25 26 25 23 22 21 22 23 23 24 25 26 28 29 30 31 34 36 37 38 38 40 42 44 46 46 49 51 53 56 58
15 15 16 17 18 18 20 22 21 22 23 24 25 25 25 25 24 24 24 24 24 25 26 28 30 32 33 34 36 38 39 39 40 43 45 48 49 49 51 54 57 58 56
18 17 18 19 18 19 21 22 22 23 24 25 26 26 26 26 26 25 24 25 26 28 30 31 32 33 35 37 38 39 39 39 41 45 48 52 51 50 52 55 57 53 51
22 21 20 21 21 21 22 22 21 23 25 27 28 28 28 27 27 26 27 28 30 32 32 32 33 35 37 38 39 41 40 42 46 49 51 51 51 52 54 55 52 49 48
25 24 23 23 24 25 26 28 29 29 29 30 32 32 31 29 29 29 30 31 32 32 33 34 35 37 38 40 40 41 42 44 48 52 52 52 53 55 56 53 48 47 47
26 26 26 26 26 28 29 30 31 30 31 32 35 36 32 31 30 31 31 31 32 33 34 36 37 39 40 41 41 42 45 48 52 54 53 54 54 57 55 49 47 47 48
30 29 29 29 29 30 31 32 33 32 31 31 31 29 29 30 30 31 31 32 33 34 35 37 40 41 41 41 42 44 47 50 54 55 54 55 57 57 50 46 46 45 48
32 33 33 32 32 33 34 34 33 31 30 30 30 31 32 33 34 32 33 34 34 34 36 39 42 42 42 42 44 47 49 54 56 55 55 57 59 52 45 45 43 43 45
34 35 35 35 36 36 35 34 32 32 32 31 31 31 33 33 34 33 33 34 34 35 38 41 43 44 43 44 46 49 52 55 55 54 55 58 55 48 44 42 41 40 40
38 39 39 39 38 37 35 34 34 34 34 33 33 34 35 34 33 33 33 34 34 37 40 43 45 45 45 47 49 51 55 57 55 54 56 58 52 47 43 41 40 38 36
37 39 39 39 38 37 36 34 34 34 34 34 35 36 35 34 33 33 34 35 36 39 42 45 46 45 46 49 52 54 57 55 53 55 57 56 51 47 44 41 39 37 37
38 38 38 37 37 35 34 34 34 33 33 35 35 35 34 33 33 34 36 37 39 41 44 47 46 46 48 52 55 57 56 52 54 56 58 54 50 48 45 41 39 38 38
37 36 37 35 34 34 34 34 34 34 35 36 36 35 34 34 34 36 38 40 41 44 46 46 47 50 53 56 58 56 50 52 55 58 57 52 49 48 44 39 38 38 38
36 37 36 33 34 35 34 33 36 38 38 38 38 38 37 36 37 39 40 43 46 48 46 48 49 53 55 57 55 50 52 54 57 58 54 49 46 44 42 37 37 36 39
32 33 32 33 33 33 35 37 38 38 37 38 41 41 40 39 40 40 42 45 47 46 47 49 53 55 54 52 50 51 54 56 58 56 51 47 44 41 39 37 36 36 39

GFSGL_500_spd_051.txt.gz
Wind_Speed
50 50 51 49 49 51 52 48 45 43 42 42 42 43 44 44 42 40 35 35 38 40 41 41 42 42 44 43 42 45 43 45 51 51 43 43 44 46 40 38 43 42 44
48 50 50 51 49 47 44 41 40 39 40 40 40 41 41 40 38 35 34 36 37 39 40 41 42 42 44 42 41 42 40 42 45 46 35 35 37 27 27 23 17 36 47
45 45 44 43 41 38 38 37 37 38 37 37 37 36 36 35 35 36 37 36 39 40 39 40 40 41 43 40 41 40 37 40 40 38 33 30 26 22 23 29 27 21 27
38 38 37 37 35 34 34 35 35 35 35 34 34 34 33 34 34 34 35 37 39 39 37 38 39 39 38 37 37 35 34 34 33 32 31 30 29 27 25 22 22 26 29
34 33 32 31 30 30 31 31 32 32 32 32 33 35 37 36 34 33 35 38 38 37 38 38 38 37 34 32 31 29 28 28 29 29 28 27 26 24 24 28 28 27 28
29 29 28 27 27 28 28 28 28 29 31 32 33 35 35 34 35 34 36 36 37 38 37 34 31 29 27 24 23 25 26 27 28 27 28 29 28 27 26 25 25 27 26
26 25 24 23 23 24 25 27 27 26 27 29 30 31 32 32 31 33 34 35 36 35 29 27 26 25 24 25 25 27 27 28 28 28 29 29 29 30 30 31 31 33 35
22 22 22 21 21 22 22 21 20 21 24 26 27 28 29 30 30 32 34 34 33 28 26 25 25 25 25 27 28 29 29 30 31 32 33 34 34 34 34 35 37 38 40
22 23 21 21 18 18 18 18 19 21 22 24 26 28 28 29 31 33 33 31 29 26 24 24 25 26 27 28 29 29 30 31 32 34 35 36 36 36 37 39 41 42 44
22 22 23 19 16 16 16 17 19 20 21 22 23 24 26 28 30 31 31 29 26 25 25 25 26 27 26 27 29 29 31 33 35 36 37 37 37 39 41 43 46 48 49
23 23 23 17 15 15 15 17 18 19 20 21 23 24 25 27 29 29 28 27 26 26 26 26 26 26 27 29 30 31 32 35 37 38 39 38 39 42 45 47 51 52 50
23 23 22 18 16 16 16 17 18 20 21 22 24 25 26 27 27 27 27 27 28 28 27 26 27 28 30 32 33 33 35 36 38 39 39 40 43 46 49 52 54 51 49
23 24 22 19 17 17 16 17 18 21 22 22 26 28 28 29 29 28 27 27 27 27 27 28 29 31 32 33 34 35 37 38 40 41 41 42 45 49 53 54 53 51 52
23 24 23 21 20 20 19 18 21 23 22 22 25 28 29 30 32 32 31 29 28 28 29 31 32 33 33 34 36 37 39 40 41 42 43 45 49 54 56 54 50 52 57
24 24 25 24 24 24 23 23 24 26 27 29 32 33 32 32 34 36 36 34 31 30 31 31 32 33 35 36 37 40 41 42 42 43 45 48 52 57 56 51 53 56 59
27 27 27 27 27 27 27 28 28 30 30 32 33 34 34 34 35 36 35 33 33 32 32 33 34 35 37 38 40 41 43 43 44 45 48 51 55 58 54 53 54 58 52
30 29 30 29 29 29 30 31 32 33 33 34 35 35 35 34 34 32 31 33 35 36 35 35 36 37 37 38 41 43 44 44 46 47 51 54 58 57 53 54 57 56 51
35 34 31 31 31 31 32 33 34 35 36 36 37 35 34 34 33 33 34 35 37 37 38 37 37 37 38 40 42 44 45 45 47 50 53 57 59 53 53 55 58 56 50
31 37 39 36 33 34 35 35 36 37 37 37 37 35 35 35 34 34 36 37 37 36 37 37 38 38 40 43 45 46 46 47 49 53 56 59 56 51 54 56 59 54 50
30 32 34 36 37 38 38 38 38 39 38 38 37 37 38 37 36 37 38 40 39 38 37 39 40 41 44 46 48 49 49 50 53 57 59 57 52 53 56 58 57 53 50
34 35 34 34 35 37 39 39 39 38 37 38 37 37 37 36 36 37 38 39 40 38 38 40 42 44 45 48 50 51 52 55 58 60 57 52 53 56 59 59 55 52 49
36 36 36 36 35 37 37 38 38 38 37 37 37 38 37 36 36 37 38 39 39 40 40 43 45 46 48 51 51 52 55 58 60 56 53 54 56 59 59 56 52 50 48
36 36 36 36 36 37 38 38 37 37 37 36 37 37 37 37 38 39 40 41 41 42 42 44 46 49 51 52 51 53 56 58 55 54 55 55 58 59 56 52 51 48 46
36 36 36 35 37 38 39 37 38 37 37 38 37 38 40 40 40 40 42 44 43 43 43 45 48 51 52 51 53 55 55 54 55 55 54 56 57 55 53 53 51 45 42
34 35 36 37 37 37 37 36 36 37 37 38 40 42 41 41 42 42 41 40 41 43 45 47 49 49 50 52 54 52 53 54 53 54 54 55 54 53 55 52 47 41 41
31 32 32 33 34 33 33 34 35 36 39 38 40 40 40 41 40 41 42 43 43 43 44 46 48 50 52 50 51 53 54 54 52 53 55 55 52 54 52 46 42 39 39

GFSGL_500_spd_057.txt.gz
Wind_Speed
53 51 47 46 48 48 47 46 46 46 46 45 48 48 49 50 48 45 42 41 41 39 37 35 35 36 38 39 38 40 40 39 40 39 37 34 32 30 30 32 33 33 33
58 56 53 54 51 50 49 48 49 48 49 50 50 51 49 46 44 41 40 39 38 35 34 35 36 38 38 39 40 40 39 40 40 38 35 30 28 27 29 29 29 30 31
54 56 55 52 52 51 51 52 53 53 53 50 47 45 44 43 40 39 38 36 36 36 37 38 39 40 39 40 41 40 40 39 36 32 29 25 26 28 27 27 28 28 28
49 51 48 47 47 50 50 49 50 48 46 44 43 42 40 39 38 37 36 36 37 38 37 37 39 39 39 39 39 39 38 34 30 27 25 26 28 27 28 29 29 29 29
41 42 44 42 41 41 41 43 44 43 44 42 40 39 37 35 34 33 35 36 35 34 34 34 32 33 35 36 37 35 32 29 27 26 26 27 28 30 30 31 31 31 31
47 48 43 38 30 30 35 36 38 37 35 37 36 35 32 31 32 32 31 32 32 31 31 31 32 35 36 35 33 30 28 28 27 28 28 29 30 31 32 33 33 32 32
44 47 46 46 41 36 32 32 33 34 36 35 31 30 30 31 28 28 30 32 29 28 28 30 32 34 34 31 29 27 28 29 30 30 29 29 31 33 34 34 34 34 34
32 35 38 39 41 44 43 39 37 33 30 29 29 28 26 25 25 26 26 23 22 23 25 28 30 30 30 28 28 29 30 30 31 30 30 33 34 35 35 36 36 36 36
40 34 32 32 32 33 30 32 30 28 26 27 25 24 23 24 23 21 21 20 21 24 26 27 28 29 30 31 31 31 32 32 30 31 34 36 36 36 37 38 38 37 38
35 40 31 32 32 28 27 26 26 27 25 24 24 23 23 21 20 20 20 21 22 25 26 28 30 31 31 33 33 33 33 32 32 35 37 36 36 37 38 38 38 38 38
25 26 26 25 25 26 25 25 25 26 28 26 23 23 22 21 20 20 21 21 23 25 27 29 31 33 34 35 35 34 34 35 37 38 37 37 38 39 39 39 40 40 41
28 23 22 23 25 27 26 23 27 29 27 27 24 23 23 24 22 22 22 24 25 27 29 31 33 34 38 38 36 35 36 38 39 38 38 39 40 40 40 41 42 44 45
23 24 25 23 22 23 25 27 29 28 28 27 25 24 24 24 24 25 25 27 28 29 31 32 33 35 35 33 34 36 38 39 39 40 41 41 41 41 41 43 44 46 47
28 26 25 24 23 24 27 28 29 28 28 28 26 24 26 26 27 28 28 29 31 32 33 33 34 36 35 33 34 36 38 39 41 43 43 42 42 43 45 46 46 47 50
26 28 24 23 23 25 27 28 28 27 29 30 28 28 28 29 30 29 29 30 32 34 34 34 34 36 36 36 37 38 40 41 42 42 43 43 43 46 47 48 49 51 53
22 23 23 23 23 23 24 26 27 28 29 30 30 30 31 31 31 29 30 32 33 35 35 35 36 37 39 40 40 40 40 40 41 42 43 44 46 49 50 52 53 55 56
25 20 23 26 26 25 25 26 27 28 30 29 30 31 31 31 30 30 32 34 36 36 36 37 38 38 39 40 41 41 40 39 40 41 43 45 48 51 53 55 56 57 57
29 23 24 26 27 28 28 28 29 30 30 30 31 31 31 32 34 37 37 37 37 37 38 39 39 38 39 40 40 40 39 40 42 44 46 48 51 53 55 57 57 58 56
26 26 27 27 27 28 29 30 30 29 30 31 33 35 34 34 34 35 37 37 37 37 38 39 38 38 39 41 41 41 42 43 44 46 48 51 53 55 56 57 57 55 54
29 29 29 30 30 31 31 32 32 32 32 31 31 32 32 34 35 35 35 36 37 39 38 37 37 38 40 41 42 44 44 44 46 48 50 52 53 54 55 54 54 56 55
29 31 32 33 33 33 33 34 34 35 37 37 38 37 38 37 37 37 39 39 38 40 39 38 39 40 41 42 43 43 45 48 48 49 50 49 50 52 54 54 55 55 54
28 30 32 33 34 35 36 36 37 38 38 38 38 39 39 38 39 40 42 42 42 42 41 41 43 42 43 43 43 46 48 46 45 44 45 48 51 54 55 55 55 55 52
26 27 29 32 35 38 39 39 39 39 40 40 40 40 38 39 41 43 45 43 43 42 41 42 42 42 42 42 44 44 41 42 44 45 48 51 52 56 57 56 56 54 52
28 31 33 34 35 36 37 39 42 42 43 42 41 41 40 40 40 44 43 44 43 42 42 44 41 39 39 40 40 40 43 44 46 49 52 50 53 58 58 56 54 52 54
27 28 29 30 31 33 34 35 37 39 41 42 42 42 41 40 40 42 44 42 41 42 42 38 35 36 36 37 40 43 46 48 50 52 51 53 56 56 56 55 52 53 55
21 22 23 25 27 28 29 30 32 33 34 35 36 38 39 40 41 39 38 38 39 37 33 34 34 34 36 40 43 45 47 48 51 53 53 52 51 54 56 52 52 53 53

GFSGL_500_spd_060.txt.gz
Wind_Speed
48 51 53 53 51 51 50 50 51 50 50 48 47 46 46 45 46 48 49 51 49 45 43 43 42 41 39 38 39 40 42 42 43 43 44 42 41 37 33 31 26 27 27
56 55 56 57 55 54 54 54 52 49 50 49 47 47 47 47 49 49 50 46 43 42 42 40 39 38 39 40 41 41 41 42 43 44 42 40 37 31 29 26 27 27 27
54 55 57 58 59 57 56 57 58 57 55 53 50 49 51 52 48 46 45 42 41 42 39 38 39 39 40 40 39 38 38 39 40 39 37 33 30 26 25 27 28 28 30
47 49 50 51 53 54 53 52 54 54 55 54 52 50 50 48 45 43 42 41 41 39 38 38 38 39 36 34 35 35 37 38 37 33 30 27 26 27 27 29 29 30 32
44 43 43 43 45 45 47 45 46 46 47 47 47 48 49 45 42 41 38 38 37 36 38 37 35 33 33 33 33 33 35 33 31 29 27 26 26 28 29 30 30 31 33
43 43 45 47 45 45 42 43 45 39 40 41 39 40 37 35 35 35 37 36 35 34 33 32 30 28 26 28 30 31 30 29 28 28 28 28 28 29 29 30 31 33 34
46 47 44 43 44 50 48 43 40 37 31 30 31 31 33 33 34 37 34 33 30 30 29 23 23 25 27 29 29 28 28 28 28 29 30 30 30 30 31 33 35 36 36
46 44 40 37 35 36 46 46 47 47 43 40 43 38 36 35 35 33 30 28 27 26 22 21 23 25 26 26 26 25 28 30 31 32 32 32 31 32 34 36 36 36 37
41 41 39 36 36 34 34 36 37 35 41 38 33 32 31 32 30 28 27 25 24 22 21 23 23 24 26 26 28 28 28 30 32 33 33 33 34 36 38 37 36 37 38
38 34 34 41 40 40 36 27 28 28 26 28 32 32 31 28 27 26 25 24 23 22 23 25 25 25 27 29 30 31 31 33 33 33 34 35 37 38 37 37 37 39 39
28 28 30 29 29 36 32 33 31 28 26 25 26 27 25 28 28 26 25 24 24 24 25 26 26 27 29 31 31 33 34 34 34 35 35 37 37 38 38 40 41 41 40
29 26 28 26 27 28 28 25 25 25 26 25 25 27 30 29 29 26 25 26 26 27 27 27 28 29 30 32 33 33 33 32 32 33 36 37 38 39 41 42 42 41 42
22 28 32 29 27 24 25 25 25 24 26 28 25 29 29 29 29 27 26 27 28 28 29 30 30 31 32 33 34 35 35 34 35 37 39 40 41 41 42 42 42 43 45
28 29 27 28 26 26 25 23 23 25 26 26 28 28 28 28 29 27 27 29 29 30 31 31 31 32 35 36 36 37 37 37 37 38 39 40 41 41 41 42 43 45 48
22 23 27 30 28 27 27 25 23 25 27 28 29 29 28 28 29 31 31 31 32 31 30 32 33 35 37 38 38 39 40 39 38 39 39 40 39 41 43 45 47 49 51
26 28 24 25 26 27 26 25 23 24 26 27 28 28 29 30 31 32 32 33 32 32 32 34 38 39 39 39 39 39 39 40 39 39 38 39 40 42 45 47 50 52 54
23 27 27 25 22 21 23 26 27 24 25 27 28 29 29 31 32 32 32 33 33 35 38 38 38 40 40 40 39 39 40 40 40 40 41 42 43 45 47 50 51 53 55
19 21 25 28 28 24 24 25 27 28 29 30 31 31 32 33 33 34 34 36 37 36 36 37 38 39 39 39 39 39 39 40 42 42 43 43 44 46 48 50 52 52 51
24 23 20 23 23 24 25 27 28 30 32 33 33 32 33 33 35 35 35 35 35 35 35 37 38 38 38 39 40 41 41 42 43 44 44 45 47 47 47 46 46 49 51
29 28 27 28 28 28 29 30 31 32 33 34 35 35 36 36 36 36 37 37 38 39 38 39 40 40 41 43 43 42 44 45 45 45 45 45 43 42 44 47 50 52 54
28 29 29 30 31 31 32 33 34 35 36 37 38 39 40 41 42 43 43 43 44 42 41 42 44 44 43 43 43 44 45 44 43 43 43 41 42 44 46 50 53 54 57
28 29 29 29 30 32 32 34 35 37 38 40 42 43 44 44 45 44 44 45 44 42 44 45 46 45 45 44 43 45 43 41 41 40 40 41 45 49 51 53 54 57 59
28 28 27 27 28 28 30 32 34 37 39 42 44 46 47 46 46 46 46 47 45 47 47 47 47 46 45 45 45 42 39 39 37 39 42 46 48 51 52 55 56 57 57
26 26 26 26 28 31 33 34 35 37 38 39 41 43 46 47 47 46 45 45 45 45 46 47 47 46 46 44 39 38 37 37 40 45 48 51 53 55 56 56 58 59 59
25 25 25 27 28 27 27 27 29 30 31 33 35 37 39 40 40 40 41 42 42 45 46 44 44 43 40 35 35 36 39 43 48 51 53 54 55 57 58 59 60 59 58
23 22 22 21 22 22 23 26 26 28 30 32 33 34 34 35 37 36 36 38 40 39 37 39 39 36 33 35 38 42 46 49 51 52 53 55 56 59 62 62 60 57 55

GFSGL_500_spd_063.txt.gz
Wind_Speed
40 45 42 44 48 49 50 50 50 50 50 49 49 49 49 50 49 47 45 46 47 46 49 50 49 46 45 45 42 41 41 43 44 42 41 39 40 42 41 40 36 31 26
40 41 43 48 51 52 54 54 54 54 53 53 52 50 48 49 49 48 46 47 48 49 50 48 47 44 42 41 40 41 42 43 40 36 36 37 38 39 37 32 29 25 23
44 51 54 53 52 55 55 57 56 56 54 54 53 53 53 53 52 51 49 51 51 51 46 45 43 42 39 40 40 41 40 37 36 36 36 36 35 33 29 27 24 25 27
51 52 52 52 49 50 50 50 50 50 50 49 48 50 49 47 48 49 50 50 49 50 45 41 39 38 37 37 38 37 35 32 32 32 32 31 30 28 27 26 27 28 29
46 47 49 49 48 47 48 48 47 46 44 43 44 43 43 44 46 46 46 46 46 44 40 37 35 34 35 34 35 29 28 29 30 30 30 30 28 27 28 29 29 30 29
45 46 45 45 44 44 44 46 48 46 44 42 42 41 43 42 43 44 41 40 37 36 35 34 34 34 31 30 27 26 28 29 29 28 28 27 28 29 30 29 30 30 30
38 40 40 41 42 44 45 46 46 48 50 45 42 41 32 30 32 34 33 33 32 32 33 35 32 29 28 26 26 25 26 26 27 27 28 29 29 29 30 30 31 32 34
34 38 40 43 46 49 48 45 43 44 45 51 51 47 43 43 38 38 36 36 34 34 31 29 29 27 25 26 25 27 27 27 28 29 31 32 31 31 31 31 32 34 36
38 41 45 45 41 40 43 43 42 38 35 33 35 37 38 41 37 37 36 35 31 29 28 28 27 26 26 25 28 28 27 29 30 31 32 35 35 34 33 33 35 36 36
39 40 41 41 39 40 39 43 43 40 34 30 31 29 26 34 29 29 30 33 30 28 28 27 28 27 26 27 28 28 28 29 30 32 32 33 33 34 35 35 36 36 37
30 34 36 37 35 31 28 30 31 35 36 33 25 24 23 25 27 28 29 28 28 28 29 28 28 26 26 28 29 30 30 31 32 33 34 34 34 34 36 37 38 39 40
32 29 30 30 30 27 26 25 29 28 33 27 28 23 22 23 24 26 28 28 30 30 29 29 28 28 30 31 30 30 32 33 35 36 37 36 38 38 38 39 39 40 40
30 29 29 28 31 26 27 30 28 28 26 24 23 24 26 29 27 24 27 28 30 30 31 29 29 30 31 31 31 33 35 36 37 37 39 40 40 41 40 40 40 40 41
29 28 26 25 30 25 26 29 27 25 26 27 28 28 29 25 24 27 28 29 30 30 31 31 31 31 31 31 33 37 39 39 40 40 41 41 40 40 40 39 39 40 41
32 30 27 23 22 26 28 27 27 28 27 26 25 25 25 27 27 28 29 30 30 31 32 33 33 33 33 34 37 40 40 41 41 42 42 41 41 41 41 41 42 43 44
28 28 27 28 26 25 28 28 26 26 27 27 25 25 27 28 29 30 31 31 32 33 33 33 34 33 35 39 41 41 42 42 42 42 42 41 40 41 41 42 43 44 46
17 21 27 28 29 30 25 23 22 23 25 26 27 27 28 29 30 31 32 32 34 34 35 35 36 37 39 38 39 40 40 41 41 41 41 42 43 44 43 44 44 46 46
21 20 18 22 27 24 29 29 24 22 23 24 26 28 29 30 32 33 36 37 38 36 35 37 38 39 38 38 38 39 40 41 41 42 44 43 45 46 45 45 45 42 41
28 26 25 23 19 25 27 28 26 24 25 28 30 30 30 32 35 37 36 34 35 38 39 38 38 39 40 41 41 41 42 43 43 43 44 46 47 45 44 43 41 41 42
32 31 31 29 26 25 25 27 27 28 30 31 33 35 36 37 37 38 39 40 41 42 42 43 44 45 45 45 43 44 44 44 46 45 44 46 45 43 42 40 41 43 46
33 32 32 32 31 30 29 29 30 30 31 33 34 36 37 39 40 41 42 43 44 46 47 50 49 48 47 43 45 45 45 46 47 47 47 45 42 40 39 42 46 50 53
35 32 30 31 31 30 30 29 30 31 32 32 34 35 38 39 42 42 44 45 46 48 49 49 50 50 48 46 44 46 47 49 48 46 43 40 38 40 44 49 52 55 56
36 35 33 32 31 30 30 29 29 29 30 32 34 37 38 40 42 43 44 46 48 49 49 48 46 45 45 47 48 49 48 48 45 40 37 39 43 47 51 54 55 56 58
29 29 29 29 29 30 29 28 28 31 32 31 31 31 32 34 35 37 39 42 44 44 45 44 43 42 41 44 47 45 45 42 36 38 41 45 49 53 54 55 57 58 59
28 27 28 28 28 27 28 28 28 26 26 26 27 29 32 34 35 37 38 38 39 39 39 39 40 40 42 41 40 41 38 36 40 42 46 49 51 53 55 57 58 60 62
28 27 26 25 25 26 25 23 23 24 25 26 28 31 35 36 36 36 38 41 41 40 40 38 36 35 35 36 37 34 36 39 41 45 48 51 53 56 57 58 60 61 63

GFSGL_500_spd_066.txt.gz
Wind_Speed
46 45 44 47 52 56 59 58 60 57 54 52 50 49 48 48 48 47 46 46 47 46 46 45 45 46 46 45 45 44 42 39 39 38 40 40 39 36 34 32 32 30 29
43 44 47 48 45 41 46 47 48 47 49 52 52 53 51 52 52 51 50 49 48 47 45 46 48 48 48 46 43 42 41 39 37 36 35 35 32 31 30 30 29 27 24
37 41 44 41 41 41 42 43 47 48 48 47 47 48 48 49 50 51 50 49 49 45 45 45 46 46 45 46 42 40 37 37 34 35 31 26 26 27 27 27 26 26 25
38 41 43 45 45 46 47 49 50 50 50 50 49 47 46 45 45 44 43 41 41 42 42 43 45 47 47 44 41 37 34 34 33 29 27 26 27 27 26 25 25 26 27
41 42 42 43 45 47 50 50 51 51 50 46 46 45 43 43 44 45 43 43 43 44 44 44 44 42 41 38 34 32 33 31 28 27 27 25 26 26 26 27 28 29 28
42 43 44 44 44 46 47 46 47 47 46 45 44 46 46 44 44 43 43 42 44 43 43 42 39 36 32 31 30 32 31 28 26 26 25 25 26 26 27 28 30 30 29
41 40 40 41 40 39 39 40 41 42 43 45 46 45 47 46 47 45 40 33 32 33 34 33 31 29 27 30 33 29 28 28 26 26 25 25 26 28 28 31 31 31 30
33 32 34 34 35 36 37 38 39 41 45 48 47 44 44 45 43 46 45 47 41 37 36 31 30 30 31 30 28 28 28 27 27 25 27 26 26 28 28 30 30 31 32
32 32 33 33 34 38 41 42 44 44 41 40 40 41 41 36 32 33 38 37 40 45 34 31 29 29 30 28 28 28 29 27 26 26 27 28 28 29 30 30 29 30 32
33 34 31 33 38 41 42 42 40 39 40 40 41 43 39 34 31 32 32 34 28 27 27 27 30 29 29 30 29 28 28 27 26 27 29 31 31 32 33 32 33 33 35
35 33 32 33 34 33 35 36 35 34 32 31 31 35 35 34 32 23 24 25 27 27 26 26 27 28 31 30 29 29 28 27 26 28 31 33 33 34 35 36 35 36 37
34 33 36 36 34 32 32 30 30 30 25 26 29 29 28 32 31 23 21 20 20 22 24 26 29 31 31 31 31 31 29 28 28 30 34 36 36 37 38 39 38 38 38
32 33 33 32 30 29 29 28 30 28 29 28 28 27 28 27 23 24 25 23 26 24 24 27 30 30 30 31 32 32 30 30 34 34 37 39 39 40 40 40 40 39 39
29 32 31 30 30 27 24 24 27 24 25 27 26 27 25 25 26 25 26 26 25 25 26 28 30 30 30 31 33 34 34 34 35 38 39 39 40 41 41 41 40 39 39
31 30 30 31 33 31 28 22 22 23 23 23 25 26 25 25 24 26 26 24 25 26 28 28 29 30 32 34 36 37 36 37 39 40 39 39 40 41 41 41 40 40 41
27 22 31 32 33 29 27 24 23 22 24 23 23 26 26 26 24 24 24 26 27 29 30 31 32 33 35 36 37 37 38 39 39 38 38 38 38 39 41 41 41 41 43
26 23 21 23 21 21 24 28 26 24 21 21 22 23 25 25 25 25 25 26 28 29 30 31 33 36 37 37 37 38 39 39 38 38 38 38 39 40 41 43 43 43 44
28 25 25 23 19 20 28 29 24 28 24 23 22 21 21 22 24 26 27 27 28 29 31 36 39 37 35 38 39 39 39 40 41 41 41 40 41 42 43 43 43 44 45
32 31 29 28 27 26 24 22 28 28 32 30 26 25 25 26 27 28 29 30 31 34 36 35 36 38 40 42 41 41 43 45 43 43 43 44 42 43 45 45 46 45 43
35 35 33 32 32 32 30 28 24 23 25 25 25 27 28 30 32 33 34 35 37 38 40 40 40 42 43 44 45 48 49 46 47 45 43 43 44 46 46 46 44 40 40
40 36 33 33 34 34 34 33 31 30 31 31 31 32 32 32 33 33 34 35 37 39 41 42 44 46 48 50 51 52 51 49 47 44 43 46 47 48 47 42 38 41 44
42 41 38 36 34 33 34 33 31 31 31 31 31 31 31 31 31 33 34 36 38 40 41 43 44 46 48 50 50 49 49 48 46 47 46 47 47 47 40 39 43 45 49
43 41 39 38 38 36 33 31 30 30 30 30 31 30 29 31 32 33 33 32 33 34 36 38 41 43 44 44 45 46 45 42 43 45 44 45 45 40 40 44 46 48 50
43 38 36 36 36 36 35 34 32 32 31 29 28 29 31 31 29 29 30 31 34 36 38 39 41 41 41 42 42 42 42 43 44 43 43 43 39 41 43 45 48 50 53
37 34 33 32 31 30 29 29 29 28 28 27 28 27 26 26 27 28 31 34 37 40 41 42 43 43 41 39 40 40 39 39 39 39 39 37 41 43 45 48 50 52 55
31 30 30 30 28 28 28 27 26 25 25 25 24 24 24 26 29 33 35 36 38 39 42 42 41 39 37 37 38 38 38 36 36 36 36 39 43 46 48 51 53 55 57

GFSGL_500_spd_069.txt.gz
Wind_Speed
41 40 44 48 51 52 52 47 49 54 60 58 56 55 55 58 60 53 51 50 48 48 48 46 44 44 42 41 42 43 42 43 43 43 41 38 36 35 36 32 27 23 24
39 40 39 44 45 48 43 41 45 41 42 48 50 58 58 57 55 52 52 51 50 49 49 49 46 45 44 44 45 45 44 43 42 42 39 35 33 32 33 28 25 24 23
31 31 32 37 39 41 41 42 41 43 44 45 44 47 48 47 48 46 44 45 42 42 43 44 43 42 42 43 42 45 46 44 43 39 34 32 31 29 28 27 26 24 23
37 37 37 38 38 38 41 44 43 42 45 46 47 47 47 49 50 47 43 43 43 43 43 44 43 43 44 45 45 46 47 43 38 34 31 31 28 27 27 27 26 24 24
38 39 40 41 41 43 44 44 45 46 46 48 49 48 48 46 48 47 46 45 43 43 44 46 45 46 46 46 46 44 41 35 32 31 29 27 28 25 26 25 25 24 24
31 33 35 39 42 45 47 47 46 45 46 45 46 46 46 47 45 45 46 47 48 44 42 40 42 40 40 37 36 34 36 31 27 29 27 27 27 26 25 25 24 24 26
30 31 32 37 42 44 46 46 45 44 43 41 42 43 44 46 48 48 47 47 44 45 44 39 36 33 31 33 30 30 28 29 28 27 28 26 26 26 24 26 26 25 25
34 35 35 33 34 38 39 40 41 41 41 41 41 43 43 45 46 48 45 43 42 42 45 46 46 39 37 32 30 29 28 27 27 28 26 25 27 27 25 26 27 28 27
37 37 37 36 36 36 38 38 39 41 42 43 44 46 47 46 44 40 41 39 39 35 38 44 47 40 40 30 29 28 28 29 28 28 26 26 28 26 26 28 29 29 30
40 39 39 39 37 36 36 37 38 40 41 41 40 40 42 41 41 40 42 40 37 37 35 37 34 32 31 29 27 26 28 29 31 28 28 28 28 27 27 29 30 31 32
37 37 38 38 35 36 37 36 36 35 36 36 35 35 34 33 29 33 36 39 35 29 29 29 29 29 28 24 24 27 28 30 30 30 30 30 28 27 30 31 32 33 34
33 34 35 37 37 37 39 37 35 33 33 34 31 31 30 31 29 29 29 29 29 26 22 20 20 20 22 25 26 28 30 31 31 32 33 33 32 29 32 35 36 36 36
31 31 32 33 34 35 34 34 34 32 31 30 26 27 31 28 26 26 30 34 29 22 21 22 22 25 26 26 28 30 32 32 31 33 35 37 36 36 36 36 36 36 37
31 31 30 30 32 33 32 32 31 29 28 27 26 25 25 25 24 24 24 24 25 24 27 30 28 25 27 28 30 30 31 31 33 35 37 38 38 37 36 35 36 38 38
30 30 31 31 33 33 33 33 33 30 29 25 26 25 23 23 22 23 24 24 24 25 28 27 26 27 29 30 30 31 32 34 36 37 37 37 36 37 35 34 37 37 38
32 29 29 28 25 25 32 35 36 32 28 22 23 24 23 22 21 22 22 22 23 23 23 24 26 27 28 29 29 30 32 34 34 35 36 36 36 35 35 37 37 37 39
34 32 29 28 28 24 23 20 24 27 28 24 25 22 20 21 21 20 22 22 22 22 23 24 26 27 28 29 32 36 37 34 34 36 36 36 36 38 40 41 41 40 41
36 35 33 30 28 26 23 22 15 22 25 28 27 26 22 22 22 22 22 22 24 25 26 27 28 29 30 33 35 33 33 36 38 38 39 40 42 43 42 43 43 43 43
38 37 37 34 32 31 28 25 23 22 21 26 26 29 29 26 26 27 26 26 27 28 29 31 33 34 38 39 40 40 39 40 41 41 43 45 46 45 44 45 45 44 46
41 40 39 38 35 34 33 31 29 28 26 25 22 28 30 31 28 28 29 30 32 33 34 35 37 38 39 41 42 43 45 47 50 51 51 49 48 48 47 47 47 47 47
45 43 42 39 38 35 35 34 34 33 31 29 28 26 24 27 29 31 32 33 34 34 35 36 37 38 39 40 42 43 45 48 50 53 54 52 51 50 48 48 48 48 47
47 48 44 43 41 39 35 34 32 32 31 31 32 33 34 34 34 35 34 34 33 32 33 35 35 35 35 36 38 39 40 42 44 45 45 46 46 45 46 47 46 45 47
48 45 47 43 43 41 39 38 35 33 31 31 31 32 32 31 31 32 31 31 31 31 30 31 33 34 37 39 40 41 44 46 44 43 42 42 43 45 44 44 44 44 43
47 48 49 47 46 43 40 39 38 36 34 32 31 29 29 30 31 29 28 28 28 28 30 33 36 39 43 44 45 47 47 45 43 39 39 38 38 39 41 41 42 42 43
43 42 38 41 45 43 41 39 34 34 33 32 32 32 31 29 27 26 25 25 27 30 32 33 34 37 39 41 43 43 42 41 39 37 38 38 37 37 38 37 39 42 46
31 30 33 36 40 41 40 35 30 28 28 29 28 28 25 23 22 23 24 25 25 26 29 32 34 37 38 39 38 37 35 34 33 32 31 33 33 34 37 40 43 46 49

GFSGL_500_spd_072.txt.gz
Wind_Speed
40 43 43 45 43 45 42 47 56 62 64 59 58 59 60 62 64 61 61 60 59 58 57 59 56 53 52 51 50 49 46 46 47 44 44 44 44 43 43 41 37 34 30
28 29 33 38 43 44 46 48 52 53 51 50 51 46 44 46 47 49 50 44 51 58 59 56 53 53 52 50 49 48 45 45 46 46 45 46 45 45 42 38 35 31 28
29 29 30 31 32 34 38 40 43 44 43 45 46 43 43 45 48 49 48 48 49 48 45 44 44 43 45 45 45 44 45 46 47 48 47 45 45 42 39 34 32 31 29
33 34 34 36 36 37 39 40 41 42 42 41 43 44 46 46 48 49 48 47 47 47 46 45 45 43 44 43 44 47 48 51 51 48 46 43 39 37 33 32 30 30 29
34 35 37 38 40 41 42 44 45 47 47 47 48 47 48 48 48 49 47 47 46 47 46 45 45 45 46 47 47 48 49 48 46 42 39 37 32 32 31 30 31 28 27
34 34 35 35 36 37 37 39 42 45 46 48 49 49 49 48 48 48 47 48 48 48 49 50 51 51 50 43 37 43 43 40 35 32 36 36 30 30 29 30 29 27 25
33 35 36 35 33 35 37 37 39 43 45 47 47 49 49 49 48 48 48 47 47 49 51 50 48 49 44 44 42 41 35 35 36 33 31 29 30 27 29 31 27 26 25
36 37 37 38 38 38 40 40 38 36 36 38 42 44 46 46 46 47 47 46 47 48 46 46 46 44 43 44 49 43 42 35 31 30 31 25 28 29 31 29 28 26 26
42 42 42 41 41 40 42 42 41 39 38 39 40 41 42 43 45 46 47 48 48 45 43 41 43 41 39 42 42 43 42 41 32 25 24 28 26 30 30 28 28 28 28
43 44 44 43 44 43 44 44 41 40 40 41 40 38 39 40 41 42 41 40 39 40 42 40 41 39 38 38 38 36 38 35 28 25 30 27 28 30 30 30 29 28 28
41 41 41 41 42 42 41 41 40 39 41 42 39 37 39 37 36 37 35 34 35 36 38 36 36 33 37 34 33 35 31 25 24 29 28 27 30 31 31 31 32 34 30
37 37 37 38 39 39 39 39 39 40 41 41 39 38 38 36 34 33 32 34 33 33 31 30 29 31 24 29 28 26 24 24 27 27 28 30 31 33 33 34 37 38 35
35 35 35 36 38 37 36 36 36 38 38 36 38 38 38 34 32 29 32 30 27 27 30 32 30 25 22 19 21 23 25 27 28 28 30 31 33 33 35 38 41 40 37
36 35 35 35 35 35 34 33 34 35 34 34 33 35 35 30 28 28 26 25 24 26 24 25 23 21 23 26 27 26 27 29 30 30 30 31 32 35 37 36 35 36 36
36 36 35 35 34 34 35 35 36 36 34 35 36 35 35 29 29 28 27 23 21 21 21 22 24 25 25 26 25 26 27 27 27 28 28 29 31 33 33 35 36 36 35
38 38 36 36 36 34 33 29 29 28 34 37 37 38 35 28 25 26 24 23 21 20 20 20 20 21 22 22 23 23 24 25 27 29 31 35 35 34 35 36 36 35 37
38 39 38 37 37 35 33 32 30 29 27 27 29 30 29 25 25 27 26 24 21 20 21 21 22 23 24 25 27 28 29 29 31 36 38 34 35 38 37 38 40 41 43
37 36 36 38 38 37 35 32 30 30 27 22 24 29 31 26 28 26 26 24 24 24 24 24 24 25 27 28 29 31 32 34 37 38 39 39 40 41 41 43 46 47 47
41 40 39 37 37 38 38 36 36 33 29 26 19 18 26 28 28 28 26 25 26 25 25 27 29 30 31 32 34 35 37 38 39 41 43 44 45 48 50 52 53 53 51
39 40 40 39 39 39 39 38 37 36 32 30 26 24 22 21 26 30 30 29 29 28 29 31 32 33 34 35 35 36 38 39 40 42 40 39 41 43 47 50 53 55 56
47 44 42 44 42 39 38 38 38 38 37 35 33 30 28 27 24 26 30 29 28 30 31 32 33 34 34 34 35 35 35 35 37 39 39 41 43 47 49 48 49 48 48
36 42 48 48 46 45 42 37 39 39 37 36 36 35 32 30 31 31 32 32 34 34 34 34 34 33 34 31 31 32 36 39 41 43 44 47 49 49 47 46 44 44 45
40 38 42 46 48 46 44 41 38 40 40 37 35 34 33 31 32 34 35 35 35 33 34 33 32 30 29 30 34 37 40 41 43 45 47 50 49 46 42 41 43 43 43
42 41 40 43 45 47 46 44 40 39 41 41 39 37 35 33 31 31 32 31 30 33 32 28 27 27 30 32 33 36 39 41 43 44 43 43 42 42 42 43 43 41 39
44 40 37 41 45 45 46 46 42 41 40 40 39 39 38 36 33 32 32 32 31 28 25 25 26 27 28 30 34 37 39 40 41 39 36 36 36 36 36 37 38 37 38
44 40 39 42 43 44 44 44 42 41 40 38 36 37 36 34 33 33 31 28 24 23 24 24 24 26 29 32 36 39 40 39 39 38 36 36 35 35 36 37 39 41 43

GFSGL_500_spd_075.txt.gz
Wind_Speed
37 38 39 42 44 46 49 51 49 48 47 45 51 52 54 56 60 61 64 65 63 61 59 55 56 59 57 54 58 57 55 55 52 51 50 49 46 47 47 48 46 44 41
35 36 37 39 41 43 44 46 47 48 50 49 50 52 53 54 53 49 52 54 48 47 46 47 47 47 46 45 45 47 48 47 48 47 47 45 45 47 47 47 45 42 38
37 37 38 38 36 35 35 35 35 34 35 39 42 46 48 47 46 44 43 43 46 47 46 46 46 45 47 47 44 45 45 46 45 47 47 48 48 48 49 49 42 37 35
40 39 38 38 37 37 37 39 40 41 41 41 42 43 45 45 45 45 46 47 47 47 48 49 47 46 45 45 45 45 47 48 48 49 49 50 49 47 44 37 35 34 32
42 41 41 41 41 41 41 42 43 44 44 45 47 47 48 48 48 49 49 49 48 47 48 47 47 46 46 47 47 48 48 49 47 45 42 42 42 42 39 35 32 30 31
43 42 42 41 41 41 42 43 44 44 44 43 41 44 48 50 51 50 50 48 47 47 46 46 45 45 46 47 49 49 48 45 41 44 42 39 35 33 30 33 32 31 28
40 41 41 41 42 40 40 41 39 38 39 40 40 40 40 41 43 44 44 44 44 44 45 46 46 46 45 47 46 45 45 44 44 43 40 36 34 35 34 26 28 28 29
43 43 42 41 41 40 41 44 44 42 41 42 43 43 41 39 37 38 39 40 42 44 45 46 48 49 48 46 43 42 42 43 41 45 44 38 35 35 32 31 30 29 29
44 43 43 43 44 44 44 44 44 43 44 46 45 44 43 42 40 39 40 41 42 44 45 44 44 43 43 43 40 43 43 38 41 42 40 37 44 34 34 30 25 27 29
44 46 46 47 48 48 48 48 47 47 47 48 48 46 44 44 42 40 40 41 41 41 40 40 41 40 38 38 37 36 37 36 36 37 37 37 32 27 25 25 24 28 29
47 48 48 47 47 47 47 48 48 47 47 46 47 46 45 45 43 41 41 41 41 38 37 35 36 37 37 35 35 33 33 33 33 31 35 31 26 24 28 26 28 29 30
46 47 47 46 45 45 44 45 46 45 44 44 45 45 44 43 42 41 41 41 40 38 34 35 35 31 29 29 30 32 27 25 25 28 28 25 24 28 28 28 28 30 33
44 45 44 43 42 42 41 41 40 41 42 42 42 41 40 40 39 39 39 40 38 33 32 32 29 28 29 31 31 26 22 23 23 21 21 24 27 28 28 29 30 31 33
42 43 41 41 41 41 39 38 38 39 39 39 38 38 38 36 36 37 37 36 33 32 29 27 24 23 21 21 18 20 21 21 22 23 25 26 26 25 26 27 28 29 32
44 43 42 40 39 40 39 39 36 36 38 38 38 39 38 36 38 37 36 35 32 29 29 26 22 20 22 20 20 18 19 22 22 22 23 25 26 27 27 29 33 35 35
47 46 45 43 40 38 37 38 38 37 36 36 35 37 38 39 38 35 35 31 30 28 27 26 22 20 20 19 19 19 22 24 24 25 26 27 28 30 33 37 35 34 36
43 43 43 44 43 40 38 38 37 38 36 36 35 32 31 33 32 35 34 29 29 28 28 26 23 22 22 21 22 25 25 26 28 29 30 31 32 35 37 37 38 39 41
42 41 40 40 40 39 40 40 38 37 36 35 36 33 32 28 29 29 30 29 28 27 29 28 26 24 23 24 26 26 27 29 30 32 34 36 38 39 39 41 42 43 45
40 41 42 42 42 39 38 38 39 38 37 36 36 32 31 29 24 27 32 27 29 28 27 26 26 26 27 28 27 29 31 33 34 35 36 38 39 38 38 39 39 39 41
43 41 39 41 43 42 41 39 38 37 37 36 36 34 34 30 24 21 25 30 29 29 27 26 28 29 28 28 30 31 32 34 35 35 36 35 34 36 40 42 43 45 45
38 38 45 42 39 40 41 42 40 39 37 36 36 36 34 31 28 27 26 23 27 30 31 32 28 28 29 30 30 32 32 33 33 32 33 36 40 44 47 49 50 52 52
48 43 39 40 43 42 40 41 40 39 37 34 35 36 36 33 33 31 30 29 28 25 28 29 29 31 32 31 32 32 30 29 31 34 36 39 42 44 48 50 50 49 49
52 48 43 39 37 39 44 44 42 41 42 39 36 36 36 33 32 32 31 31 30 32 33 34 33 33 32 32 31 28 28 30 31 33 38 41 44 46 47 46 44 42 42
54 50 46 41 39 37 34 39 42 44 42 40 39 36 36 36 34 32 31 30 30 32 32 31 30 30 31 28 26 28 27 29 32 36 40 42 43 43 42 41 40 38 36
54 52 48 43 39 37 38 32 34 39 41 42 39 37 36 37 36 35 34 33 33 30 30 31 31 30 27 26 26 25 27 31 34 36 38 40 40 40 40 41 41 40 40
54 51 49 45 41 38 36 33 31 36 39 41 42 40 38 37 36 37 35 34 34 34 33 32 28 26 24 24 25 27 29 28 29 31 33 36 39 41 43 43 43 44 44

GFSGL_500_spd_078.txt.gz
Wind_Speed
30 33 35 36 36 35 36 36 39 41 43 45 48 49 49 49 50 50 52 52 55 53 56 58 53 52 52 52 50 47 46 45 44 46 46 47 47 47 46 47 45 44 44
36 38 39 38 38 38 38 40 42 42 42 44 45 45 46 47 49 51 53 52 51 50 48 48 48 49 49 46 45 44 45 45 44 45 44 45 45 47 47 46 45 42 40
39 39 39 39 39 39 39 38 38 38 37 36 35 36 37 38 39 40 41 41 42 43 44 45 46 46 47 47 48 47 45 45 44 44 44 45 46 47 47 44 43 43 42
45 45 45 44 42 41 40 40 39 38 38 39 39 41 41 42 44 44 45 46 47 48 49 49 49 48 47 46 47 47 46 45 44 44 43 44 44 44 42 39 38 38 36
47 46 46 46 45 44 43 44 43 42 42 43 44 45 45 46 47 47 45 46 48 50 50 49 48 47 45 44 44 44 43 43 43 43 43 43 40 39 36 41 37 34 34
55 54 52 49 49 48 47 46 45 45 44 44 44 45 47 46 44 41 41 42 43 44 44 44 43 43 42 41 41 42 43 42 42 43 42 41 41 41 38 38 32 30 31
52 51 49 50 49 48 47 47 46 45 45 43 42 42 43 42 42 42 42 43 41 40 40 40 41 41 41 42 42 44 45 46 44 42 37 37 39 42 38 42 30 31 30
51 50 49 48 48 48 47 47 47 46 44 43 43 44 47 46 45 45 44 44 44 43 41 40 40 40 42 43 43 44 41 39 39 37 38 40 38 39 37 35 30 31 25
49 50 49 47 47 47 48 48 47 44 43 43 43 45 46 47 48 47 47 46 45 45 44 42 41 42 41 40 40 39 37 36 35 33 37 31 34 35 39 34 32 33 28
51 50 50 50 51 48 48 47 47 46 46 47 47 49 49 49 50 49 48 47 46 44 45 44 42 41 39 36 35 36 37 35 32 33 30 34 33 35 34 34 36 31 28
53 53 54 55 52 50 48 48 49 50 50 48 48 49 49 49 49 50 48 46 45 44 45 44 41 40 37 33 33 35 31 27 25 29 31 26 26 29 33 35 30 21 25
53 52 52 52 53 52 52 51 50 50 49 49 49 49 48 48 48 47 46 45 44 43 42 41 39 38 32 31 33 30 26 24 26 25 24 24 24 27 27 23 22 25 25
52 52 50 50 51 51 51 50 49 48 47 46 47 46 46 44 44 44 43 42 40 39 39 38 37 33 31 30 29 26 21 20 17 17 18 19 18 19 20 22 24 25 24
50 50 49 48 49 49 49 49 47 46 45 45 44 43 43 43 41 41 40 39 37 37 35 34 33 31 29 28 24 19 17 17 19 18 16 17 18 19 20 22 23 23 24
54 51 50 50 48 48 47 47 47 46 44 44 43 42 41 39 40 40 42 39 37 38 36 35 32 29 27 28 24 20 19 20 19 18 18 19 20 21 21 23 25 26 26
53 57 54 51 50 49 48 46 45 45 44 44 42 40 38 37 38 39 38 39 40 37 32 32 30 28 27 25 24 22 22 22 20 21 20 22 22 23 25 27 27 28 31
48 49 49 53 50 49 49 48 46 44 42 41 40 40 39 37 35 33 33 32 34 34 35 32 29 27 28 25 24 24 23 23 22 23 25 26 25 27 28 30 32 35 37
50 48 47 48 50 49 47 46 45 45 43 41 40 40 39 38 37 34 33 30 29 26 28 30 28 27 27 27 25 25 24 24 25 26 28 28 30 32 33 34 35 36 37
53 49 47 44 49 48 47 45 42 43 45 44 42 40 39 37 34 32 31 29 26 27 28 30 30 28 27 26 26 25 25 26 27 28 30 30 32 33 33 33 33 34 36
61 56 49 46 45 50 47 47 45 45 43 42 43 42 41 38 34 34 33 29 25 25 33 29 32 29 27 27 28 27 27 28 28 29 32 32 31 29 30 31 33 36 39
64 63 57 49 46 47 49 46 46 46 44 40 39 40 40 37 34 33 30 29 27 25 23 28 30 32 31 27 26 27 29 29 30 32 31 29 28 29 29 31 36 40 44
60 65 65 57 50 46 47 46 45 47 44 46 40 38 38 36 35 34 31 29 27 25 24 25 22 25 28 29 29 29 28 29 31 30 28 28 28 29 32 36 40 42 43
54 63 62 61 54 47 41 45 45 43 43 41 39 38 36 32 30 34 33 31 30 27 27 27 27 27 29 32 33 32 31 31 30 27 28 28 29 32 35 37 38 38 39
49 58 60 60 58 51 45 42 40 42 42 40 39 40 40 37 34 31 33 33 30 29 28 27 28 29 30 30 30 30 32 29 27 27 27 28 31 33 32 31 33 35 37
46 54 60 58 59 57 50 43 41 41 40 41 42 40 39 37 35 33 33 33 32 29 29 29 29 29 28 28 30 30 29 27 27 28 28 30 30 31 34 37 38 40 41
37 49 58 57 57 57 53 48 42 39 35 35 37 40 40 40 38 35 33 32 33 32 31 30 30 31 31 30 29 29 26 27 29 30 31 33 34 35 38 41 43 45 46

GFSGL_500_spd_081.txt.gz
Wind_Speed
39 35 36 36 37 36 36 38 36 34 34 36 38 39 40 40 41 44 46 45 45 47 48 49 50 50 51 51 49 49 49 49 48 46 44 45 45 45 45 45 45 44 42
37 37 37 33 32 33 34 35 35 36 38 39 40 40 41 42 40 36 33 33 35 38 39 41 42 42 43 44 45 45 45 46 46 44 44 44 44 45 45 45 46 45 41
43 40 37 37 37 39 40 42 41 40 40 40 39 39 38 36 35 35 36 37 40 41 42 44 46 47 49 50 50 50 49 49 47 46 45 44 44 43 43 43 42 41 37
43 44 44 44 43 43 44 45 44 43 44 43 43 42 40 39 39 40 42 42 42 43 45 47 48 48 50 51 51 50 49 48 46 44 42 41 41 41 39 40 40 39 38
46 47 48 49 50 50 49 50 49 49 46 44 45 45 45 43 43 43 43 43 43 44 44 41 41 41 42 42 43 43 43 43 42 41 41 41 40 39 40 40 38 37 36
55 56 55 54 54 55 55 54 53 50 48 47 47 46 45 46 45 44 42 41 41 40 40 40 41 40 40 41 41 40 40 40 41 41 42 41 42 40 39 36 35 36 40
59 57 58 61 61 59 59 57 55 54 53 51 51 48 47 45 45 43 40 39 40 41 42 43 43 43 44 43 41 40 40 40 40 40 40 38 36 34 34 37 36 36 39
56 56 55 54 53 54 53 53 52 51 50 50 49 49 47 46 46 44 43 43 45 45 46 47 45 44 45 46 42 40 40 39 38 38 37 36 34 32 32 30 29 33 34
56 56 56 56 55 53 51 50 49 49 49 50 48 48 46 46 45 45 45 45 44 45 45 46 45 45 46 45 42 40 39 38 36 35 35 34 32 31 26 28 27 34 35
56 55 57 58 56 55 54 52 49 49 48 49 49 48 47 47 47 47 47 46 46 47 47 46 47 46 45 44 41 38 38 36 33 33 29 28 27 26 27 26 26 23 31
56 56 56 57 57 58 55 50 49 49 48 49 50 49 48 48 47 48 47 46 46 47 47 46 46 46 44 42 39 37 36 32 31 28 23 24 25 22 23 24 22 24 28
57 57 56 58 55 53 54 54 54 53 53 51 50 49 49 47 47 47 47 47 46 47 46 43 42 42 40 39 37 35 31 31 29 29 26 22 17 16 17 16 17 19 18
53 52 53 52 52 54 54 52 53 53 52 52 51 49 48 48 48 47 46 44 44 42 41 41 39 38 36 35 34 32 29 27 28 24 19 15 14 14 14 14 15 17 18
58 57 55 53 51 51 50 52 53 51 50 49 48 47 47 47 47 45 44 42 41 42 40 38 36 36 35 33 32 29 27 26 25 20 20 18 18 16 17 18 20 20 20
54 54 54 55 55 54 51 51 51 51 49 48 48 48 48 47 46 44 42 42 41 39 39 39 39 36 34 34 31 28 27 26 25 24 22 19 19 19 18 19 19 20 21
53 55 54 52 50 51 54 53 50 51 51 49 47 47 47 47 45 43 42 40 41 39 38 39 38 38 33 30 29 26 28 27 25 26 22 21 20 20 20 21 22 24 26
57 58 55 54 53 50 49 49 54 51 52 50 47 45 44 45 45 43 42 39 37 36 31 33 31 34 35 31 30 26 28 27 27 26 23 21 22 22 22 24 25 27 28
56 56 60 57 54 52 50 48 48 54 50 50 48 46 44 43 43 44 42 39 37 37 36 32 31 32 30 29 28 27 28 27 26 25 24 24 23 24 26 28 29 30 31
46 47 52 59 58 54 51 49 47 50 52 50 48 47 45 43 42 42 41 39 38 35 33 31 30 29 29 29 28 27 27 26 26 25 25 25 26 28 29 30 30 30 29
51 49 47 52 59 59 54 50 49 48 52 48 46 42 45 44 43 42 41 39 36 34 32 29 31 30 31 29 28 29 28 27 26 26 27 29 29 29 30 30 30 28 28
50 52 52 50 60 60 59 53 49 50 50 51 47 44 41 47 46 43 40 39 37 36 34 31 29 24 31 33 30 31 30 27 28 29 31 30 30 31 31 30 28 28 28
43 43 46 50 56 63 61 58 51 50 49 52 52 52 44 47 46 43 41 40 38 35 33 28 30 27 20 23 26 31 30 30 31 31 30 31 32 31 30 29 28 29 32
33 35 37 43 52 63 62 60 57 50 50 50 53 55 50 46 41 39 37 37 36 36 35 30 28 26 25 23 21 24 29 31 32 32 31 32 31 31 29 28 30 32 32
32 27 29 36 48 59 63 61 58 51 49 49 51 50 50 48 45 37 33 31 31 34 35 33 30 29 27 26 27 28 30 31 31 30 31 31 30 29 30 30 32 32 33
24 22 27 28 37 53 59 60 59 53 45 48 48 47 46 43 39 39 37 34 30 28 30 33 32 30 28 27 28 29 29 29 29 31 30 30 29 30 32 33 35 36 38
24 27 30 20 25 45 54 57 58 53 46 45 47 45 43 40 38 38 37 37 33 31 30 30 32 31 30 29 29 29 29 29 29 29 29 27 29 33 34 37 39 39 42

GFSGL_500_spd_084.txt.gz
Wind_Speed
38 39 37 36 35 34 36 37 38 39 40 40 38 39 40 41 42 41 37 36 38 39 42 43 36 35 35 35 36 38 40 42 43 44 45 47 48 48 48 47 47 47 47
39 39 40 39 39 39 40 41 41 42 40 40 40 39 39 39 40 39 40 40 39 36 37 35 34 37 38 38 40 42 45 47 49 49 50 50 51 50 50 48 47 47 46
46 45 44 43 41 41 42 40 38 38 38 40 39 40 41 41 40 40 41 40 40 41 38 37 38 39 39 39 41 42 42 42 43 45 45 47 46 46 46 46 44 43 43
45 46 48 48 47 47 47 45 44 43 42 42 43 42 42 41 42 43 42 39 39 39 39 41 42 41 42 40 42 42 38 37 38 40 41 42 43 44 44 44 44 42 41
45 46 46 48 50 51 50 48 47 47 46 45 45 46 46 47 47 45 43 42 41 41 42 42 42 41 38 41 42 40 40 42 43 42 41 41 42 43 43 43 43 44 43
51 52 53 52 51 51 50 50 52 52 52 53 51 51 50 48 47 47 48 48 45 45 46 42 42 40 40 43 44 44 45 46 45 42 41 42 43 42 42 43 41 40 39
55 57 60 64 64 62 60 59 60 59 59 57 55 55 54 53 51 51 53 51 49 47 47 46 43 41 41 44 46 46 47 46 45 43 41 40 40 40 41 40 38 37 35
57 59 60 61 64 66 66 63 59 58 58 59 61 60 59 58 57 57 55 53 50 48 48 45 43 42 43 43 44 46 46 46 45 44 40 39 38 37 37 36 34 35 33
56 57 58 59 59 60 60 60 59 58 56 53 53 54 53 53 53 53 52 51 49 47 47 45 44 43 43 45 45 45 44 45 44 43 39 38 37 37 37 33 33 33 31
61 60 59 57 56 56 56 55 55 55 56 56 53 51 51 51 52 52 51 50 49 48 47 46 45 46 46 43 44 45 44 45 45 42 38 36 36 35 32 28 29 28 28
67 65 63 60 59 58 56 54 54 57 55 55 52 53 51 49 49 50 51 50 49 46 47 46 45 46 43 43 44 45 44 42 40 38 37 34 34 31 31 30 26 23 21
62 61 60 58 56 55 57 55 54 53 54 54 55 50 48 47 47 49 49 49 47 47 47 45 44 44 43 42 42 42 39 37 37 36 34 33 31 29 30 27 25 24 21
60 58 57 57 57 56 54 52 51 51 53 54 51 51 53 53 50 49 48 47 47 45 43 44 43 44 42 40 40 38 36 34 35 34 32 31 28 25 24 23 20 17 16
56 55 58 57 55 57 55 54 53 50 49 49 50 52 50 50 49 49 49 47 46 45 44 44 44 42 41 40 38 36 35 35 34 32 30 28 27 26 25 22 19 17 17
57 52 50 52 53 54 57 56 53 54 51 52 49 51 52 49 48 48 47 47 45 45 44 43 41 40 40 38 39 37 34 33 33 31 30 29 29 26 23 23 21 21 21
62 58 53 50 55 57 57 56 55 52 51 54 53 51 49 48 48 48 48 46 45 44 42 41 39 40 40 40 40 38 34 31 30 30 30 30 30 27 25 24 23 22 21
68 62 56 53 52 56 60 59 54 53 48 51 53 54 50 48 47 46 46 46 45 43 40 39 39 38 38 37 34 33 36 34 31 30 30 29 29 28 26 25 24 24 24
48 50 50 48 49 51 57 60 59 54 51 51 45 51 52 49 49 46 45 45 43 42 41 40 38 38 37 34 34 34 34 32 30 32 31 29 27 27 27 26 26 26 27
41 43 45 45 43 54 52 56 58 57 53 50 47 43 41 51 48 48 45 43 42 42 42 40 39 38 37 36 32 31 32 31 31 31 30 29 28 28 27 28 28 29 31
42 43 42 43 45 46 56 58 56 56 53 52 51 49 47 51 47 46 45 42 39 39 40 40 39 37 35 33 34 32 32 30 30 31 31 29 30 30 30 29 31 32 34
46 46 47 49 47 45 49 57 64 58 55 53 50 49 47 51 47 41 42 41 36 37 39 39 37 34 33 33 32 32 35 31 32 32 32 32 32 31 30 32 33 35 35
51 51 49 49 43 41 44 50 59 64 61 54 51 49 49 48 42 44 41 38 37 39 40 39 38 36 36 35 33 32 34 38 33 33 34 34 32 32 33 33 35 37 35
44 43 43 37 33 35 35 45 53 59 63 59 53 50 51 49 45 42 41 40 41 40 41 39 38 38 36 31 32 29 25 31 35 33 34 32 33 36 36 36 37 36 35
37 35 29 30 28 26 30 34 52 58 59 62 55 50 49 48 55 44 43 42 41 43 41 39 38 35 34 33 33 30 27 23 24 27 30 33 34 34 33 34 35 34 34
27 24 26 24 26 26 29 30 43 57 55 61 57 50 47 49 55 58 49 41 37 36 36 34 33 33 32 31 31 31 31 31 31 31 31 31 31 32 34 35 34 32 33
20 22 21 24 28 29 29 26 35 51 53 58 56 49 44 46 49 51 55 46 40 36 33 30 28 28 30 31 30 29 29 30 29 29 30 31 32 34 33 32 31 33 35

GFSGL_500_spd_087.txt.gz
Wind_Speed
26 26 28 31 29 30 30 30 31 30 30 30 31 32 31 34 36 37 40 39 40 38 36 35 33 31 30 29 29 29 32 32 33 35 37 41 44 45 47 48 49 48 48
32 34 35 34 35 35 34 35 35 34 35 37 38 41 44 44 42 42 40 40 40 37 37 37 35 32 30 31 31 32 33 35 35 36 38 39 38 39 40 42 43 43 42
33 35 35 37 38 37 37 37 36 40 41 40 40 40 42 42 41 41 42 41 41 40 38 40 37 36 35 34 33 36 37 37 35 37 38 39 39 40 41 43 42 42 42
40 41 41 43 44 45 44 45 45 44 45 43 42 40 39 38 38 39 40 41 41 41 40 39 41 41 41 39 39 41 43 41 39 41 43 43 43 45 44 44 44 44 45
43 43 45 46 48 47 47 47 47 49 49 48 46 45 44 42 41 40 41 42 41 42 42 42 42 42 43 43 42 42 42 40 39 42 43 44 45 45 44 45 45 43 44
46 49 51 51 51 50 49 48 48 49 52 52 51 49 47 47 47 46 46 45 44 43 43 43 44 44 45 47 47 45 43 41 42 43 44 45 48 47 46 44 43 42 42
54 54 56 57 58 58 57 56 55 54 54 55 55 55 54 53 53 52 51 52 51 48 48 47 46 48 49 50 50 46 44 42 43 43 43 43 44 44 43 42 41 41 40
55 59 62 64 65 67 66 66 65 65 65 63 64 63 60 59 60 60 59 58 57 53 51 52 54 54 52 51 52 47 45 43 44 43 43 43 42 43 44 43 42 40 40
62 62 62 62 64 65 66 67 67 66 64 63 62 59 56 55 55 56 56 57 58 57 55 55 55 53 53 50 49 47 44 43 43 42 41 44 46 46 44 43 41 39 37
66 66 66 66 67 68 65 63 64 63 61 59 58 57 54 51 52 54 54 55 55 55 54 52 53 51 51 48 48 46 44 42 41 43 44 43 45 44 43 41 39 36 32
79 75 66 65 65 61 62 65 65 64 63 61 59 56 55 53 51 52 54 54 54 54 52 52 51 49 48 46 46 46 44 40 41 44 42 41 40 41 39 39 36 33 32
85 73 66 62 61 62 61 59 60 60 61 59 59 56 54 52 52 53 54 53 53 50 50 51 50 47 45 45 47 45 41 40 41 41 40 38 38 38 37 34 33 32 30
81 79 75 65 61 54 50 56 57 57 56 56 56 55 55 53 50 51 53 55 54 51 49 49 47 46 46 47 45 43 41 39 38 38 37 36 36 37 33 31 31 28 26
82 79 76 70 61 54 49 49 54 55 55 56 56 54 53 55 53 51 51 55 57 56 53 49 48 48 46 45 43 42 39 37 37 37 36 36 37 35 31 29 28 26 25
75 73 71 68 64 57 50 47 49 53 55 55 54 55 55 52 52 52 52 53 53 54 54 52 48 47 46 44 43 39 38 37 36 37 36 35 34 32 30 29 28 26 24
60 61 62 64 64 62 57 52 50 52 57 57 55 53 57 55 53 52 50 50 52 53 52 50 48 47 45 44 41 39 38 35 37 38 36 33 32 30 29 29 28 25 23
41 41 42 44 47 50 53 52 51 57 58 61 57 55 53 57 57 53 53 52 52 51 51 51 48 46 44 42 41 38 36 35 35 32 33 35 32 31 30 28 27 26 25
44 43 42 41 40 41 43 43 50 57 61 61 61 57 53 53 56 57 55 54 52 51 47 47 47 45 43 42 39 37 35 33 32 33 35 36 34 32 29 28 28 28 27
50 48 46 44 42 40 41 42 43 48 62 63 62 59 54 53 50 45 51 56 51 49 49 46 45 44 42 41 39 37 33 34 33 33 34 35 34 32 30 29 28 28 29
56 53 51 49 46 44 42 41 44 42 49 66 65 60 55 53 54 48 45 48 51 47 48 45 42 41 41 40 39 36 35 33 34 32 32 35 34 33 30 30 29 29 29
56 53 52 51 49 48 47 47 46 45 45 55 63 63 58 53 50 46 45 46 46 45 41 40 39 38 38 37 38 36 35 34 33 32 32 33 32 33 33 32 30 30 31
50 48 47 47 46 45 45 45 46 45 44 47 54 59 60 54 51 52 46 42 41 41 38 37 35 34 35 37 38 34 33 34 33 31 34 36 33 34 34 34 34 33 32
42 41 40 40 40 39 37 38 39 41 39 46 52 53 58 57 52 50 43 43 39 39 41 37 36 34 34 36 35 34 33 34 33 33 35 38 38 34 34 34 35 34 35
32 32 32 31 31 30 30 31 31 27 28 42 50 52 54 57 52 46 44 39 42 43 40 40 37 35 35 34 34 34 32 30 29 29 27 30 35 35 33 37 36 36 37
25 26 26 24 23 22 26 26 25 25 26 33 48 52 52 57 50 45 46 44 43 42 38 33 31 34 37 37 35 32 32 31 30 28 25 25 25 26 28 31 34 33 32
17 17 18 19 20 20 21 24 28 30 29 31 42 50 49 55 50 44 45 46 34 37 35 34 27 30 33 34 31 29 28 24 25 26 29 30 30 31 31 31 31 32 34

GFSGL_500_spd_090.txt.gz
Wind_Speed
16 18 18 21 19 19 22 24 24 21 21 21 22 23 29 29 31 32 27 27 34 34 30 26 28 30 29 25 26 25 24 26 27 26 28 30 31 34 34 36 37 38 38
20 21 23 23 24 26 27 27 28 27 29 33 32 32 28 31 32 28 31 33 32 34 34 36 34 32 31 32 32 29 30 29 29 30 29 30 31 33 35 37 38 41 44
22 25 27 27 27 30 30 31 31 31 32 37 37 40 41 41 42 43 42 43 45 43 43 42 41 40 40 36 31 31 32 32 33 34 36 36 37 39 38 41 43 44 46
27 30 31 34 36 38 38 38 37 39 39 40 39 40 42 42 43 41 43 43 43 44 45 46 45 45 40 39 37 35 35 37 38 38 38 39 38 38 41 44 43 46 47
33 35 38 41 43 43 44 44 44 43 44 45 44 44 46 46 45 43 43 41 40 40 40 42 42 42 41 40 38 38 39 39 40 41 41 40 39 41 42 44 43 44 43
38 42 44 45 48 50 50 50 50 50 50 48 46 45 46 45 45 45 44 43 43 42 41 41 41 41 41 40 40 40 41 42 43 42 43 40 41 41 43 41 40 40 39
39 42 45 49 53 57 59 60 60 57 55 54 53 52 50 49 49 47 48 48 48 47 46 44 43 43 42 41 43 44 43 44 46 47 46 43 42 41 41 40 39 40 43
49 51 51 54 55 57 57 59 62 66 65 62 62 60 59 59 58 56 55 53 52 53 52 51 49 49 48 47 46 47 47 50 50 49 46 44 41 40 41 41 41 42 44
60 61 63 65 66 66 66 65 65 66 68 68 65 65 63 62 60 59 58 55 55 55 54 53 52 52 52 52 52 52 54 52 50 47 47 43 41 38 39 41 42 43 43
70 73 77 79 79 78 74 71 67 67 68 70 68 66 64 61 56 54 56 55 54 55 54 54 53 53 53 52 53 53 53 50 49 47 45 42 41 39 38 41 42 39 39
74 80 83 86 88 88 88 85 77 64 61 63 65 65 67 66 61 57 54 52 52 54 54 54 54 54 55 55 53 51 51 49 47 45 44 43 40 38 39 38 37 35 37
84 86 91 92 90 86 83 81 77 70 65 58 58 63 63 64 61 60 58 56 54 53 54 55 55 54 52 51 51 50 48 47 46 42 44 42 41 39 36 36 34 33 35
89 93 95 93 91 89 86 80 70 62 58 53 51 54 63 59 58 59 59 59 57 55 54 54 53 53 50 51 48 47 46 45 44 43 44 42 39 37 36 35 33 33 31
94 91 87 82 77 74 72 70 65 60 54 51 52 54 56 59 57 56 57 58 57 57 56 57 53 51 50 51 49 46 45 45 45 46 44 41 37 36 35 35 33 30 28
81 69 60 58 57 56 57 58 57 55 52 50 54 58 59 60 60 60 59 57 57 56 58 58 54 52 49 52 54 52 47 47 47 45 43 39 37 35 35 34 30 28 27
57 52 49 47 44 42 41 43 48 51 53 53 55 57 61 61 61 62 62 58 55 54 58 50 53 53 53 51 54 55 52 48 46 45 42 38 36 36 37 32 29 27 27
52 51 48 47 45 42 40 38 36 39 41 51 56 58 63 62 62 61 61 60 57 51 55 57 52 52 51 47 46 52 52 48 46 44 41 37 37 38 36 33 28 27 27
56 55 54 51 49 46 44 42 40 37 36 38 45 56 61 64 61 59 58 54 57 58 56 51 51 52 50 50 45 46 48 46 45 43 39 37 37 36 31 33 31 30 28
61 61 61 59 56 52 48 45 43 41 39 37 35 45 52 64 62 56 55 55 49 55 57 51 42 44 48 48 48 46 48 46 44 41 38 37 36 35 34 34 34 32 30
64 63 62 59 55 51 49 47 46 45 44 41 37 37 43 55 65 60 55 55 53 44 51 55 55 51 46 45 44 43 43 43 42 40 39 37 37 34 32 33 35 34 32
51 49 48 48 46 44 44 44 44 45 45 45 43 40 40 42 57 63 57 54 55 49 44 48 54 50 44 43 44 41 40 41 41 40 39 36 36 34 31 32 34 34 34
37 36 37 38 38 38 39 40 40 40 42 44 45 46 45 43 44 55 58 54 51 55 44 45 45 45 40 42 41 38 38 39 37 39 38 36 33 32 32 34 34 34 35
29 29 29 30 31 32 34 35 35 34 35 37 39 41 44 46 43 47 52 53 51 50 40 42 37 38 39 38 35 34 33 35 36 35 34 33 32 32 33 36 35 35 35
27 26 25 24 24 24 25 25 27 29 30 31 33 36 41 45 42 44 45 52 48 49 41 42 42 40 41 39 34 34 34 34 37 34 32 29 30 31 33 34 38 37 36
24 23 21 19 18 19 19 20 19 21 25 26 22 22 23 32 37 43 44 52 50 52 43 40 41 41 40 35 33 30 29 27 25 26 25 26 28 30 28 28 32 36 33
30 29 27 26 24 22 21 20 19 19 19 21 22 24 24 26 38 41 46 53 45 43 40 40 38 37 33 30 32 28 26 27 25 26 27 26 26 25 23 22 23 25 26

GFSGL_500_spd_093.txt.gz
Wind_Speed
14 17 20 25 23 23 20 22 19 18 18 16 20 21 23 24 24 29 29 37 34 32 30 27 29 31 34 30 23 22 22 20 19 19 21 23 25 26 28 30 32 33 36
7 8 13 14 16 15 14 15 14 13 17 23 28 28 29 29 28 26 32 34 29 31 32 33 31 32 33 26 28 25 27 27 26 26 28 28 28 30 30 30 33 36 37
10 10 11 11 15 17 19 21 22 23 24 27 28 30 31 34 35 31 32 32 36 35 37 33 33 31 34 36 33 33 33 35 36 33 32 32 30 31 32 34 36 36 38
19 19 21 23 25 27 28 28 29 31 33 34 36 39 39 39 42 45 47 45 45 45 44 44 42 43 45 44 40 38 39 36 36 35 35 33 35 36 35 36 38 38 38
23 25 26 30 33 34 34 36 36 37 38 39 40 42 44 46 47 48 50 53 52 53 52 53 52 51 53 52 47 44 43 42 40 38 39 39 40 40 38 37 38 40 39
26 27 28 31 32 35 37 39 43 46 47 49 48 48 48 49 48 49 51 53 54 54 51 48 49 47 49 48 47 45 44 42 42 41 41 42 42 40 40 40 38 40 40
33 35 38 40 42 44 46 49 49 49 49 49 52 55 56 58 57 56 55 53 54 54 52 51 50 50 48 48 47 45 45 43 43 42 42 43 43 41 44 41 41 41 40
42 44 47 50 53 55 56 57 60 61 60 60 60 58 59 60 61 62 62 60 58 56 56 55 53 53 53 52 51 48 47 45 45 45 46 45 45 46 43 42 42 42 41
49 52 53 56 60 66 65 67 70 71 70 70 69 67 65 63 66 66 64 63 64 62 63 61 58 57 56 55 54 53 51 49 49 48 49 49 48 48 46 44 43 42 41
60 60 64 69 72 73 76 80 81 82 81 80 77 74 69 65 66 68 69 69 65 62 63 62 60 62 61 59 58 57 55 55 54 51 51 51 49 47 46 44 43 41 40
71 74 80 85 86 88 91 96 96 93 91 85 84 81 79 75 64 64 67 69 67 64 60 61 62 62 62 61 61 59 58 56 54 53 53 50 48 46 45 43 41 40 40
76 83 89 92 96 98 97 95 94 92 90 86 84 80 79 76 68 58 62 66 68 68 63 62 62 62 62 61 59 57 55 54 54 53 50 47 45 45 43 41 40 39 39
86 91 96 100 98 97 95 90 86 81 76 73 70 68 62 61 60 59 61 63 66 66 65 64 64 61 60 59 57 55 52 50 50 50 47 45 44 42 41 40 40 40 37
96 100 100 96 89 79 70 64 60 59 58 59 59 59 63 65 67 67 65 65 67 65 63 63 63 63 60 59 56 53 52 51 50 50 46 45 43 42 40 40 41 39 36
99 91 81 74 67 60 55 51 50 50 49 48 50 53 56 63 68 70 67 67 66 63 61 61 60 60 58 59 56 53 52 51 49 48 48 46 45 43 41 40 40 38 35
83 74 69 66 62 57 53 50 48 46 44 42 41 44 50 56 64 68 67 65 62 62 62 59 56 57 57 55 57 55 55 53 52 51 50 48 47 44 42 39 39 38 36
80 76 72 69 67 62 56 52 48 47 44 42 40 39 41 50 57 64 64 63 62 56 57 59 55 56 53 53 53 52 51 52 51 50 50 50 50 49 43 39 39 38 36
80 75 72 69 68 65 60 55 52 48 44 44 43 39 40 40 49 61 65 62 59 58 51 48 57 56 52 44 48 47 47 48 50 51 51 48 48 47 39 38 39 38 36
60 57 54 54 54 55 55 54 53 51 49 45 45 45 41 41 40 50 60 63 59 58 56 53 50 55 53 51 50 44 41 45 49 48 49 47 44 42 38 39 39 38 35
49 45 42 40 40 41 43 45 46 46 46 46 46 48 47 44 42 41 49 61 62 57 55 55 52 52 58 47 52 51 50 49 49 45 44 43 41 38 38 40 39 36 35
45 39 35 32 31 31 31 32 35 37 39 41 44 48 49 49 46 43 41 48 58 57 53 52 53 51 54 58 48 43 39 42 43 41 42 43 40 39 40 40 37 36 35
42 36 31 29 27 26 26 27 28 30 32 34 38 42 46 47 48 46 43 41 45 53 51 48 53 46 49 51 57 54 41 38 38 35 32 35 40 40 38 37 35 36 36
41 37 33 29 27 26 24 23 22 23 25 28 31 34 38 42 44 47 44 41 38 39 45 47 51 48 42 42 41 48 43 36 33 34 36 39 40 37 37 37 34 33 35
41 38 35 32 29 26 22 20 20 20 20 20 24 28 30 32 37 42 47 44 39 34 38 44 49 48 39 38 38 38 36 33 32 35 36 36 36 32 34 32 32 32 34
39 36 33 31 29 28 27 23 20 18 16 15 16 18 22 26 29 34 41 43 39 34 40 45 46 48 39 36 36 34 32 33 32 32 31 32 31 31 33 29 31 32 34
36 33 31 28 26 25 23 23 23 20 16 13 12 12 15 18 21 28 34 36 33 40 42 46 43 35 36 37 37 35 32 31 31 30 28 26 28 28 27 26 27 30 30

GFSGL_500_spd_096.txt.gz
Wind_Speed
24 24 14 23 29 20 21 23 20 20 20 25 33 36 38 33 33 37 40 45 48 49 42 50 40 35 45 44 39 42 44 42 43 44 47 42 31 31 29 26 27 30 30
13 4 6 8 15 22 23 25 25 22 24 25 25 27 30 32 32 31 28 31 34 32 34 32 36 34 30 34 34 30 30 33 32 28 24 25 27 34 28 33 35 33 32
3 9 8 5 10 12 13 14 14 17 19 21 23 26 29 33 35 35 35 36 37 35 41 40 39 34 33 37 38 34 28 36 33 37 30 32 31 33 40 39 37 35 33
14 13 15 16 16 19 20 22 25 27 29 31 32 34 36 38 38 35 37 36 35 34 33 33 35 35 36 33 40 39 32 41 38 35 37 35 41 45 44 43 40 37 34
17 19 19 21 24 26 28 30 34 36 37 39 39 40 42 43 44 46 47 47 47 47 47 47 44 44 44 46 41 41 48 49 50 44 43 41 43 44 45 45 43 39 36
16 19 21 25 27 29 30 32 34 36 35 37 38 41 48 50 51 51 50 50 51 53 55 56 56 58 58 58 59 60 61 57 55 52 49 48 46 47 47 47 43 40 39
25 27 31 33 36 38 41 45 48 48 47 48 49 50 53 51 53 53 55 57 58 58 55 56 58 59 60 58 59 58 54 55 45 51 51 37 49 53 50 48 44 43 42
33 36 38 42 46 51 54 54 56 60 62 63 63 62 61 60 62 63 63 60 60 62 62 61 60 59 59 60 59 58 56 57 57 62 55 55 55 52 49 47 45 44 45
39 42 45 49 54 59 62 64 67 69 71 71 72 73 70 69 72 74 73 70 67 67 67 68 64 63 62 62 62 61 60 60 59 58 55 54 53 51 49 48 48 47 49
47 50 56 61 65 69 73 75 79 81 83 85 84 82 82 82 82 80 80 76 74 73 73 73 72 68 68 68 66 64 63 62 61 60 59 58 56 53 53 51 51 51 49
57 62 66 69 74 80 84 89 93 95 98 100 100 102 100 97 96 93 87 81 80 78 77 74 76 75 73 71 71 70 69 69 66 64 63 62 61 59 57 55 53 51 47
63 69 75 81 84 89 95 100 105 109 110 106 102 98 94 92 91 86 80 75 73 77 80 74 69 75 76 73 71 71 71 70 68 66 66 64 63 61 59 57 56 48 44
70 77 82 87 96 105 110 110 103 93 89 86 80 76 69 67 67 68 69 70 71 70 66 70 68 72 75 74 70 70 69 66 67 65 63 61 58 56 54 54 48 45 41
78 83 91 100 104 104 101 96 90 78 70 62 56 54 54 55 58 63 68 72 77 80 79 77 76 77 77 74 72 72 70 66 64 62 61 60 55 52 51 47 45 44 41
86 94 98 98 95 87 81 78 77 74 70 61 52 49 48 49 50 54 58 64 71 80 79 77 73 72 73 71 70 69 68 63 59 57 55 54 50 48 48 49 47 45 43
94 94 90 78 69 70 69 66 64 62 62 59 51 48 48 45 46 46 49 54 63 72 73 72 67 64 63 54 53 63 61 59 56 54 52 52 50 49 47 47 47 45 43
91 82 68 66 67 65 62 58 52 52 53 51 48 47 47 46 43 43 42 47 54 63 64 62 60 57 55 59 56 48 54 51 46 51 51 48 50 44 48 48 45 45 44
77 63 63 66 64 62 57 49 45 44 45 45 47 46 47 45 43 43 41 40 47 54 58 57 53 50 52 52 58 53 56 50 45 45 48 46 44 46 50 48 46 45 46
60 60 64 63 61 57 49 42 39 38 39 40 44 47 47 47 43 43 41 39 40 48 53 52 49 49 48 47 52 52 52 54 52 50 49 49 46 47 45 39 41 45 46
60 63 61 58 54 49 43 39 35 33 33 34 38 44 49 48 46 44 43 41 38 41 49 51 47 44 46 48 50 55 50 53 53 46 46 47 44 41 40 42 46 46 44
61 58 56 54 50 45 40 36 33 31 29 30 32 37 44 48 49 47 46 44 40 36 40 48 49 44 43 48 49 51 49 50 51 39 49 49 47 39 38 42 45 44 43
60 56 53 49 45 41 38 35 32 28 27 24 25 28 34 40 45 48 47 46 43 38 35 39 44 41 40 53 41 46 48 44 34 38 41 37 38 37 35 36 37 37 39
58 54 50 44 41 38 36 34 31 29 25 23 21 22 27 31 36 41 44 45 44 40 35 32 37 39 41 44 47 49 49 51 41 31 30 34 35 33 34 34 35 36 38
56 52 47 42 39 36 33 31 29 27 26 22 20 19 19 23 27 32 37 41 42 41 36 29 34 39 40 41 47 43 46 42 52 40 29 28 29 32 32 31 34 34 37
53 49 44 39 36 34 31 29 27 25 24 21 19 15 13 15 18 22 27 33 38 40 37 29 31 41 42 40 44 36 40 41 41 43 41 31 31 35 36 32 32 33 34
50 46 42 37 34 31 29 26 24 23 21 17 13 10 10 13 14 17 20 26 32 37 35 27 30 41 42 38 44 33 33 31 30 29 31 33 34 32 31 29 32 33 32

GFSGL_500_spd_099.txt.gz
Wind_Speed
14 15 18 30 40 32 29 25 28 26 32 36 36 39 41 40 44 41 45 48 49 49 49 52 49 51 48 51 56 59 49 47 44 45 46 48 52 54 56 52 51 44 35
14 16 14 17 14 22 37 30 24 25 26 27 29 35 39 46 43 45 45 53 49 50 56 48 44 51 54 52 47 42 46 42 45 39 42 51 51 50 54 55 44 39 37
10 11 5 2 7 10 9 14 18 25 28 26 28 30 31 32 35 38 40 42 40 41 43 44 39 37 41 37 38 38 44 43 40 31 33 38 36 39 42 41 35 36 35
6 6 8 9 13 15 18 18 18 21 24 24 27 31 32 35 36 37 40 43 45 46 41 41 44 44 45 46 43 40 40 43 43 39 38 41 36 35 35 33 35 37 40
10 11 12 14 17 19 20 23 26 29 30 33 36 39 40 43 44 45 46 47 49 49 50 50 45 43 43 43 42 41 41 37 39 43 48 46 41 37 40 43 46 49 53
10 12 14 17 21 21 24 27 31 31 33 37 39 42 44 46 46 49 51 52 54 53 53 54 54 55 53 53 52 50 45 45 46 43 50 52 49 51 51 51 52 52 54
17 19 23 26 29 31 33 35 38 39 42 47 50 52 54 56 58 59 59 59 59 59 59 57 56 58 58 59 60 61 59 59 57 53 47 50 55 57 56 55 56 54 54
23 26 29 34 37 40 43 46 50 54 58 60 62 64 66 67 69 71 71 71 70 69 67 65 63 61 61 62 63 62 60 62 59 60 60 63 62 63 55 52 51 53 52
30 34 37 42 46 49 52 55 60 63 68 72 75 77 78 81 82 83 83 82 80 79 75 75 73 69 67 67 67 65 65 64 62 59 57 62 56 58 48 47 57 54 53
35 39 44 48 52 55 58 62 68 73 77 83 87 91 92 93 93 92 93 92 91 89 86 83 80 78 76 73 71 69 69 67 67 66 66 65 65 71 64 66 61 55 56
42 46 50 54 58 62 66 72 78 82 88 94 98 103 107 109 110 111 111 105 98 95 94 90 88 86 82 80 78 76 72 73 72 71 70 68 66 68 66 64 62 59 56
48 53 56 61 65 70 75 82 88 92 97 105 112 116 116 111 104 98 92 87 85 86 84 82 85 88 90 87 83 80 79 77 77 75 73 72 69 66 65 64 62 59 57
55 58 63 67 73 80 84 90 98 106 111 112 109 99 91 80 77 74 70 70 70 72 73 74 74 78 81 83 85 85 83 80 79 77 74 73 71 70 68 65 62 58 57
60 65 70 76 81 86 95 102 106 101 91 84 81 78 75 70 67 63 62 62 62 63 66 70 73 83 84 84 85 85 81 77 74 72 72 71 70 68 64 61 58 53 51
68 73 78 82 88 96 100 95 85 77 76 75 74 73 68 67 59 57 57 57 56 55 57 60 66 77 83 81 81 79 70 59 68 70 67 67 66 63 59 57 53 51 49
74 79 84 89 96 95 83 74 75 76 74 69 64 58 57 56 49 50 54 53 51 50 49 50 53 58 69 77 74 73 75 58 47 47 61 60 59 57 55 53 50 49 49
78 83 90 95 88 77 74 75 71 67 64 58 53 50 47 42 41 45 50 48 46 45 45 45 47 51 54 62 64 62 61 62 48 48 47 49 44 49 48 47 47 46 45
82 88 92 86 76 74 75 71 66 60 52 49 49 44 39 36 36 42 44 44 42 42 40 39 39 43 45 45 43 41 46 54 53 49 43 42 43 44 39 38 43 42 45
86 90 85 73 74 75 71 65 60 52 47 42 41 39 38 35 32 39 42 42 40 38 37 36 34 36 37 37 35 37 40 47 49 45 47 46 45 40 39 42 46 44 42
87 84 74 72 74 70 65 60 52 47 43 39 37 35 32 32 32 35 41 41 39 36 34 33 30 31 32 35 36 41 39 44 55 59 46 44 50 50 49 45 45 46 42
83 73 71 73 71 65 60 53 46 41 39 36 34 33 32 30 29 31 37 41 40 37 34 32 28 28 32 36 39 41 36 41 42 51 52 43 42 36 39 45 45 41 36
72 68 71 72 67 60 55 48 42 40 38 34 31 30 30 28 26 26 29 35 40 38 34 31 27 25 32 36 40 44 47 35 38 45 44 42 36 34 41 37 32 33 30
64 68 70 67 61 57 50 45 40 38 35 32 30 28 27 26 24 22 23 27 34 36 35 30 27 23 31 36 38 40 41 38 41 31 38 26 35 36 44 39 39 37 30
63 67 65 62 58 54 48 41 37 34 31 29 26 25 23 22 21 19 18 20 24 29 31 28 25 22 28 36 39 41 44 35 34 36 31 25 31 35 33 35 28 26 27
61 61 60 58 55 51 44 39 35 32 28 25 22 19 16 16 14 14 13 15 17 22 25 24 23 20 25 37 40 38 40 43 31 35 39 35 21 29 28 26 28 27 28
56 56 55 54 51 47 42 34 30 28 20 17 17 10 9 10 11 10 9 11 14 18 22 23 23 18 23 36 41 37 35 35 31 34 32 31 29 20 19 25 29 31 34

GFSGL_500_spd_102.txt.gz
Wind_Speed
13 12 16 20 24 27 25 33 39 33 30 33 41 42 41 35 41 47 43 42 49 46 47 50 54 57 53 56 51 48 49 54 54 53 53 54 51 47 47 47 47 49 49
17 15 16 16 18 23 25 22 36 29 25 30 36 36 40 44 42 43 41 41 44 44 44 46 45 48 50 49 51 57 57 56 54 54 55 57 51 50 45 47 48 42 50
13 18 14 13 12 12 14 21 25 30 33 32 31 30 28 31 34 36 38 40 50 52 54 48 50 54 52 55 50 54 53 54 56 56 48 49 50 49 43 46 47 52 53
14 11 8 6 6 7 10 12 13 17 17 21 24 26 27 28 31 32 34 37 38 38 37 39 40 36 36 45 49 45 46 44 40 43 44 43 42 39 36 41 41 42 43
8 9 13 14 15 16 17 17 21 23 26 27 30 32 34 34 38 43 43 43 45 47 50 52 52 50 49 45 48 50 50 48 40 41 38 46 47 44 42 45 43 40 37
9 11 13 14 14 16 18 21 24 26 28 32 34 36 39 40 43 46 47 48 50 52 53 55 55 58 58 56 57 54 53 60 55 47 49 41 43 47 51 49 45 41 44
12 15 18 19 22 25 26 28 31 34 37 41 44 46 47 50 53 54 57 59 60 62 64 63 62 63 62 63 61 60 60 61 61 56 57 50 54 51 44 45 52 53 44
19 22 25 27 30 32 35 38 41 43 47 50 53 56 58 61 64 66 68 70 71 72 74 76 75 73 72 71 68 67 66 63 61 62 64 61 60 58 53 51 53 52 44
26 29 31 33 36 39 42 45 47 50 54 58 61 64 65 69 73 76 79 82 85 85 86 87 87 87 84 82 79 75 72 69 69 67 66 64 63 61 60 63 51 47 52
31 34 37 40 43 46 49 52 56 58 61 64 67 71 75 79 84 87 90 93 95 98 100 101 98 96 93 91 87 84 81 78 76 73 71 69 66 64 59 60 60 62 53
38 42 45 49 52 54 57 61 63 66 67 70 74 79 85 90 94 99 104 108 112 114 116 115 116 114 106 98 93 91 87 85 83 81 77 74 72 68 64 65 62 60 52
47 49 52 55 59 61 63 67 69 73 75 79 84 89 95 101 108 114 119 121 119 116 110 106 100 91 90 88 85 91 92 90 86 82 82 79 77 73 71 69 67 69 70
54 57 61 65 65 66 68 70 74 77 82 88 93 99 107 112 109 104 101 97 94 90 85 77 73 70 73 78 86 90 91 92 91 86 81 79 77 75 77 75 72 68 63
59 62 65 67 67 69 71 75 79 85 90 96 103 108 103 99 94 90 87 84 81 78 73 69 66 63 66 73 84 90 87 86 86 85 80 82 79 75 74 77 74 71 66
62 63 65 66 68 71 76 82 87 93 98 102 97 95 91 84 78 76 71 67 64 63 62 59 58 58 60 65 70 78 84 81 80 78 65 52 55 73 70 72 71 69 67
62 63 64 67 70 75 80 86 93 96 93 90 89 84 76 73 66 58 55 56 54 53 50 48 50 52 52 53 56 58 65 71 69 67 63 56 53 60 69 67 61 58 58
60 61 65 69 73 79 85 89 92 84 84 81 77 71 66 59 51 48 47 47 45 41 41 40 41 41 42 43 44 46 46 50 55 58 53 69 58 52 44 53 62 58 54
61 63 65 71 77 83 87 87 85 83 77 68 65 60 51 47 45 42 40 40 37 36 34 33 32 34 36 38 39 40 40 37 36 41 48 43 50 46 45 43 51 52 47
61 64 69 74 79 83 83 82 81 76 69 62 54 45 44 42 39 37 36 34 32 32 30 29 29 30 31 32 33 35 35 29 30 33 35 49 51 40 36 49 47 41 44
63 68 72 75 77 77 78 77 75 69 62 54 45 40 39 38 35 33 33 31 26 29 28 28 27 27 26 26 27 30 33 38 35 36 39 39 49 54 37 36 44 47 44
65 69 71 72 72 74 74 74 69 63 56 48 40 37 37 34 31 28 29 27 24 24 28 27 26 24 22 23 26 29 37 39 36 42 43 42 44 46 44 38 38 43 44
65 66 65 66 69 69 70 68 63 58 50 44 36 33 33 31 27 24 24 23 21 19 25 27 26 23 20 22 27 32 41 42 29 35 39 40 42 46 38 37 43 44 45
62 59 59 62 64 65 64 61 58 54 46 39 34 28 28 27 24 20 21 20 17 16 20 28 26 21 19 22 29 37 42 37 33 23 29 27 34 41 30 32 39 43 41
55 53 54 56 57 58 58 57 56 52 44 35 30 21 24 21 17 17 18 15 13 11 17 26 25 20 18 22 32 37 41 42 32 30 28 25 26 35 34 25 30 35 32
46 46 47 49 52 54 54 54 53 49 42 34 22 18 17 13 14 14 14 10 6 9 16 23 23 19 18 21 34 36 37 35 32 23 21 23 28 27 23 28 28 26 25
40 38 40 44 48 51 50 49 49 46 39 31 17 13 12 12 16 12 9 4 3 11 19 22 21 18 17 22 33 35 36 34 32 23 24 31 24 18 23 26 25 27 26

GFSGL_500_spd_105.txt.gz
Wind_Speed
15 14 16 23 27 29 29 28 25 28 28 33 32 32 36 36 43 46 49 49 45 46 46 48 51 50 50 47 49 47 48 48 48 52 50 50 50 52 53 48 56 52 51
16 12 13 16 20 22 23 26 28 32 31 33 41 35 30 33 39 40 46 46 45 39 42 49 51 48 48 45 46 45 51 56 63 60 54 53 54 53 51 55 51 52 53
12 15 13 12 15 17 21 27 29 30 31 33 31 33 32 33 35 33 35 42 39 41 45 47 45 50 49 47 48 49 46 48 44 51 51 58 62 62 57 57 57 53 53
10 11 12 15 15 13 14 16 19 23 25 26 29 33 33 38 37 35 32 29 31 34 34 35 36 37 35 36 41 42 47 46 50 48 47 47 50 52 52 50 48 46 47
13 9 5 9 11 10 11 16 16 21 24 24 23 28 29 29 30 30 33 37 39 40 39 41 41 45 47 45 43 46 41 37 42 46 42 43 42 42 40 41 41 38 37
11 12 13 15 16 18 20 21 23 23 24 26 28 31 33 34 38 38 40 42 44 45 46 49 49 49 50 52 54 53 54 55 50 49 50 49 44 39 40 46 44 44 46
13 14 15 17 18 20 23 25 27 29 31 34 36 37 39 42 44 46 48 50 52 53 55 58 60 60 61 62 63 62 62 62 61 60 60 55 50 54 53 47 50 47 47
17 18 20 22 24 26 29 31 34 36 39 42 44 46 48 50 52 54 56 58 60 62 63 65 68 69 72 73 74 73 73 71 68 68 67 64 63 63 61 56 59 54 56
24 25 27 29 32 34 37 39 42 45 48 51 54 56 58 61 63 64 67 68 69 71 74 76 77 79 82 84 84 84 82 81 80 78 76 73 70 69 68 69 68 70 57
32 34 36 38 40 43 45 48 50 53 56 59 61 65 67 69 72 73 75 76 78 80 81 84 86 89 91 93 93 94 93 91 89 89 85 82 79 76 73 71 72 73 69
39 41 44 46 49 51 54 56 59 62 64 67 69 73 74 76 77 79 82 85 87 89 92 95 98 101 103 107 109 109 109 109 103 95 92 90 86 83 79 77 75 74 71
45 48 51 54 56 58 60 63 66 68 69 71 74 75 78 79 81 84 88 91 95 98 101 105 110 115 119 122 123 120 117 111 103 94 93 93 91 88 85 81 79 77 72
47 49 52 56 59 61 63 65 67 70 72 74 75 76 79 83 88 91 95 99 105 110 115 117 119 119 112 103 95 89 88 86 83 84 91 95 94 91 88 85 80 79 76
52 55 58 62 65 66 68 69 69 70 71 72 75 78 83 87 94 100 105 109 110 110 110 105 97 91 87 81 74 69 69 70 71 73 87 91 88 86 82 78 79 78 69
54 58 64 68 69 66 66 66 67 70 72 75 79 83 89 95 99 101 99 96 90 85 83 79 75 71 66 60 57 58 61 65 68 69 76 81 76 79 69 66 64 54 73
58 63 68 69 66 64 64 66 70 72 76 81 86 89 93 94 93 90 83 75 70 65 61 57 54 50 48 47 48 50 52 56 58 60 61 57 59 68 70 67 64 65 54
65 69 64 63 62 62 64 66 68 74 78 81 83 84 86 84 78 73 66 57 50 48 47 45 43 41 37 35 35 35 36 38 40 40 41 39 41 53 72 64 52 51 54
64 61 60 61 61 63 66 69 72 75 76 75 77 78 76 72 66 58 50 44 41 40 39 38 37 31 26 26 26 27 29 31 31 33 33 35 39 41 50 68 61 47 53
55 56 58 60 60 64 67 69 70 71 72 74 74 70 65 62 56 45 40 37 36 33 33 33 30 22 22 22 23 24 26 28 29 32 36 46 47 47 46 63 65 46 59
53 55 57 58 60 62 62 63 65 67 71 72 68 61 56 50 42 37 35 34 32 28 28 27 23 19 20 19 19 21 24 26 28 32 39 46 48 46 43 47 55 57 42
50 53 54 56 57 57 56 59 63 66 67 66 61 55 47 41 34 27 30 30 28 26 25 21 19 18 18 16 17 19 22 25 29 31 35 44 43 46 46 39 44 42 41
48 48 51 51 48 48 52 58 61 64 62 59 55 47 39 29 24 26 26 24 23 24 22 15 18 17 15 15 16 19 21 26 35 28 33 40 44 43 40 40 44 44 35
43 46 47 43 41 45 51 55 58 58 57 55 48 39 26 24 25 22 20 19 20 19 15 12 18 16 14 15 16 18 22 29 37 28 28 28 32 37 33 29 32 29 29
43 44 40 38 39 43 47 51 53 54 54 51 42 29 20 21 20 21 19 17 17 13 7 15 19 16 14 14 14 19 23 35 37 32 26 30 32 33 33 31 28 30 32
40 38 34 33 35 38 41 45 49 53 53 51 40 24 19 19 22 21 17 14 11 5 8 19 18 15 13 13 15 21 29 36 37 25 29 30 30 28 37 32 24 24 27
37 32 29 29 31 33 35 39 47 53 53 50 43 28 20 17 20 25 17 13 6 5 17 19 17 14 13 11 17 24 31 31 24 21 24 21 31 32 36 32 21 23 27

GFSGL_500_spd_108.txt.gz
Wind_Speed
19 19 25 29 29 24 24 27 25 29 29 33 37 37 33 32 35 39 41 46 48 49 51 50 51 47 41 43 51 56 56 56 55 53 47 49 51 54 49 50 48 47 46
13 12 11 9 10 17 21 23 26 30 29 28 28 29 36 38 40 41 42 40 37 42 45 45 47 51 45 44 46 47 50 54 58 51 51 51 51 52 50 53 55 53 50
10 9 10 12 15 19 17 18 23 29 32 33 34 36 45 42 40 37 41 35 33 35 40 45 47 47 48 50 52 50 50 49 46 45 47 48 49 54 59 63 57 56 54
6 8 11 16 16 18 24 24 25 28 30 34 31 34 35 38 39 41 44 44 40 39 38 37 37 33 35 38 36 39 38 39 41 48 51 53 53 44 44 45 49 50 53
10 14 14 15 13 12 11 12 13 15 18 20 22 25 28 29 25 31 32 30 34 36 36 39 39 39 41 40 39 40 42 41 40 44 42 41 39 41 46 45 49 47 45
12 12 13 16 15 18 18 20 22 22 27 30 30 32 33 35 35 36 38 38 40 41 42 45 46 46 47 48 48 47 49 49 47 47 50 49 47 45 41 44 43 42 41
18 18 19 20 21 22 24 26 27 29 31 33 35 37 38 40 42 43 45 46 47 48 49 51 53 54 55 57 58 58 58 58 58 57 55 55 55 53 52 53 51 44 41
23 23 24 25 26 28 29 30 32 33 35 37 40 42 44 47 49 50 52 55 57 59 60 61 62 63 65 66 67 68 68 68 68 68 66 65 65 63 61 58 56 56 52
27 28 29 30 32 34 36 38 40 42 44 47 49 51 53 55 57 59 61 62 64 66 67 69 71 72 74 75 77 77 77 78 78 78 77 76 75 73 69 68 65 63 62
35 36 37 38 39 41 43 45 47 49 52 55 57 60 63 65 67 68 69 71 72 73 74 77 79 80 81 82 83 84 84 85 87 87 87 86 84 82 82 78 73 72 69
39 39 40 41 43 45 47 48 49 51 53 57 61 65 69 71 72 74 75 76 78 79 80 81 82 83 85 87 89 90 91 92 93 94 95 94 93 93 89 86 85 80 79
43 46 46 47 48 49 52 54 57 59 63 66 68 71 72 75 77 79 81 82 84 86 87 88 89 90 92 94 96 97 98 100 102 104 104 104 104 102 98 90 87 86 86
49 49 50 52 53 55 57 59 61 65 68 71 73 74 73 73 75 78 80 82 84 85 87 89 92 95 98 101 105 109 110 111 114 116 116 117 116 111 105 94 91 92 91
55 56 55 55 56 58 60 63 67 70 74 76 76 74 73 74 76 77 79 82 86 89 93 95 99 103 106 110 113 114 112 111 111 109 107 106 99 92 86 85 90 93 94
52 53 53 54 56 61 66 70 72 72 71 71 71 72 73 73 76 78 82 85 88 91 94 97 99 99 97 94 92 91 88 81 77 76 73 72 71 71 71 75 86 89 83
51 51 54 58 64 67 66 63 65 64 65 67 70 72 73 75 78 81 84 85 87 87 87 84 81 79 78 74 68 62 58 53 50 50 51 51 55 62 65 66 70 74 75
57 58 57 59 62 59 57 56 56 60 64 65 67 69 72 75 76 78 78 78 75 73 71 68 62 58 55 52 47 43 42 41 39 38 40 41 44 48 50 47 39 46 63
57 57 59 57 53 51 52 53 54 57 58 56 61 67 71 73 73 73 71 68 62 57 51 46 42 43 40 38 38 35 29 26 26 26 27 29 32 35 38 49 46 45 49
57 55 52 50 47 48 50 52 51 53 56 61 65 69 71 71 70 67 61 53 46 40 36 34 35 34 34 34 27 21 21 22 23 24 27 31 35 41 45 47 50 45 51
49 45 44 43 45 47 48 47 47 52 57 61 65 68 69 66 60 53 45 38 34 32 30 30 28 31 31 23 17 18 18 19 21 22 26 30 35 41 42 51 50 48 44
46 42 42 43 43 45 41 40 45 50 54 57 62 65 63 56 46 36 34 34 32 31 28 25 26 27 20 15 14 15 15 17 19 21 25 29 35 39 31 32 44 47 39
43 42 42 41 41 37 35 39 43 46 50 55 61 64 58 45 35 34 32 30 27 25 24 23 22 17 14 12 12 12 12 13 16 21 25 28 32 35 28 34 36 35 31
41 41 40 39 34 31 32 36 38 43 48 54 61 63 51 36 33 29 32 29 26 24 22 16 10 12 12 9 9 8 8 11 15 20 25 23 26 30 41 30 39 30 32
42 40 38 35 28 27 30 33 35 41 49 54 59 58 47 33 28 29 33 29 25 19 12 2 13 12 8 5 5 4 6 9 19 26 21 19 18 25 27 32 35 26 33
40 40 36 29 23 24 27 31 35 41 48 50 53 52 45 33 27 29 29 26 20 12 4 14 12 9 4 1 1 4 7 15 27 21 14 12 17 19 27 39 35 26 31
40 38 33 25 20 22 25 30 34 39 45 46 48 47 44 34 29 27 26 22 13 10 14 13 10 6 4 3 6 9 12 23 22 12 13 11 17 23 25 20 22 28 29

GFSGL_500_spd_111.txt.gz
Wind_Speed
9 8 11 14 16 19 23 30 35 35 38 42 43 41 40 41 40 44 46 45 47 49 50 51 49 51 52 52 49 50 48 44 46 49 51 53 56 50 51 48 47 45 46
16 17 19 20 22 24 27 26 22 27 29 27 29 32 32 33 36 32 33 36 40 41 42 43 44 46 43 44 46 50 50 53 48 47 50 46 46 45 52 53 51 48 51
10 10 11 9 9 12 17 21 20 22 23 25 29 34 35 33 37 38 39 45 42 41 43 44 44 39 43 49 51 47 52 47 48 48 47 45 46 42 47 50 52 49 53
10 8 8 12 16 20 23 22 22 26 31 32 28 30 36 31 35 36 38 39 39 42 42 43 46 46 45 46 45 43 43 45 44 40 39 40 44 44 48 47 48 50 48
10 11 12 14 13 16 15 13 17 20 17 18 19 24 27 30 31 32 33 37 41 37 38 42 48 42 45 40 41 39 38 38 35 37 38 33 37 34 35 32 34 30 31
18 17 17 17 18 19 20 22 24 27 28 28 29 28 31 33 35 35 37 39 40 42 43 43 44 44 48 48 47 47 45 45 45 45 46 44 44 44 45 44 40 38 37
25 24 24 24 24 25 26 27 29 30 31 32 33 35 36 39 40 42 44 45 47 48 49 49 50 51 53 53 54 54 54 54 54 54 54 53 52 52 52 52 51 47 45
30 29 30 30 30 31 32 34 35 36 37 39 40 41 43 45 47 48 50 51 53 55 56 57 58 59 60 61 62 62 63 63 63 64 63 62 62 61 59 58 58 57 55
35 36 36 37 38 39 40 41 42 43 44 45 46 48 49 50 52 54 56 58 61 63 65 66 67 69 70 71 72 72 72 72 72 73 72 72 71 70 71 70 67 65 63
40 40 41 41 42 43 44 44 46 47 48 50 50 50 51 53 55 57 59 60 62 64 69 73 75 76 77 78 80 79 79 79 78 79 79 80 80 80 79 78 77 75 71
42 43 45 47 49 48 49 51 51 52 53 56 58 60 61 62 63 65 66 68 70 71 72 74 76 79 81 82 83 84 86 86 85 84 84 84 85 85 85 84 82 82 81
47 46 47 51 49 49 50 52 55 56 57 59 61 62 65 66 68 70 72 74 76 77 76 76 77 79 80 81 83 84 85 86 87 87 88 88 89 89 90 90 90 88 86
51 51 51 51 52 52 53 54 56 57 60 62 64 66 69 71 72 73 73 73 73 74 75 76 77 79 81 83 86 88 90 91 91 92 92 93 94 93 95 95 95 95 92
53 53 54 55 55 55 56 57 59 62 65 68 69 68 67 65 65 65 67 68 71 74 76 77 80 82 85 87 89 91 93 94 96 97 98 100 101 101 101 102 102 98 99
52 52 53 54 54 57 59 60 62 63 63 63 61 59 59 60 63 65 68 69 72 75 77 79 82 84 86 88 88 91 93 94 96 98 100 101 104 106 107 107 105 102 99
54 54 55 57 57 60 61 61 62 57 55 53 55 57 58 61 64 67 69 71 73 76 78 79 80 79 78 78 78 78 77 77 77 78 78 78 78 79 80 80 79 77 77
55 56 57 56 54 51 50 49 48 50 51 52 54 55 57 61 65 69 72 74 73 72 70 69 66 64 62 61 60 58 54 51 51 51 49 48 48 49 49 49 53 58 63
50 48 45 44 48 50 47 45 46 46 45 45 47 52 57 62 67 71 71 69 64 60 57 54 51 49 46 45 43 41 38 38 38 38 36 34 34 35 34 34 37 38 40
48 46 47 47 45 45 45 46 45 44 42 41 45 49 55 60 67 69 67 60 53 46 44 42 40 39 37 37 36 34 35 34 29 25 24 23 23 25 25 25 29 32 34
42 44 47 45 42 44 46 43 41 38 39 43 46 53 59 64 67 66 54 46 42 39 38 35 32 30 31 31 31 31 26 18 18 17 17 17 18 20 22 25 32 40 36
41 44 43 42 44 45 43 40 35 34 38 40 47 55 61 63 64 54 42 38 39 38 34 31 30 29 27 25 22 13 11 12 13 13 13 13 14 15 13 19 28 36 45
38 39 40 43 44 42 39 33 31 34 36 41 49 55 56 59 56 43 36 36 38 35 30 26 24 21 16 8 4 6 8 9 9 9 10 11 12 15 12 17 21 26 43
38 38 40 41 42 39 33 28 30 32 36 43 50 52 54 54 47 37 33 33 31 28 25 20 13 7 5 3 4 6 7 6 5 6 7 7 10 11 12 15 16 18 32
37 39 41 41 39 36 28 26 29 32 36 42 46 51 49 49 42 35 33 30 27 23 17 13 12 10 9 9 9 8 6 5 2 4 7 7 11 12 12 11 12 17 24
38 40 41 42 38 32 24 25 28 30 34 38 43 47 43 45 42 36 31 26 21 18 16 15 14 14 13 12 9 8 9 11 14 14 13 10 7 7 10 18 10 17 20
38 41 42 42 36 28 20 24 26 27 32 35 38 42 37 37 33 28 25 23 21 19 18 18 18 16 14 10 11 12 18 17 13 11 9 6 3 3 5 14 20 25 18

GFSGL_500_spd_114.txt.gz
Wind_Speed
13 14 14 12 12 11 13 17 18 21 24 28 33 36 38 41 42 43 45 46 42 43 42 41 41 42 43 46 50 53 58 59 58 56 53 48 46 44 46 48 49 50 53
18 16 16 17 17 15 14 17 18 19 21 26 28 32 30 34 38 42 42 42 41 41 46 47 50 52 51 54 53 49 53 55 54 54 49 49 46 48 46 53 49 48 46
16 15 14 12 10 10 14 17 18 20 22 22 22 24 27 29 31 32 33 36 40 43 42 44 46 43 47 52 49 48 52 46 47 47 44 48 47 47 46 44 39 42 43
15 14 15 15 16 18 20 22 24 26 26 28 31 36 37 38 37 38 41 39 34 41 41 43 42 41 42 45 46 47 50 49 49 52 49 52 49 46 42 45 44 48 47
19 18 17 16 17 19 21 22 23 22 20 24 25 23 24 27 27 34 43 43 38 39 39 38 40 47 46 42 42 42 52 50 48 52 51 49 46 49 46 43 42 38 36
25 25 24 24 23 23 23 25 26 28 29 29 30 31 33 33 33 34 35 36 37 38 40 38 43 45 44 45 46 46 44 46 47 42 40 40 42 39 36 41 36 30 37
30 30 30 30 30 31 32 33 34 34 34 36 37 38 39 40 40 41 41 42 43 45 47 48 49 50 50 49 51 51 51 51 51 51 51 51 51 52 50 48 50 48 46
35 35 35 36 37 37 37 38 40 41 42 43 44 45 46 48 48 49 49 49 51 52 54 55 56 57 58 59 59 59 60 60 60 60 59 59 59 59 58 57 55 54 53
39 41 42 42 42 41 42 43 43 43 45 47 48 49 50 52 52 53 55 56 56 56 56 57 58 59 60 63 64 64 66 68 69 69 69 69 68 67 67 67 66 64 60
42 44 45 45 46 48 50 51 53 54 55 55 55 56 55 55 55 57 58 59 60 62 63 65 67 68 69 68 68 70 70 70 70 74 77 78 77 77 76 74 73 73 71
39 42 45 47 49 50 51 52 53 54 55 55 56 59 60 60 61 62 64 65 66 66 68 69 71 72 73 74 74 75 76 77 76 76 78 81 83 84 83 83 81 79 77
40 43 46 48 50 52 53 53 54 54 54 55 56 58 61 62 64 65 67 68 70 72 73 74 74 75 75 77 78 79 79 79 79 78 78 81 82 83 85 86 85 86 85
44 47 49 51 52 51 52 53 51 53 55 56 59 60 60 62 64 64 64 65 67 68 69 71 71 72 74 75 76 77 78 78 79 78 78 78 80 81 82 83 86 87 87
48 50 52 54 53 51 52 54 55 56 53 54 55 55 55 55 54 55 56 57 59 62 65 68 71 73 75 77 77 79 81 82 81 82 82 82 82 83 84 86 86 87 87
52 55 53 52 50 46 47 48 48 46 46 47 47 45 45 47 49 50 51 53 57 61 65 67 70 72 73 74 76 78 79 79 80 81 82 83 83 84 87 88 88 88 88
53 54 52 47 42 40 43 47 46 43 42 43 43 42 43 42 43 47 52 55 59 63 64 66 67 67 68 68 69 70 71 72 71 72 73 75 78 80 81 80 83 85 87
49 47 43 40 38 42 43 40 39 42 43 43 42 40 39 42 47 52 57 61 63 64 65 64 61 59 58 57 57 56 54 52 52 51 53 55 58 60 61 62 64 68 71
43 41 38 37 39 39 40 40 41 40 39 39 37 37 40 44 51 58 62 63 64 64 60 55 51 49 47 45 43 41 38 36 36 37 38 38 39 39 39 39 40 42 45
42 39 37 37 38 39 42 42 42 41 37 31 32 36 40 48 55 61 63 65 61 53 47 44 44 43 39 36 34 31 29 29 30 31 29 24 21 21 23 23 23 24 25
42 40 39 40 39 40 43 43 42 38 32 30 32 36 43 49 56 58 60 55 48 43 41 40 38 35 32 29 26 24 23 19 13 11 12 13 13 13 12 12 14 16 16
42 41 40 42 40 40 42 44 42 34 29 30 34 39 44 53 55 54 48 42 37 34 31 29 27 24 20 17 14 12 11 11 11 11 11 10 8 6 3 2 1 5 8
42 41 41 40 41 42 42 43 39 29 28 30 34 39 45 51 47 42 40 38 36 32 29 27 25 24 21 19 17 15 13 12 11 9 8 6 3 3 7 6 2 6 4
42 42 40 40 39 41 42 41 35 26 27 28 35 38 41 45 39 36 37 35 32 30 28 26 25 23 21 18 16 14 13 11 9 7 4 4 2 4 4 1 5 4 4
42 42 40 39 38 38 40 39 30 24 25 27 34 36 38 42 37 32 32 31 30 28 26 24 23 22 21 17 14 15 17 15 16 16 11 10 12 11 9 9 6 2 2
42 41 39 38 37 37 38 36 25 23 23 26 32 34 36 38 37 32 29 27 25 24 24 24 24 20 15 12 16 20 19 19 16 15 15 11 6 5 7 5 7 10 10
41 41 37 36 35 36 37 33 23 21 22 24 29 31 32 34 34 33 32 30 27 26 25 24 18 17 18 22 20 16 16 15 14 12 11 11 8 3 9 8 2 5 11

GFSGL_500_spd_117.txt.gz
Wind_Speed
20 21 20 17 15 14 12 11 11 13 17 19 18 22 26 30 34 37 40 43 45 45 48 48 52 51 54 53 52 54 56 57 55 53 54 57 55 57 55 55 52 51 49
22 22 21 19 17 14 10 12 13 14 17 18 19 23 28 32 36 38 41 42 44 43 46 49 50 47 51 49 47 48 49 48 51 49 53 57 57 56 56 54 51 49 41
24 22 20 20 20 19 19 20 20 23 23 23 26 28 29 29 31 32 38 41 40 39 40 38 46 47 48 50 50 53 56 55 56 55 52 53 52 54 52 52 49 51 48
27 26 25 23 22 20 21 22 23 23 24 23 22 24 26 27 27 33 38 42 43 42 43 44 43 44 45 51 52 50 51 50 52 55 51 50 48 47 49 46 46 48 53
28 28 29 29 29 28 27 27 28 29 29 29 29 31 32 33 32 32 34 35 35 35 40 44 48 52 46 48 52 58 55 53 52 51 50 54 49 50 54 52 54 52 49
34 33 31 31 33 33 34 35 36 36 35 36 37 38 39 39 39 39 39 40 41 41 42 42 43 43 42 42 46 40 44 44 45 44 43 42 43 43 42 54 56 53 55
36 36 37 38 38 40 41 41 41 41 43 44 45 45 45 45 46 46 46 46 47 47 48 48 49 49 49 50 50 51 51 51 51 50 50 51 51 49 47 47 43 43 47
29 31 33 35 37 40 42 44 45 46 46 48 49 50 50 50 50 51 52 52 52 53 54 54 54 55 56 56 56 57 58 59 58 57 56 56 56 57 56 54 53 51 48
30 32 33 35 37 40 43 45 48 49 50 51 51 52 53 54 54 54 54 58 61 60 59 59 60 59 60 62 63 63 63 64 64 64 64 64 64 64 63 63 62 60 59
36 38 39 39 41 44 47 49 52 53 53 53 54 54 54 55 57 57 56 56 57 58 61 63 65 65 67 67 66 67 68 69 69 70 71 70 69 68 68 69 69 70 68
41 44 46 47 47 50 54 57 57 54 52 53 53 54 54 53 54 57 58 60 62 64 65 65 66 67 69 70 72 73 75 76 75 75 75 76 76 76 75 74 73 72 71
43 45 48 48 50 54 56 58 59 54 48 47 49 52 55 56 58 58 59 60 61 61 62 63 63 65 69 72 74 77 78 79 80 81 81 81 81 82 83 83 81 79 79
44 46 47 49 50 47 44 42 41 38 40 46 46 46 46 48 49 49 49 49 49 50 52 53 55 59 61 64 67 70 73 75 77 79 81 83 84 85 85 86 87 88 86
43 45 47 48 46 42 38 36 37 40 42 41 39 39 41 43 44 43 42 43 46 48 52 54 59 62 64 66 68 70 73 75 76 78 79 80 81 82 82 83 84 85 87
45 45 47 46 44 42 40 39 38 39 39 40 40 39 39 39 38 36 37 39 44 49 53 57 60 63 65 67 69 71 71 73 75 77 79 80 82 83 83 84 83 83 83
46 46 47 46 44 43 42 41 40 38 42 44 43 41 36 33 32 34 38 45 52 58 60 63 64 65 64 63 63 62 62 62 63 65 67 70 72 75 77 79 82 83 83
46 46 47 46 45 43 43 42 40 43 44 45 45 39 32 32 35 39 45 51 53 54 56 57 56 55 53 52 51 51 49 49 49 48 50 52 56 58 61 63 67 72 76
46 46 47 48 46 44 43 44 42 42 44 45 43 35 32 34 37 42 49 43 44 49 48 44 41 40 39 39 38 38 37 37 37 37 36 36 37 39 41 45 47 50 54
45 45 47 48 48 46 45 44 42 41 43 41 34 31 31 36 39 45 45 41 44 42 41 39 36 32 29 26 24 23 22 22 22 21 21 20 20 20 21 24 26 29 31
45 45 46 47 48 47 45 45 42 40 42 37 30 28 30 36 39 44 42 38 38 38 36 34 33 31 28 26 24 21 18 16 14 12 12 12 12 11 12 12 12 12 11
45 46 46 46 48 48 46 45 41 40 40 32 27 27 32 35 39 43 40 36 36 36 35 34 33 31 28 26 25 22 20 17 15 14 12 10 9 7 5 3 2 1 4
45 45 45 46 47 48 45 44 40 38 38 28 26 27 33 36 40 41 40 38 38 36 34 34 34 33 31 29 23 20 18 16 14 12 9 7 4 1 4 4 9 9 7
45 45 45 45 46 47 44 42 38 37 35 26 24 26 31 33 36 37 38 38 37 35 34 35 35 31 26 17 15 18 18 16 14 8 5 4 2 4 3 3 10 6 5
43 44 44 44 45 45 43 41 37 35 31 23 22 26 29 30 32 33 37 39 38 33 29 28 24 20 14 13 15 19 18 18 18 18 14 12 11 9 8 9 8 7 3
42 43 43 42 43 43 41 39 35 34 28 21 19 24 27 29 31 33 36 38 37 28 20 19 18 18 17 18 18 21 20 20 18 16 14 12 7 2 5 10 11 5 6
41 42 42 41 41 41 39 37 32 31 24 19 17 22 26 27 29 29 30 33 32 16 13 14 17 18 20 23 23 22 24 20 16 13 12 9 6 2 6 7 8 4 3

GFSGL_500_spd_120.txt.gz
Wind_Speed
30 29 29 29 28 26 23 21 20 21 20 18 15 16 17 21 19 19 27 32 37 39 42 43 47 47 50 49 53 55 57 61 63 66 66 67 65 61 62 61 56 57 55
31 30 29 28 28 28 28 26 25 24 23 26 26 23 22 22 23 25 29 36 42 45 47 49 51 52 52 51 53 54 55 57 59 59 59 62 63 63 61 62 62 62 60
31 31 31 29 29 28 27 27 27 27 28 27 27 28 28 30 31 30 32 35 38 39 40 42 45 45 48 50 51 55 57 55 57 56 54 54 55 58 60 60 60 62 60
33 33 32 31 30 30 31 31 32 32 32 32 32 33 34 32 33 34 36 36 35 35 36 39 44 47 50 48 48 50 52 56 56 57 59 59 58 58 60 60 63 62 59
34 33 33 33 33 32 32 32 32 32 34 37 39 40 40 39 39 40 42 42 42 42 42 42 40 41 40 42 42 52 56 55 60 63 55 55 60 57 56 63 60 62 56
27 27 28 29 30 31 32 34 36 36 37 38 39 42 45 47 47 46 46 47 48 48 47 48 48 48 47 47 46 47 45 45 48 50 55 57 52 53 58 55 55 60 54
24 26 28 30 32 34 35 38 41 43 43 44 47 49 49 50 51 52 52 51 51 51 52 53 54 54 54 54 53 53 53 53 52 50 51 51 50 46 46 51 46 44 45
30 32 34 36 37 38 39 41 44 46 48 52 56 60 59 56 54 54 53 53 54 55 54 54 55 57 59 59 59 59 59 59 59 58 57 55 56 55 52 52 51 50 49
34 36 38 40 40 40 43 44 47 49 51 50 45 49 52 53 52 52 52 52 55 56 57 58 58 59 59 63 63 62 63 65 67 65 64 63 61 61 60 61 61 58 57
37 39 40 42 44 44 45 47 49 48 46 44 45 39 36 38 41 45 49 52 54 53 55 58 61 62 63 63 65 66 66 66 68 70 72 72 71 69 69 67 66 64 63
38 41 43 43 44 45 47 48 51 47 43 46 46 41 40 43 42 40 41 42 44 46 51 54 56 57 59 62 66 68 70 71 71 73 73 73 74 76 76 75 73 72 70
41 43 44 44 45 45 47 49 51 48 47 48 46 43 41 41 42 43 44 44 44 43 45 46 47 48 51 54 57 60 63 67 70 72 74 76 78 79 79 79 79 78 76
43 44 46 45 45 45 47 49 50 50 49 48 46 44 45 46 46 46 46 45 44 43 42 41 43 46 51 55 59 63 66 68 70 71 72 73 75 77 79 82 83 83 82
45 45 45 46 45 45 46 48 50 50 49 48 47 45 46 47 47 44 42 40 38 38 41 45 49 51 55 59 63 67 70 71 71 72 73 73 74 74 75 77 78 81 84
46 46 46 46 45 46 46 47 49 51 51 49 47 45 47 48 45 37 33 34 37 41 45 42 41 45 48 51 55 59 61 63 66 67 69 70 71 73 74 76 77 78 79
45 46 46 46 45 45 46 47 48 51 52 51 48 44 45 46 39 33 32 36 40 45 40 40 41 40 42 43 43 42 45 49 51 52 54 56 58 61 64 67 71 74 76
43 45 45 45 44 45 45 47 49 51 51 52 48 44 44 42 34 31 35 38 44 46 40 39 39 39 40 40 39 38 35 34 35 37 39 40 41 43 46 49 55 62 67
43 44 45 44 43 43 44 46 48 48 48 50 49 44 43 36 32 33 37 42 46 46 40 40 40 39 39 38 37 35 34 32 28 25 23 23 25 27 29 34 38 42 47
43 43 43 43 43 43 44 45 47 47 47 47 45 45 40 32 31 35 39 42 43 43 41 42 41 40 39 39 38 37 35 32 29 26 23 20 18 16 17 17 19 23 26
43 43 42 42 42 42 43 44 46 46 45 45 43 43 34 28 31 36 39 40 42 45 44 41 39 37 38 39 35 32 30 30 28 25 22 21 20 18 17 17 16 15 17
42 43 41 41 41 41 42 43 45 44 42 42 40 40 30 25 31 34 38 39 42 46 44 37 33 32 32 27 23 22 24 25 26 24 22 19 18 15 14 14 12 9 8
41 41 41 40 40 40 41 42 43 43 41 39 39 36 27 24 30 34 37 39 42 44 36 28 25 23 19 16 18 23 23 25 26 25 21 17 14 9 6 5 2 2 3
41 40 39 39 39 39 40 41 42 42 39 36 37 30 24 24 30 33 35 36 38 34 22 17 19 21 21 21 23 25 26 27 25 24 23 18 9 4 6 2 3 4 3
40 38 37 37 38 38 39 41 41 40 37 33 35 26 22 24 28 30 32 33 33 12 13 18 19 21 22 23 23 24 26 27 24 22 20 17 13 6 9 8 9 8 3
38 37 35 36 37 37 38 40 40 38 34 30 31 23 20 22 25 26 29 29 23 9 15 22 26 22 22 23 24 22 22 24 23 20 16 15 5 5 6 7 4 5 3
37 36 35 35 36 36 37 39 38 36 32 28 27 19 17 20 21 22 26 25 17 9 13 20 27 26 22 24 24 23 22 25 25 23 17 11 8 5 6 6 4 5 6